| time (UTC) | temp C | wind direction | speed KPH | gust KPH | rain 1hr cm | rain 24hr cm | rain mn cm | humidity % | barometer mb |
| 20260507130925 | 11 | 0 | 4.8 | 16.1 | 0.00 | 1.14 | 0.69 | 77 | 1005.9 |
| 20260507130836 | 11 | 0 | 4.8 | 16.1 | 0.00 | 1.14 | 0.69 | 78 | 1006.4 |
| 20260507130832 | 11 | 0 | 4.8 | 16.1 | 0.00 | 1.14 | 0.69 | 78 | 1006.3 |
| 20260507130623 | 11 | 0 | 4.8 | 16.1 | 0.00 | 1.14 | 0.69 | 79 | 1005.9 |
| 20260507130522 | 11 | 0 | 4.8 | 16.1 | 0.00 | 1.14 | 0.69 | 80 | 1006.1 |
| 20260507130519 | 11 | 360 | 6.4 | 16.1 | 0.00 | 1.14 | 0.69 | 80 | 1006.2 |
| 20260507130421 | 10 | 0 | 4.8 | 16.1 | 0.00 | 1.14 | 0.69 | 81 | 1006.1 |
| 20260507130321 | 10 | 0 | 4.8 | 16.1 | 0.00 | 1.14 | 0.69 | 81 | 1006.1 |
| 20260507130220 | 10 | 0 | 3.2 | 16.1 | 0.00 | 1.14 | 0.69 | 82 | 1006.1 |
| 20260507130135 | 10 | 0 | 3.2 | 16.1 | 0.00 | 1.14 | 0.69 | 85 | 1008.7 |
| 20260507130119 | 10 | 0 | 3.2 | 12.9 | 0.00 | 1.14 | 0.69 | 85 | 1008.7 |
| 20260507130034 | 10 | 360 | 8.0 | 8.0 | 0.00 | 1.14 | 0.69 | 89 | 1008.8 |
| 20260507130030 | 10 | 0 | 1.6 | 8.0 | 0.00 | 1.14 | 0.69 | 89 | 1008.7 |
| 20260507130026 | 10 | 0 | 1.6 | 8.0 | 0.00 | 1.14 | 0.69 | 89 | 1008.7 |
| 20260507125816 | 10 | 0 | 1.6 | 8.0 | 0.00 | 1.14 | 0.69 | 90 | 1008.7 |
| 20260507125716 | 10 | 0 | 1.6 | 6.4 | 0.00 | 1.14 | 0.69 | 90 | 1008.7 |
| 20260507125615 | 10 | 0 | 1.6 | 6.4 | 0.00 | 1.14 | 0.69 | 90 | 1008.7 |
| 20260507125542 | 10 | 0 | 1.6 | 8.0 | 0.00 | 1.14 | 0.69 | 90 | 1008.7 |
| 20260507125538 | 10 | 0 | 3.2 | 8.0 | 0.00 | 1.14 | 0.69 | 90 | 1007.8 |
| 20260507125532 | 10 | 0 | 1.6 | 6.4 | 0.00 | 1.14 | 0.69 | 90 | 1008.7 |
| 20260507125519 | 10 | 360 | 0.0 | 6.4 | 0.00 | 1.14 | 0.69 | 90 | 1008.8 |
| 20260507125214 | 10 | 0 | 3.2 | 8.0 | 0.00 | 1.14 | 0.69 | 90 | 1007.8 |
| 20260507125134 | 10 | 0 | 3.2 | 8.0 | 0.00 | 1.14 | 0.69 | 90 | 1007.8 |
| 20260507125126 | 10 | 0 | 3.2 | 8.0 | 0.00 | 1.14 | 0.69 | 90 | 1008.8 |
| 20260507125122 | 10 | 0 | 3.2 | 8.0 | 0.00 | 1.14 | 0.69 | 90 | 1008.8 |
| 20260507125020 | 10 | 360 | 1.6 | 8.0 | 0.00 | 1.14 | 0.69 | 90 | 1008.9 |
| 20260507124912 | 10 | 0 | 3.2 | 8.0 | 0.00 | 1.14 | 0.69 | 90 | 1009.1 |
| 20260507124825 | 10 | 0 | 1.6 | 8.0 | 0.00 | 1.14 | 0.69 | 91 | 1008.8 |
| 20260507124821 | 10 | 0 | 3.2 | 8.0 | 0.00 | 1.14 | 0.69 | 91 | 1009.1 |
| 20260507124631 | 10 | 0 | 1.6 | 8.0 | 0.00 | 1.14 | 0.69 | 92 | 1008.8 |
| 20260507124611 | 10 | 0 | 1.6 | 8.0 | 0.00 | 1.14 | 0.69 | 92 | 1009.2 |
| 20260507124519 | 10 | 360 | 3.2 | 8.0 | 0.00 | 1.14 | 0.69 | 92 | 1009.4 |
| 20260507124511 | 10 | 0 | 1.6 | 8.0 | 0.00 | 1.14 | 0.69 | 92 | 1009.3 |
| 20260507124409 | 10 | 0 | 1.6 | 6.4 | 0.00 | 1.14 | 0.69 | 93 | 1009.3 |
| 20260507124309 | 10 | 0 | 1.6 | 6.4 | 0.00 | 1.14 | 0.69 | 93 | 1009.2 |
| 20260507124208 | 10 | 0 | 1.6 | 6.4 | 0.00 | 1.14 | 0.69 | 93 | 1009.3 |
| 20260507124129 | 10 | 0 | 1.6 | 6.4 | 0.00 | 1.14 | 0.69 | 93 | 1009.3 |
| 20260507124108 | 10 | 0 | 1.6 | 6.4 | 0.00 | 1.14 | 0.69 | 93 | 1009.4 |
| 20260507124019 | 10 | 360 | 1.6 | 6.4 | 0.00 | 1.14 | 0.69 | 93 | 1009.5 |
| 20260507124008 | 10 | 0 | 0.0 | 6.4 | 0.00 | 1.14 | 0.69 | 93 | 1009.4 |
| 20260507123908 | 10 | 0 | 0.0 | 6.4 | 0.00 | 1.14 | 0.69 | 94 | 1009.4 |
| 20260507123820 | 10 | 0 | 0.0 | 6.4 | 0.00 | 1.14 | 0.69 | 94 | 1009.4 |
| 20260507123816 | 10 | 0 | 0.0 | 6.4 | 0.00 | 1.14 | 0.69 | 94 | 1009.4 |
| 20260507123629 | 10 | 0 | 0.0 | 6.4 | 0.00 | 1.14 | 0.69 | 94 | 1009.4 |
| 20260507123606 | 10 | 0 | 0.0 | 6.4 | 0.00 | 1.14 | 0.69 | 94 | 1009.5 |
| 20260507123549 | 10 | 360 | 0.0 | 6.4 | 0.00 | 1.14 | 0.69 | 94 | 1009.0 |
| 20260507123506 | 10 | 0 | 0.0 | 6.4 | 0.00 | 1.14 | 0.69 | 94 | 1008.9 |
| 20260507123406 | 10 | 0 | 0.0 | 6.4 | 0.00 | 1.14 | 0.69 | 95 | 1009.3 |
| 20260507123318 | 10 | 0 | 0.0 | 4.8 | 0.00 | 1.14 | 0.69 | 95 | 1009.3 |
| 20260507123314 | 10 | 0 | 0.0 | 4.8 | 0.00 | 1.14 | 0.69 | 95 | 1009.3 |
| 20260507123129 | 10 | 0 | 0.0 | 4.8 | 0.00 | 1.14 | 0.69 | 95 | 1009.3 |
| 20260507123105 | 10 | 0 | 0.0 | 4.8 | 0.00 | 1.14 | 0.69 | 95 | 1009.2 |
| 20260507123019 | 10 | 360 | 0.0 | 4.8 | 0.00 | 1.14 | 0.69 | 95 | 1009.4 |
| 20260507123003 | 10 | 0 | 0.0 | 4.8 | 0.00 | 1.14 | 0.69 | 95 | 1009.3 |
| 20260507122902 | 10 | 0 | 0.0 | 4.8 | 0.00 | 1.14 | 0.69 | 95 | 1009.2 |
| 20260507122834 | 10 | 0 | 1.6 | 6.4 | 0.00 | 1.14 | 0.69 | 95 | 1009.3 |
| 20260507122830 | 10 | 0 | 1.6 | 6.4 | 0.00 | 1.14 | 0.69 | 95 | 1009.3 |
| 20260507122824 | 10 | 0 | 1.6 | 4.8 | 0.00 | 1.14 | 0.69 | 95 | 1009.3 |
| 20260507122707 | 10 | 0 | 1.6 | 6.4 | 0.00 | 1.14 | 0.69 | 95 | 1009.3 |
| 20260507122519 | 10 | 360 | 0.0 | 6.4 | 0.00 | 1.14 | 0.69 | 95 | 1009.5 |
| 20260507122500 | 10 | 0 | 1.6 | 6.4 | 0.00 | 1.14 | 0.69 | 95 | 1009.4 |
| 20260507122412 | 10 | 0 | 0.0 | 6.4 | 0.00 | 1.14 | 0.69 | 95 | 1009.3 |
| 20260507122408 | 10 | 0 | 1.6 | 6.4 | 0.00 | 1.14 | 0.69 | 95 | 1009.3 |
| 20260507122158 | 10 | 0 | 0.0 | 6.4 | 0.00 | 1.14 | 0.69 | 95 | 1009.3 |
| 20260507122126 | 10 | 0 | 0.0 | 6.4 | 0.00 | 1.14 | 0.69 | 95 | 1009.3 |
| 20260507122111 | 10 | 0 | 0.0 | 6.4 | 0.00 | 1.14 | 0.69 | 95 | 1009.3 |
| 20260507122107 | 10 | 0 | 0.0 | 6.4 | 0.00 | 1.14 | 0.69 | 95 | 1009.3 |
| 20260507122019 | 10 | 360 | 0.0 | 6.4 | 0.00 | 1.14 | 0.69 | 95 | 1009.4 |
| 20260507121857 | 10 | 0 | 1.6 | 6.4 | 0.00 | 1.14 | 0.69 | 95 | 1009.3 |
| 20260507121809 | 10 | 0 | 1.6 | 4.8 | 0.00 | 1.14 | 0.69 | 95 | 1009.3 |
| 20260507121805 | 10 | 0 | 1.6 | 6.4 | 0.00 | 1.14 | 0.69 | 95 | 1009.3 |
| 20260507121628 | 10 | 0 | 1.6 | 4.8 | 0.00 | 1.14 | 0.69 | 95 | 1009.3 |
| 20260507121555 | 10 | 0 | 1.6 | 4.8 | 0.00 | 1.14 | 0.69 | 95 | 1009.2 |
| 20260507121519 | 10 | 360 | 0.0 | 4.8 | 0.00 | 1.14 | 0.69 | 95 | 1009.3 |
| 20260507121455 | 10 | 0 | 1.6 | 4.8 | 0.00 | 1.14 | 0.69 | 95 | 1009.2 |
| 20260507121355 | 10 | 0 | 1.6 | 4.8 | 0.00 | 1.14 | 0.69 | 95 | 1009.1 |
| 20260507121349 | 10 | 0 | 1.6 | 4.8 | 0.00 | 1.14 | 0.69 | 95 | 1009.0 |
| 20260507121254 | 10 | 0 | 1.6 | 4.8 | 0.00 | 1.14 | 0.69 | 95 | 1009.1 |
| 20260507121234 | 10 | 0 | 1.6 | 4.8 | 0.00 | 1.14 | 0.69 | 95 | 1009.0 |
| 20260507121054 | 10 | 0 | 1.6 | 4.8 | 0.00 | 1.14 | 0.69 | 95 | 1009.1 |
| 20260507121019 | 10 | 360 | 0.0 | 4.8 | 0.00 | 1.14 | 0.69 | 95 | 1009.2 |
| 20260507120954 | 10 | 0 | 1.6 | 4.8 | 0.00 | 1.14 | 0.69 | 95 | 1009.1 |
| 20260507120851 | 10 | 0 | 1.6 | 4.8 | 0.00 | 1.14 | 0.69 | 95 | 1009.1 |
| 20260507120751 | 10 | 0 | 1.6 | 4.8 | 0.00 | 1.14 | 0.69 | 95 | 1009.1 |
| 20260507120625 | 10 | 0 | 1.6 | 4.8 | 0.00 | 1.14 | 0.69 | 95 | 1009.1 |
| 20260507120550 | 10 | 0 | 1.6 | 4.8 | 0.00 | 1.14 | 0.69 | 95 | 1009.1 |
| 20260507120519 | 10 | 360 | 0.0 | 4.8 | 0.00 | 1.14 | 0.69 | 95 | 1009.2 |
| 20260507120502 | 10 | 0 | 1.6 | 4.8 | 0.00 | 1.14 | 0.69 | 95 | 1009.2 |
| 20260507120458 | 10 | 0 | 1.6 | 4.8 | 0.00 | 1.14 | 0.69 | 95 | 1009.1 |
| 20260507120249 | 10 | 0 | 1.6 | 4.8 | 0.00 | 1.14 | 0.69 | 95 | 1009.2 |
| 20260507120126 | 10 | 0 | 0.0 | 4.8 | 0.00 | 1.14 | 0.69 | 96 | 1009.2 |
| 20260507120047 | 10 | 0 | 0.0 | 4.8 | 0.00 | 1.14 | 0.69 | 96 | 1009.2 |
| 20260507120034 | 10 | 360 | 1.6 | 4.8 | 0.00 | 1.14 | 0.69 | 96 | 1009.4 |
| 20260507120009 | 10 | 0 | 0.0 | 4.8 | 0.00 | 1.14 | 0.69 | 96 | 1009.3 |
| 20260507115856 | 10 | 0 | 0.0 | 4.8 | 0.00 | 1.14 | 0.69 | 96 | 1009.3 |
| 20260507115646 | 10 | 0 | 0.0 | 4.8 | 0.00 | 1.14 | 0.69 | 96 | 1009.3 |
| 20260507115625 | 10 | 0 | 0.0 | 3.2 | 0.00 | 1.14 | 0.69 | 96 | 1009.3 |
| 20260507115546 | 10 | 0 | 0.0 | 3.2 | 0.00 | 1.14 | 0.69 | 96 | 1009.4 |
| 20260507115519 | 10 | 360 | 0.0 | 3.2 | 0.00 | 1.14 | 0.69 | 96 | 1009.6 |
| 20260507115444 | 10 | 0 | 0.0 | 3.2 | 0.00 | 1.14 | 0.69 | 96 | 1009.4 |
| 20260507115344 | 10 | 0 | 0.0 | 3.2 | 0.00 | 1.14 | 0.69 | 96 | 1009.4 |
| 20260507115257 | 10 | 0 | 0.0 | 1.6 | 0.00 | 1.14 | 0.69 | 96 | 1009.4 |
| 20260507115253 | 10 | 0 | 0.0 | 1.6 | 0.00 | 1.14 | 0.69 | 96 | 1009.4 |
| 20260507115124 | 10 | 0 | 0.0 | 1.6 | 0.00 | 1.14 | 0.69 | 96 | 1009.4 |
| 20260507115043 | 10 | 0 | 0.0 | 1.6 | 0.00 | 1.14 | 0.69 | 96 | 1009.4 |
| 20260507115019 | 10 | 360 | 0.0 | 1.6 | 0.00 | 1.14 | 0.69 | 96 | 1009.6 |
| 20260507114943 | 10 | 0 | 0.0 | 1.6 | 0.00 | 1.14 | 0.69 | 96 | 1009.4 |
| 20260507114841 | 10 | 0 | 0.0 | 1.6 | 0.00 | 1.14 | 0.69 | 96 | 1009.4 |
| 20260507114755 | 10 | 0 | 0.0 | 3.2 | 0.00 | 1.14 | 0.69 | 96 | 1009.3 |
| 20260507114751 | 10 | 0 | 0.0 | 1.6 | 0.00 | 1.14 | 0.69 | 96 | 1009.3 |
| 20260507114622 | 10 | 0 | 0.0 | 3.2 | 0.00 | 1.14 | 0.69 | 96 | 1009.3 |
| 20260507114603 | 10 | 0 | 0.0 | 3.2 | 0.00 | 1.14 | 0.69 | 96 | 1009.3 |
| 20260507114519 | 10 | 360 | 0.0 | 3.2 | 0.00 | 1.14 | 0.69 | 96 | 1009.5 |
| 20260507114450 | 10 | 0 | 0.0 | 3.2 | 0.00 | 1.14 | 0.69 | 96 | 1009.3 |
| 20260507114307 | 10 | 0 | 0.0 | 3.2 | 0.00 | 1.14 | 0.69 | 96 | 1009.3 |
| 20260507114145 | 10 | 0 | 0.0 | 3.2 | 0.00 | 1.14 | 0.69 | 96 | 1009.3 |
| 20260507114019 | 10 | 360 | 0.0 | 3.2 | 0.00 | 1.14 | 0.69 | 96 | 1009.5 |
| 20260507113938 | 10 | 0 | 0.0 | 3.2 | 0.00 | 1.14 | 0.69 | 96 | 1009.4 |
| 20260507113838 | 10 | 0 | 0.0 | 3.2 | 0.00 | 1.14 | 0.69 | 96 | 1009.4 |
| 20260507113737 | 10 | 0 | 0.0 | 3.2 | 0.00 | 1.14 | 0.69 | 96 | 1009.4 |
| 20260507113620 | 10 | 0 | 0.0 | 0.0 | 0.00 | 1.14 | 0.69 | 96 | 1009.4 |
| 20260507113536 | 10 | 0 | 0.0 | 0.0 | 0.00 | 1.14 | 0.69 | 96 | 1009.4 |
| 20260507113534 | 10 | 360 | 0.0 | 0.0 | 0.00 | 1.14 | 0.69 | 96 | 1009.4 |
| 20260507113435 | 10 | 0 | 0.0 | 0.0 | 0.00 | 1.14 | 0.69 | 96 | 1009.3 |
| 20260507113344 | 10 | 0 | 0.0 | 0.0 | 0.00 | 1.14 | 0.69 | 96 | 1009.3 |
| 20260507113335 | 10 | 0 | 0.0 | 0.0 | 0.00 | 1.14 | 0.69 | 96 | 1009.3 |
| 20260507113235 | 10 | 0 | 0.0 | 0.0 | 0.00 | 1.14 | 0.69 | 96 | 1009.3 |
| 20260507113226 | 10 | 0 | 0.0 | 0.0 | 0.00 | 1.14 | 0.69 | 96 | 1009.3 |
| 20260507113034 | 10 | 0 | 0.0 | 0.0 | 0.00 | 1.14 | 0.69 | 96 | 1009.3 |
| 20260507113019 | 10 | 360 | 0.0 | 0.0 | 0.00 | 1.14 | 0.69 | 96 | 1009.4 |
| 20260507112934 | 10 | 0 | 0.0 | 0.0 | 0.00 | 1.14 | 0.69 | 96 | 1009.3 |
| 20260507112833 | 10 | 0 | 0.0 | 0.0 | 0.00 | 1.14 | 0.69 | 96 | 1009.2 |
| 20260507112733 | 10 | 0 | 0.0 | 1.6 | 0.00 | 1.14 | 0.69 | 96 | 1009.2 |
| 20260507112616 | 10 | 0 | 0.0 | 1.6 | 0.00 | 1.14 | 0.69 | 96 | 1009.2 |
| 20260507112546 | 10 | 0 | 0.0 | 1.6 | 0.00 | 1.14 | 0.69 | 96 | 1009.2 |
| 20260507112541 | 10 | 0 | 0.0 | 1.6 | 0.00 | 1.14 | 0.69 | 96 | 1009.2 |
| 20260507112519 | 10 | 360 | 0.0 | 1.6 | 0.00 | 1.14 | 0.69 | 96 | 1009.3 |
| 20260507112331 | 10 | 0 | 0.0 | 1.6 | 0.00 | 1.14 | 0.69 | 96 | 1009.1 |
| 20260507112230 | 10 | 0 | 0.0 | 1.6 | 0.00 | 1.14 | 0.69 | 96 | 1009.0 |
| 20260507112150 | 10 | 0 | 0.0 | 1.6 | 0.00 | 1.14 | 0.69 | 96 | 1009.0 |
| 20260507112137 | 10 | 0 | 0.0 | 1.6 | 0.00 | 1.14 | 0.69 | 96 | 1009.0 |
| 20260507112019 | 10 | 360 | 0.0 | 1.6 | 0.00 | 1.14 | 0.69 | 96 | 1009.1 |
| 20260507111930 | 10 | 0 | 0.0 | 1.6 | 0.00 | 1.14 | 0.69 | 96 | 1009.0 |
| 20260507111851 | 10 | 0 | 0.0 | 1.6 | 0.00 | 1.14 | 0.69 | 96 | 1009.0 |
| 20260507111738 | 10 | 0 | 0.0 | 1.6 | 0.00 | 1.14 | 0.69 | 96 | 1009.0 |
| 20260507111612 | 10 | 0 | 0.0 | 1.6 | 0.00 | 1.14 | 0.69 | 96 | 1009.0 |
| 20260507111542 | 10 | 0 | 0.0 | 1.6 | 0.00 | 1.14 | 0.69 | 96 | 1009.0 |
| 20260507111538 | 10 | 0 | 0.0 | 1.6 | 0.00 | 1.14 | 0.69 | 96 | 1009.0 |
| 20260507111519 | 10 | 360 | 0.0 | 1.6 | 0.00 | 1.14 | 0.69 | 96 | 1009.1 |
| 20260507111327 | 10 | 0 | 0.0 | 1.6 | 0.00 | 1.14 | 0.69 | 96 | 1008.9 |
| 20260507111300 | 10 | 0 | 0.0 | 1.6 | 0.00 | 1.14 | 0.69 | 96 | 1008.9 |
| 20260507111255 | 10 | 0 | 0.0 | 1.6 | 0.00 | 1.14 | 0.69 | 96 | 1008.9 |
| 20260507111250 | 10 | 0 | 0.0 | 1.6 | 0.00 | 1.14 | 0.69 | 96 | 1008.9 |
| 20260507111133 | 10 | 0 | 0.0 | 1.6 | 0.00 | 1.14 | 0.69 | 96 | 1008.9 |
| 20260507111020 | 10 | 360 | 0.0 | 1.6 | 0.00 | 1.14 | 0.69 | 96 | 1009.1 |
| 20260507110927 | 10 | 0 | 0.0 | 1.6 | 0.00 | 1.14 | 0.69 | 96 | 1008.9 |
| 20260507110826 | 10 | 0 | 0.0 | 1.6 | 0.00 | 1.14 | 0.69 | 96 | 1008.9 |
| 20260507110725 | 10 | 0 | 0.0 | 1.6 | 0.00 | 1.14 | 0.69 | 96 | 1008.9 |
| 20260507110624 | 10 | 0 | 0.0 | 0.0 | 0.00 | 1.14 | 0.69 | 96 | 1008.9 |
| 20260507110612 | 10 | 0 | 0.0 | 0.0 | 0.00 | 1.14 | 0.69 | 96 | 1008.9 |
| 20260507110525 | 10 | 0 | 0.0 | 0.0 | 0.00 | 1.14 | 0.69 | 96 | 1008.9 |
| 20260507110519 | 10 | 360 | 0.0 | 0.0 | 0.00 | 1.14 | 0.69 | 96 | 1009.1 |
| 20260507110423 | 10 | 0 | 0.0 | 0.0 | 0.00 | 1.14 | 0.69 | 96 | 1008.9 |
| 20260507110323 | 10 | 0 | 0.0 | 0.0 | 0.00 | 1.14 | 0.69 | 96 | 1008.9 |
| 20260507110223 | 10 | 0 | 0.0 | 0.0 | 0.00 | 1.14 | 0.69 | 96 | 1008.9 |
| 20260507110110 | 10 | 0 | 0.0 | 0.0 | 0.00 | 1.14 | 0.69 | 96 | 1008.9 |
| 20260507110057 | 10 | 0 | 0.0 | 0.0 | 0.00 | 1.14 | 0.69 | 96 | 1008.8 |
| 20260507110051 | 10 | 0 | 0.0 | 0.0 | 0.00 | 1.14 | 0.69 | 96 | 1008.9 |
| 20260507110019 | 10 | 360 | 0.0 | 0.0 | 0.00 | 1.14 | 0.69 | 96 | 1009.1 |
| 20260507105938 | 10 | 0 | 0.0 | 0.0 | 0.00 | 1.14 | 0.69 | 96 | 1008.9 |
| 20260507105619 | 10 | 0 | 0.0 | 0.0 | 0.00 | 1.14 | 0.69 | 96 | 1008.7 |
| 20260507105609 | 10 | 0 | 0.0 | 0.0 | 0.00 | 1.14 | 0.69 | 96 | 1008.8 |
| 20260507105519 | 10 | 360 | 0.0 | 0.0 | 0.00 | 1.14 | 0.69 | 96 | 1009.0 |
| 20260507105418 | 10 | 0 | 0.0 | 0.0 | 0.00 | 1.14 | 0.69 | 96 | 1008.8 |
| 20260507105317 | 10 | 0 | 0.0 | 0.0 | 0.00 | 1.14 | 0.69 | 96 | 1008.7 |
| 20260507105217 | 10 | 0 | 0.0 | 0.0 | 0.00 | 1.14 | 0.69 | 96 | 1008.7 |
| 20260507105107 | 10 | 0 | 0.0 | 0.0 | 0.00 | 1.14 | 0.69 | 96 | 1008.6 |
| 20260507105019 | 10 | 360 | 0.0 | 0.0 | 0.00 | 1.14 | 0.69 | 96 | 1008.8 |
| 20260507105016 | 10 | 0 | 0.0 | 0.0 | 0.00 | 1.14 | 0.69 | 96 | 1008.6 |
| 20260507104916 | 10 | 0 | 0.0 | 0.0 | 0.00 | 1.14 | 0.69 | 96 | 1008.6 |
| 20260507104816 | 10 | 0 | 0.0 | 0.0 | 0.00 | 1.14 | 0.69 | 96 | 1008.5 |
| 20260507104714 | 10 | 0 | 0.0 | 0.0 | 0.00 | 1.14 | 0.69 | 96 | 1008.5 |
| 20260507104607 | 10 | 0 | 0.0 | 0.0 | 0.00 | 1.14 | 0.69 | 96 | 1008.5 |
| 20260507104534 | 10 | 360 | 0.0 | 0.0 | 0.00 | 1.14 | 0.69 | 96 | 1008.7 |
| 20260507104515 | 10 | 0 | 0.0 | 0.0 | 0.00 | 1.14 | 0.69 | 96 | 1008.5 |
| 20260507104414 | 10 | 0 | 0.0 | 0.0 | 0.00 | 1.14 | 0.69 | 96 | 1008.5 |
| 20260507104312 | 10 | 0 | 0.0 | 0.0 | 0.00 | 1.14 | 0.69 | 96 | 1008.4 |
| 20260507104212 | 10 | 0 | 0.0 | 0.0 | 0.00 | 1.14 | 0.69 | 96 | 1008.4 |
| 20260507104106 | 10 | 0 | 0.0 | 0.0 | 0.00 | 1.14 | 0.69 | 96 | 1008.4 |
| 20260507104034 | 10 | 360 | 0.0 | 0.0 | 0.00 | 1.14 | 0.69 | 96 | 1008.6 |
| 20260507104024 | 9 | 0 | 0.0 | 0.0 | 0.00 | 1.14 | 0.69 | 96 | 1008.4 |
| 20260507104020 | 9 | 0 | 0.0 | 0.0 | 0.00 | 1.14 | 0.69 | 96 | 1008.4 |
| 20260507103810 | 9 | 0 | 0.0 | 0.0 | 0.00 | 1.14 | 0.69 | 96 | 1008.5 |
| 20260507103710 | 9 | 0 | 0.0 | 1.6 | 0.00 | 1.14 | 0.69 | 96 | 1008.4 |
| 20260507103630 | 9 | 0 | 0.0 | 1.6 | 0.00 | 1.14 | 0.69 | 96 | 1008.5 |
| 20260507103618 | 9 | 0 | 0.0 | 1.6 | 0.00 | 1.14 | 0.69 | 96 | 1008.5 |
| 20260507103520 | 10 | 360 | 0.0 | 1.6 | 0.00 | 1.14 | 0.69 | 96 | 1008.7 |
| 20260507103409 | 9 | 0 | 0.0 | 1.6 | 0.00 | 1.14 | 0.69 | 96 | 1008.5 |
| 20260507103309 | 9 | 0 | 0.0 | 1.6 | 0.00 | 1.14 | 0.69 | 96 | 1008.4 |
| 20260507103208 | 9 | 0 | 0.0 | 1.6 | 0.00 | 1.14 | 0.69 | 96 | 1008.4 |
| 20260507103103 | 9 | 0 | 0.0 | 1.6 | 0.00 | 1.14 | 0.69 | 96 | 1008.4 |
| 20260507103021 | 9 | 360 | 0.0 | 1.6 | 0.00 | 1.14 | 0.69 | 96 | 1008.4 |
| 20260507103005 | 9 | 0 | 0.0 | 1.6 | 0.00 | 1.14 | 0.69 | 96 | 1008.3 |
| 20260507102905 | 9 | 0 | 0.0 | 1.6 | 0.00 | 1.14 | 0.69 | 96 | 1008.3 |
| 20260507102805 | 9 | 0 | 0.0 | 1.6 | 0.00 | 1.14 | 0.69 | 95 | 1008.3 |
| 20260507102704 | 9 | 0 | 0.0 | 0.0 | 0.00 | 1.14 | 0.69 | 95 | 1008.3 |
| 20260507102605 | 9 | 0 | 0.0 | 0.0 | 0.00 | 1.14 | 0.69 | 95 | 1008.3 |
| 20260507102519 | 9 | 360 | 0.0 | 0.0 | 0.00 | 1.14 | 0.69 | 95 | 1008.4 |
| 20260507102503 | 9 | 0 | 0.0 | 0.0 | 0.00 | 1.14 | 0.69 | 95 | 1008.3 |
| 20260507102402 | 9 | 0 | 0.0 | 0.0 | 0.00 | 1.14 | 0.69 | 95 | 1008.3 |
| 20260507102306 | 9 | 0 | 0.0 | 0.0 | 0.00 | 1.14 | 0.69 | 95 | 1008.3 |
| 20260507102216 | 9 | 0 | 0.0 | 0.0 | 0.00 | 1.14 | 0.69 | 96 | 1008.4 |
| 20260507102207 | 9 | 0 | 0.0 | 0.0 | 0.00 | 1.14 | 0.69 | 96 | 1008.3 |
| 20260507102019 | 9 | 360 | 0.0 | 0.0 | 0.00 | 1.14 | 0.69 | 96 | 1008.4 |
| 20260507102001 | 9 | 0 | 0.0 | 0.0 | 0.00 | 1.14 | 0.69 | 96 | 1008.3 |
| 20260507101900 | 9 | 0 | 0.0 | 0.0 | 0.00 | 1.14 | 0.69 | 96 | 1008.3 |
| 20260507101800 | 9 | 0 | 0.0 | 0.0 | 0.00 | 1.14 | 0.69 | 96 | 1008.3 |
| 20260507101659 | 9 | 0 | 0.0 | 0.0 | 0.00 | 1.14 | 0.69 | 96 | 1008.2 |
| 20260507101559 | 9 | 0 | 0.0 | 0.0 | 0.00 | 1.14 | 0.69 | 96 | 1008.2 |
| 20260507101534 | 9 | 360 | 0.0 | 0.0 | 0.00 | 1.14 | 0.69 | 96 | 1008.3 |
| 20260507101458 | 9 | 0 | 0.0 | 0.0 | 0.00 | 1.14 | 0.69 | 96 | 1008.2 |
| 20260507101358 | 9 | 0 | 0.0 | 0.0 | 0.00 | 1.14 | 0.69 | 96 | 1008.2 |
| 20260507101331 | 9 | 0 | 0.0 | 0.0 | 0.00 | 1.14 | 0.69 | 95 | 1008.2 |
| 20260507101327 | 9 | 0 | 0.0 | 0.0 | 0.00 | 1.14 | 0.69 | 95 | 1008.2 |
| 20260507101321 | 9 | 0 | 0.0 | 0.0 | 0.00 | 1.14 | 0.69 | 95 | 1008.2 |
| 20260507101203 | 9 | 0 | 0.0 | 0.0 | 0.00 | 1.14 | 0.69 | 95 | 1008.2 |
| 20260507101019 | 9 | 360 | 0.0 | 0.0 | 0.00 | 1.14 | 0.69 | 95 | 1008.3 |
| 20260507100957 | 9 | 0 | 0.0 | 0.0 | 0.00 | 1.14 | 0.69 | 95 | 1008.2 |
| 20260507100909 | 9 | 0 | 0.0 | 0.0 | 0.00 | 1.14 | 0.69 | 95 | 1008.0 |
| 20260507100905 | 9 | 0 | 0.0 | 0.0 | 0.00 | 1.14 | 0.69 | 95 | 1008.2 |
| 20260507100655 | 9 | 0 | 0.0 | 0.0 | 0.00 | 1.14 | 0.69 | 95 | 1008.0 |
| 20260507100555 | 9 | 0 | 0.0 | 0.0 | 0.00 | 1.14 | 0.69 | 95 | 1007.9 |
| 20260507100519 | 9 | 360 | 0.0 | 0.0 | 0.00 | 1.14 | 0.69 | 95 | 1008.1 |
| 20260507100454 | 9 | 0 | 0.0 | 0.0 | 0.00 | 1.14 | 0.69 | 95 | 1008.0 |
| 20260507100354 | 9 | 0 | 0.0 | 0.0 | 0.00 | 1.14 | 0.69 | 95 | 1008.0 |
| 20260507100253 | 9 | 0 | 0.0 | 0.0 | 0.00 | 1.14 | 0.69 | 95 | 1008.0 |
| 20260507100152 | 9 | 0 | 0.0 | 0.0 | 0.00 | 1.14 | 0.69 | 95 | 1007.9 |
| 20260507100053 | 9 | 0 | 0.0 | 0.0 | 0.00 | 1.14 | 0.69 | 95 | 1007.9 |
| 20260507100019 | 9 | 360 | 0.0 | 0.0 | 0.00 | 1.14 | 0.69 | 95 | 1008.0 |
| 20260507095952 | 9 | 0 | 0.0 | 0.0 | 0.00 | 1.14 | 0.69 | 95 | 1007.9 |
| 20260507095851 | 9 | 0 | 0.0 | 0.0 | 0.00 | 1.14 | 0.69 | 95 | 1007.9 |
| 20260507095750 | 9 | 0 | 0.0 | 0.0 | 0.00 | 1.14 | 0.69 | 95 | 1007.9 |
| 20260507095702 | 9 | 0 | 0.0 | 0.0 | 0.00 | 1.14 | 0.69 | 95 | 1007.9 |
| 20260507095653 | 9 | 0 | 0.0 | 0.0 | 0.00 | 1.14 | 0.69 | 95 | 1007.9 |
| 20260507095519 | 9 | 360 | 0.0 | 0.0 | 0.00 | 1.14 | 0.69 | 95 | 1008.1 |
| 20260507095447 | 9 | 0 | 0.0 | 0.0 | 0.00 | 1.14 | 0.69 | 95 | 1008.0 |
| 20260507095346 | 9 | 0 | 0.0 | 0.0 | 0.00 | 1.14 | 0.69 | 95 | 1008.0 |
| 20260507095246 | 9 | 0 | 0.0 | 0.0 | 0.00 | 1.14 | 0.69 | 95 | 1008.0 |
| 20260507095146 | 9 | 0 | 0.0 | 0.0 | 0.00 | 1.14 | 0.69 | 95 | 1008.1 |
| 20260507095046 | 9 | 0 | 0.0 | 0.0 | 0.00 | 1.14 | 0.69 | 95 | 1008.0 |
| 20260507095019 | 9 | 360 | 0.0 | 0.0 | 0.00 | 1.14 | 0.69 | 95 | 1008.2 |
| 20260507094946 | 9 | 0 | 0.0 | 0.0 | 0.00 | 1.14 | 0.69 | 95 | 1008.1 |
| 20260507094845 | 9 | 0 | 0.0 | 0.0 | 0.00 | 1.14 | 0.69 | 95 | 1008.0 |
| 20260507094759 | 9 | 0 | 0.0 | 0.0 | 0.00 | 1.14 | 0.69 | 95 | 1008.0 |
| 20260507094754 | 9 | 0 | 0.0 | 0.0 | 0.00 | 1.14 | 0.69 | 95 | 1008.0 |
| 20260507094603 | 9 | 0 | 0.0 | 0.0 | 0.00 | 1.14 | 0.69 | 95 | 1008.0 |
| 20260507094552 | 9 | 0 | 0.0 | 0.0 | 0.00 | 1.14 | 0.69 | 95 | 1008.0 |
| 20260507094519 | 9 | 360 | 0.0 | 0.0 | 0.00 | 1.14 | 0.69 | 95 | 1008.1 |
| 20260507094343 | 9 | 0 | 0.0 | 0.0 | 0.00 | 1.14 | 0.69 | 95 | 1007.9 |
| 20260507094316 | 9 | 0 | 0.0 | 0.0 | 0.00 | 1.14 | 0.69 | 95 | 1007.8 |
| 20260507094311 | 9 | 0 | 0.0 | 0.0 | 0.00 | 1.14 | 0.69 | 95 | 1007.7 |
| 20260507094306 | 9 | 0 | 0.0 | 0.0 | 0.00 | 1.14 | 0.69 | 95 | 1007.9 |
| 20260507094149 | 9 | 0 | 0.0 | 0.0 | 0.00 | 1.14 | 0.69 | 95 | 1007.7 |
| 20260507094020 | 9 | 360 | 0.0 | 0.0 | 0.00 | 1.14 | 0.69 | 95 | 1007.9 |
| 20260507093943 | 9 | 0 | 0.0 | 0.0 | 0.00 | 1.14 | 0.69 | 95 | 1007.8 |
| 20260507093842 | 9 | 0 | 0.0 | 0.0 | 0.00 | 1.14 | 0.69 | 95 | 1007.8 |
| 20260507093742 | 9 | 0 | 0.0 | 0.0 | 0.00 | 1.14 | 0.69 | 95 | 1007.8 |
| 20260507093641 | 9 | 0 | 0.0 | 0.0 | 0.00 | 1.14 | 0.69 | 95 | 1007.7 |
| 20260507093541 | 9 | 0 | 0.0 | 0.0 | 0.00 | 1.14 | 0.69 | 95 | 1007.8 |
| 20260507093534 | 9 | 360 | 0.0 | 0.0 | 0.00 | 1.14 | 0.69 | 95 | 1007.9 |
| 20260507093440 | 9 | 0 | 0.0 | 0.0 | 0.00 | 1.14 | 0.69 | 95 | 1007.8 |
| 20260507093340 | 9 | 0 | 0.0 | 0.0 | 0.00 | 1.14 | 0.69 | 95 | 1007.9 |
| 20260507093240 | 9 | 0 | 0.0 | 0.0 | 0.00 | 1.14 | 0.69 | 95 | 1007.9 |
| 20260507093141 | 9 | 0 | 0.0 | 0.0 | 0.00 | 1.14 | 0.69 | 95 | 1007.9 |
| 20260507093039 | 9 | 0 | 0.0 | 0.0 | 0.00 | 1.14 | 0.69 | 95 | 1007.9 |
| 20260507093019 | 9 | 360 | 0.0 | 0.0 | 0.00 | 1.14 | 0.69 | 95 | 1008.0 |
| 20260507092938 | 9 | 0 | 0.0 | 0.0 | 0.00 | 1.14 | 0.69 | 95 | 1007.9 |
| 20260507092838 | 9 | 0 | 0.0 | 0.0 | 0.00 | 1.14 | 0.69 | 95 | 1007.8 |
| 20260507092738 | 9 | 0 | 0.0 | 0.0 | 0.00 | 1.14 | 0.69 | 95 | 1007.7 |
| 20260507092637 | 9 | 0 | 0.0 | 0.0 | 0.00 | 1.14 | 0.69 | 95 | 1007.6 |
| 20260507092559 | 9 | 0 | 0.0 | 0.0 | 0.00 | 1.14 | 0.69 | 95 | 1007.6 |
| 20260507092519 | 9 | 360 | 0.0 | 0.0 | 0.00 | 1.14 | 0.69 | 95 | 1007.8 |
| 20260507092446 | 9 | 0 | 0.0 | 0.0 | 0.00 | 1.14 | 0.69 | 95 | 1007.6 |
| 20260507092249 | 9 | 0 | 0.0 | 0.0 | 0.00 | 1.14 | 0.69 | 95 | 1007.6 |
| 20260507092244 | 9 | 0 | 0.0 | 0.0 | 0.00 | 1.14 | 0.69 | 95 | 1007.6 |
| 20260507092049 | 9 | 0 | 0.0 | 0.0 | 0.00 | 1.14 | 0.69 | 95 | 1007.7 |
| 20260507092043 | 9 | 0 | 0.0 | 0.0 | 0.00 | 1.14 | 0.69 | 95 | 1007.6 |
| 20260507092019 | 9 | 360 | 0.0 | 0.0 | 0.00 | 1.14 | 0.69 | 95 | 1007.9 |
| 20260507091834 | 9 | 0 | 0.0 | 0.0 | 0.00 | 1.14 | 0.69 | 95 | 1007.7 |
| 20260507091733 | 9 | 0 | 0.0 | 0.0 | 0.00 | 1.14 | 0.69 | 95 | 1007.7 |
| 20260507091633 | 9 | 0 | 0.0 | 0.0 | 0.00 | 1.14 | 0.69 | 95 | 1007.7 |
| 20260507091532 | 9 | 0 | 0.0 | 0.0 | 0.00 | 1.14 | 0.69 | 95 | 1007.7 |
| 20260507091519 | 9 | 360 | 0.0 | 0.0 | 0.00 | 1.14 | 0.69 | 95 | 1007.8 |
| 20260507091432 | 9 | 0 | 0.0 | 0.0 | 0.00 | 1.14 | 0.69 | 95 | 1007.6 |
| 20260507091331 | 9 | 0 | 0.0 | 0.0 | 0.00 | 1.14 | 0.69 | 95 | 1007.7 |
| 20260507091231 | 9 | 0 | 0.0 | 0.0 | 0.00 | 1.14 | 0.69 | 95 | 1007.6 |
| 20260507091131 | 9 | 0 | 0.0 | 0.0 | 0.00 | 1.14 | 0.69 | 95 | 1007.6 |
| 20260507091044 | 9 | 0 | 0.0 | 0.0 | 0.00 | 1.14 | 0.69 | 95 | 1007.6 |
| 20260507091039 | 9 | 0 | 0.0 | 0.0 | 0.00 | 1.14 | 0.69 | 95 | 1007.5 |
| 20260507091019 | 9 | 360 | 0.0 | 0.0 | 0.00 | 1.14 | 0.69 | 95 | 1007.8 |
| 20260507090829 | 9 | 0 | 0.0 | 0.0 | 0.00 | 1.14 | 0.69 | 95 | 1007.6 |
| 20260507090729 | 9 | 0 | 0.0 | 0.0 | 0.00 | 1.14 | 0.69 | 95 | 1007.6 |
| 20260507090628 | 9 | 0 | 0.0 | 0.0 | 0.00 | 1.14 | 0.69 | 95 | 1007.6 |
| 20260507090542 | 9 | 0 | 0.0 | 0.0 | 0.00 | 1.14 | 0.69 | 95 | 1007.5 |
| 20260507090537 | 9 | 0 | 0.0 | 0.0 | 0.00 | 1.14 | 0.69 | 95 | 1007.5 |
| 20260507090519 | 9 | 360 | 0.0 | 0.0 | 0.00 | 1.14 | 0.69 | 95 | 1007.7 |
| 20260507090327 | 9 | 0 | 0.0 | 0.0 | 0.00 | 1.14 | 0.69 | 95 | 1007.4 |
| 20260507090227 | 9 | 0 | 0.0 | 0.0 | 0.00 | 1.14 | 0.69 | 95 | 1007.4 |
| 20260507090154 | 9 | 0 | 0.0 | 0.0 | 0.00 | 1.14 | 0.69 | 95 | 1007.5 |
| 20260507090149 | 9 | 0 | 0.0 | 0.0 | 0.00 | 1.14 | 0.69 | 95 | 1007.4 |
| 20260507090141 | 9 | 0 | 0.0 | 0.0 | 0.00 | 1.14 | 0.69 | 95 | 1007.4 |
| 20260507090019 | 9 | 360 | 0.0 | 0.0 | 0.00 | 1.14 | 0.69 | 95 | 1007.7 |
| 20260507085837 | 9 | 0 | 0.0 | 0.0 | 0.00 | 1.14 | 0.69 | 95 | 1007.5 |
| 20260507085831 | 9 | 0 | 0.0 | 0.0 | 0.00 | 1.14 | 0.69 | 95 | 1007.5 |
| 20260507085622 | 9 | 0 | 0.0 | 0.0 | 0.00 | 1.14 | 0.69 | 95 | 1007.5 |
| 20260507085521 | 9 | 0 | 0.0 | 0.0 | 0.00 | 1.14 | 0.69 | 95 | 1007.5 |
| 20260507085519 | 9 | 360 | 0.0 | 0.0 | 0.00 | 1.14 | 0.69 | 95 | 1007.6 |
| 20260507085421 | 9 | 0 | 0.0 | 0.0 | 0.00 | 1.14 | 0.69 | 95 | 1007.5 |
| 20260507085322 | 9 | 0 | 0.0 | 0.0 | 0.00 | 1.14 | 0.69 | 95 | 1007.5 |
| 20260507085221 | 9 | 0 | 0.0 | 0.0 | 0.00 | 1.14 | 0.69 | 95 | 1007.6 |
| 20260507085121 | 9 | 0 | 0.0 | 0.0 | 0.00 | 1.14 | 0.69 | 95 | 1007.6 |
| 20260507085034 | 9 | 360 | 0.0 | 0.0 | 0.00 | 1.14 | 0.69 | 95 | 1007.7 |
| 20260507085020 | 9 | 0 | 0.0 | 0.0 | 0.00 | 1.14 | 0.69 | 95 | 1007.6 |
| 20260507084920 | 9 | 0 | 0.0 | 0.0 | 0.00 | 1.14 | 0.69 | 95 | 1007.6 |
| 20260507084820 | 9 | 0 | 0.0 | 0.0 | 0.00 | 1.14 | 0.69 | 95 | 1007.6 |
| 20260507084735 | 9 | 0 | 0.0 | 0.0 | 0.00 | 1.14 | 0.69 | 95 | 1007.5 |
| 20260507084729 | 9 | 0 | 0.0 | 0.0 | 0.00 | 1.14 | 0.69 | 95 | 1007.6 |
| 20260507084519 | 9 | 0 | 0.0 | 0.0 | 0.00 | 1.14 | 0.69 | 95 | 1007.6 |
| 20260507084418 | 9 | 0 | 0.0 | 0.0 | 0.00 | 1.14 | 0.69 | 95 | 1007.6 |
| 20260507084316 | 9 | 0 | 0.0 | 0.0 | 0.00 | 1.14 | 0.69 | 95 | 1007.6 |
| 20260507084301 | 9 | 0 | 0.0 | 0.0 | 0.00 | 1.14 | 0.69 | 95 | 1007.6 |
| 20260507084216 | 9 | 0 | 0.0 | 0.0 | 0.00 | 1.14 | 0.69 | 95 | 1007.7 |
| 20260507084148 | 9 | 0 | 0.0 | 0.0 | 0.00 | 1.14 | 0.69 | 95 | 1007.6 |
| 20260507084028 | 9 | 0 | 0.0 | 0.0 | 0.00 | 1.14 | 0.69 | 95 | 1007.7 |
| 20260507084023 | 9 | 0 | 0.0 | 0.0 | 0.00 | 1.14 | 0.69 | 95 | 1007.6 |
| 20260507084019 | 9 | 360 | 0.0 | 0.0 | 0.00 | 1.14 | 0.69 | 95 | 1007.8 |
| 20260507083814 | 9 | 0 | 0.0 | 0.0 | 0.00 | 1.14 | 0.69 | 95 | 1007.6 |
| 20260507083714 | 9 | 0 | 0.0 | 0.0 | 0.00 | 1.14 | 0.69 | 95 | 1007.7 |
| 20260507083653 | 9 | 0 | 0.0 | 0.0 | 0.00 | 1.14 | 0.69 | 95 | 1007.7 |
| 20260507083550 | 9 | 360 | 0.0 | 0.0 | 0.00 | 1.14 | 0.69 | 95 | 1007.8 |
| 20260507083536 | 9 | 0 | 0.0 | 0.0 | 0.00 | 1.14 | 0.69 | 95 | 1007.7 |
| 20260507083531 | 9 | 0 | 0.0 | 0.0 | 0.00 | 1.14 | 0.69 | 95 | 1007.7 |
| 20260507083239 | 9 | 0 | 0.0 | 0.0 | 0.00 | 1.14 | 0.69 | 95 | 1007.7 |
| 20260507083125 | 9 | 0 | 0.0 | 0.0 | 0.00 | 1.14 | 0.69 | 95 | 1007.7 |
| 20260507083117 | 9 | 0 | 0.0 | 0.0 | 0.00 | 1.14 | 0.69 | 95 | 1007.7 |
| 20260507083019 | 9 | 360 | 0.0 | 0.0 | 0.00 | 1.14 | 0.69 | 95 | 1007.9 |
| 20260507082910 | 9 | 0 | 0.0 | 0.0 | 0.00 | 1.14 | 0.69 | 95 | 1007.7 |
| 20260507082811 | 9 | 0 | 0.0 | 0.0 | 0.03 | 1.14 | 0.69 | 95 | 1007.7 |
| 20260507082710 | 9 | 0 | 0.0 | 0.0 | 0.03 | 1.14 | 0.69 | 95 | 1007.7 |
| 20260507082610 | 9 | 0 | 0.0 | 0.0 | 0.03 | 1.14 | 0.69 | 95 | 1007.7 |
| 20260507082519 | 9 | 360 | 0.0 | 0.0 | 0.03 | 1.14 | 0.69 | 95 | 1007.8 |
| 20260507082509 | 9 | 0 | 0.0 | 0.0 | 0.03 | 1.14 | 0.69 | 95 | 1007.7 |
| 20260507082409 | 9 | 0 | 0.0 | 0.0 | 0.03 | 1.14 | 0.69 | 95 | 1007.7 |
| 20260507082311 | 9 | 0 | 0.0 | 0.0 | 0.03 | 1.14 | 0.69 | 95 | 1007.8 |
| 20260507082238 | 9 | 0 | 0.0 | 0.0 | 0.05 | 1.14 | 0.69 | 95 | 1007.8 |
| 20260507082124 | 9 | 0 | 0.0 | 0.0 | 0.05 | 1.14 | 0.69 | 95 | 1007.8 |
| 20260507082117 | 9 | 0 | 0.0 | 0.0 | 0.05 | 1.14 | 0.69 | 95 | 1007.8 |
| 20260507082019 | 9 | 360 | 0.0 | 0.0 | 0.05 | 1.14 | 0.69 | 95 | 1007.8 |
| 20260507081916 | 9 | 0 | 0.0 | 0.0 | 0.05 | 1.14 | 0.69 | 95 | 1007.8 |
| 20260507081906 | 9 | 0 | 0.0 | 0.0 | 0.08 | 1.14 | 0.69 | 95 | 1007.8 |
| 20260507081708 | 9 | 0 | 0.0 | 0.0 | 0.08 | 1.14 | 0.69 | 95 | 1007.8 |
| 20260507081646 | 9 | 0 | 0.0 | 0.0 | 0.08 | 1.14 | 0.69 | 95 | 1007.8 |
| 20260507081519 | 9 | 360 | 0.0 | 0.0 | 0.08 | 1.14 | 0.69 | 95 | 1007.9 |
| 20260507081506 | 9 | 0 | 0.0 | 0.0 | 0.10 | 1.14 | 0.69 | 95 | 1007.8 |
| 20260507081404 | 9 | 0 | 0.0 | 0.0 | 0.10 | 1.14 | 0.69 | 95 | 1007.7 |
| 20260507081304 | 9 | 0 | 0.0 | 0.0 | 0.10 | 1.14 | 0.69 | 95 | 1007.7 |
| 20260507081237 | 9 | 0 | 0.0 | 0.0 | 0.13 | 1.14 | 0.69 | 95 | 1007.7 |
| 20260507081233 | 9 | 0 | 0.0 | 0.0 | 0.13 | 1.14 | 0.69 | 95 | 1007.6 |
| 20260507081227 | 9 | 0 | 0.0 | 0.0 | 0.10 | 1.14 | 0.69 | 95 | 1007.7 |
| 20260507081110 | 9 | 0 | 0.0 | 0.0 | 0.13 | 1.14 | 0.69 | 95 | 1007.7 |
| 20260507081019 | 9 | 360 | 0.0 | 0.0 | 0.13 | 1.14 | 0.69 | 95 | 1007.7 |
| 20260507080903 | 9 | 0 | 0.0 | 0.0 | 0.13 | 1.14 | 0.69 | 95 | 1007.7 |
| 20260507080802 | 9 | 0 | 0.0 | 0.0 | 0.13 | 1.14 | 0.69 | 95 | 1007.7 |
| 20260507080702 | 9 | 0 | 0.0 | 0.0 | 0.13 | 1.14 | 0.69 | 94 | 1007.7 |
| 20260507080536 | 9 | 0 | 0.0 | 0.0 | 0.13 | 1.14 | 0.69 | 94 | 1007.8 |
| 20260507080519 | 9 | 360 | 0.0 | 0.0 | 0.13 | 1.14 | 0.69 | 94 | 1007.9 |
| 20260507080501 | 9 | 0 | 0.0 | 0.0 | 0.13 | 1.14 | 0.69 | 94 | 1007.8 |
| 20260507080400 | 9 | 0 | 0.0 | 0.0 | 0.13 | 1.14 | 0.69 | 94 | 1007.8 |
| 20260507080300 | 9 | 0 | 0.0 | 0.0 | 0.13 | 1.14 | 0.69 | 94 | 1007.9 |
| 20260507080201 | 9 | 0 | 0.0 | 0.0 | 0.13 | 1.14 | 0.69 | 94 | 1007.9 |
| 20260507080036 | 9 | 0 | 0.0 | 0.0 | 0.13 | 1.14 | 0.69 | 94 | 1007.9 |
| 20260507080019 | 9 | 360 | 0.0 | 0.0 | 0.13 | 1.14 | 0.69 | 94 | 1007.9 |
| 20260507080000 | 9 | 0 | 0.0 | 0.0 | 0.15 | 1.14 | 0.69 | 94 | 1007.8 |
| 20260507075924 | 9 | 0 | 0.0 | 0.0 | 0.15 | 1.14 | 0.69 | 94 | 1007.8 |
| 20260507075808 | 9 | 0 | 0.0 | 0.0 | 0.15 | 1.14 | 0.69 | 94 | 1007.8 |
| 20260507075804 | 9 | 0 | 0.0 | 0.0 | 0.15 | 1.14 | 0.69 | 94 | 1007.8 |
| 20260507075645 | 9 | 0 | 0.0 | 0.0 | 0.18 | 1.14 | 0.69 | 94 | 1007.8 |
| 20260507075549 | 9 | 360 | 0.0 | 0.0 | 0.15 | 1.14 | 0.69 | 94 | 1007.9 |
| 20260507075505 | 9 | 0 | 0.0 | 0.0 | 0.18 | 1.14 | 0.69 | 94 | 1007.8 |
| 20260507075501 | 9 | 0 | 0.0 | 0.0 | 0.18 | 1.14 | 0.69 | 94 | 1007.8 |
| 20260507075251 | 9 | 0 | 0.0 | 0.0 | 0.18 | 1.14 | 0.69 | 94 | 1007.8 |
| 20260507075152 | 9 | 0 | 0.0 | 0.0 | 0.18 | 1.14 | 0.69 | 94 | 1007.8 |
| 20260507075036 | 9 | 0 | 0.0 | 0.0 | 0.18 | 1.14 | 0.69 | 94 | 1007.8 |
| 20260507075022 | 9 | 0 | 0.0 | 0.0 | 0.18 | 1.14 | 0.69 | 94 | 1007.9 |
| 20260507075019 | 9 | 360 | 0.0 | 0.0 | 0.18 | 1.14 | 0.69 | 94 | 1007.9 |
| 20260507075016 | 9 | 0 | 0.0 | 0.0 | 0.18 | 1.14 | 0.69 | 94 | 1007.8 |
| 20260507075012 | 9 | 0 | 0.0 | 0.0 | 0.20 | 1.14 | 0.69 | 94 | 1007.8 |
| 20260507075008 | 9 | 0 | 0.0 | 0.0 | 0.18 | 1.14 | 0.69 | 94 | 1007.8 |
| 20260507074651 | 9 | 0 | 0.0 | 0.0 | 0.20 | 1.14 | 0.69 | 94 | 1007.8 |
| 20260507074642 | 9 | 0 | 0.0 | 0.0 | 0.20 | 1.14 | 0.69 | 94 | 1007.8 |
| 20260507074519 | 9 | 360 | 0.0 | 0.0 | 0.20 | 1.14 | 0.69 | 94 | 1007.9 |
| 20260507074449 | 9 | 0 | 0.0 | 0.0 | 0.20 | 1.14 | 0.69 | 94 | 1007.8 |
| 20260507074346 | 9 | 0 | 0.0 | 0.0 | 0.20 | 1.14 | 0.69 | 94 | 1007.9 |
| 20260507074246 | 9 | 0 | 0.0 | 0.0 | 0.20 | 1.14 | 0.69 | 94 | 1007.9 |
| 20260507074146 | 9 | 0 | 0.0 | 0.0 | 0.20 | 1.14 | 0.69 | 94 | 1007.9 |
| 20260507074033 | 9 | 0 | 0.0 | 0.0 | 0.20 | 1.14 | 0.69 | 94 | 1007.8 |
| 20260507074019 | 9 | 360 | 0.0 | 0.0 | 0.20 | 1.14 | 0.69 | 94 | 1008.0 |
| 20260507073944 | 9 | 0 | 0.0 | 0.0 | 0.20 | 1.14 | 0.69 | 94 | 1007.9 |
| 20260507073844 | 9 | 0 | 0.0 | 0.0 | 0.20 | 1.14 | 0.69 | 94 | 1007.9 |
| 20260507073755 | 9 | 0 | 0.0 | 0.0 | 0.20 | 1.14 | 0.69 | 94 | 1008.0 |
| 20260507073751 | 9 | 0 | 0.0 | 0.0 | 0.20 | 1.14 | 0.69 | 94 | 1008.0 |
| 20260507073600 | 9 | 0 | 0.0 | 0.0 | 0.20 | 1.14 | 0.69 | 94 | 1008.0 |
| 20260507073548 | 9 | 0 | 0.0 | 0.0 | 0.20 | 1.14 | 0.69 | 94 | 1008.1 |
| 20260507073534 | 9 | 360 | 0.0 | 0.0 | 0.20 | 1.14 | 0.69 | 94 | 1008.1 |
| 20260507073341 | 9 | 0 | 0.0 | 0.0 | 0.20 | 1.14 | 0.69 | 94 | 1008.1 |
| 20260507073329 | 9 | 0 | 0.0 | 0.0 | 0.20 | 1.14 | 0.69 | 94 | 1008.2 |
| 20260507073324 | 9 | 0 | 0.0 | 0.0 | 0.23 | 1.14 | 0.69 | 94 | 1008.2 |
| 20260507073320 | 9 | 0 | 0.0 | 0.0 | 0.20 | 1.12 | 0.66 | 94 | 1008.1 |
| 20260507073315 | 9 | 0 | 0.0 | 0.0 | 0.20 | 1.14 | 0.69 | 94 | 1008.2 |
| 20260507073202 | 9 | 0 | 0.0 | 0.0 | 0.20 | 1.12 | 0.66 | 94 | 1008.1 |
| 20260507073157 | 9 | 0 | 0.0 | 0.0 | 0.20 | 1.12 | 0.66 | 94 | 1008.1 |
| 20260507073153 | 9 | 0 | 0.0 | 0.0 | 0.20 | 1.14 | 0.69 | 94 | 1008.2 |
| 20260507073036 | 9 | 0 | 0.0 | 0.0 | 0.20 | 1.14 | 0.69 | 94 | 1008.2 |
| 20260507073029 | 9 | 0 | 0.0 | 0.0 | 0.20 | 1.14 | 0.69 | 94 | 1008.2 |
| 20260507073019 | 10 | 360 | 0.0 | 0.0 | 0.20 | 1.14 | 0.69 | 94 | 1008.3 |
| 20260507072545 | 9 | 0 | 0.0 | 0.0 | 0.20 | 1.12 | 0.66 | 94 | 1008.1 |
| 20260507072534 | 10 | 360 | 0.0 | 0.0 | 0.20 | 1.12 | 0.66 | 94 | 1008.2 |
| 20260507072337 | 9 | 0 | 0.0 | 0.0 | 0.20 | 1.12 | 0.66 | 94 | 1008.0 |
| 20260507072235 | 9 | 0 | 0.0 | 0.0 | 0.18 | 1.09 | 0.66 | 94 | 1008.1 |
| 20260507072134 | 9 | 0 | 0.0 | 0.0 | 0.18 | 1.09 | 0.64 | 94 | 1008.1 |
| 20260507072027 | 9 | 0 | 0.0 | 0.0 | 0.18 | 1.09 | 0.64 | 94 | 1008.2 |
| 20260507072019 | 10 | 360 | 0.0 | 0.0 | 0.18 | 1.09 | 0.64 | 94 | 1008.3 |
| 20260507071934 | 9 | 0 | 0.0 | 0.0 | 0.18 | 1.09 | 0.64 | 94 | 1008.2 |
| 20260507071847 | 9 | 0 | 0.0 | 0.0 | 0.15 | 1.07 | 0.61 | 94 | 1008.3 |
| 20260507071842 | 9 | 0 | 0.0 | 0.0 | 0.18 | 1.09 | 0.64 | 94 | 1008.3 |
| 20260507071633 | 9 | 0 | 0.0 | 0.0 | 0.15 | 1.07 | 0.61 | 94 | 1008.3 |
| 20260507071527 | 9 | 0 | 0.0 | 0.0 | 0.13 | 1.04 | 0.61 | 94 | 1008.3 |
| 20260507071519 | 10 | 360 | 0.0 | 0.0 | 0.15 | 1.07 | 0.61 | 94 | 1008.4 |
| 20260507071433 | 9 | 0 | 0.0 | 0.0 | 0.13 | 1.04 | 0.58 | 94 | 1008.3 |
| 20260507071333 | 10 | 0 | 0.0 | 0.0 | 0.13 | 1.04 | 0.58 | 94 | 1008.2 |
| 20260507071245 | 10 | 0 | 0.0 | 0.0 | 0.13 | 1.04 | 0.58 | 94 | 1008.2 |
| 20260507071241 | 10 | 0 | 0.0 | 0.0 | 0.13 | 1.04 | 0.58 | 94 | 1008.2 |
| 20260507071025 | 10 | 0 | 0.0 | 0.0 | 0.10 | 1.02 | 0.56 | 94 | 1008.2 |
| 20260507071019 | 10 | 360 | 0.0 | 0.0 | 0.10 | 1.02 | 0.56 | 94 | 1008.4 |
| 20260507070930 | 10 | 0 | 0.0 | 0.0 | 0.10 | 1.02 | 0.56 | 94 | 1008.3 |
| 20260507070842 | 10 | 0 | 0.0 | 0.0 | 0.13 | 1.02 | 0.56 | 94 | 1008.1 |
| 20260507070838 | 10 | 0 | 0.0 | 0.0 | 0.10 | 1.02 | 0.56 | 94 | 1008.2 |
| 20260507070629 | 10 | 0 | 0.0 | 0.0 | 0.15 | 1.02 | 0.56 | 94 | 1008.2 |
| 20260507070547 | 10 | 0 | 0.0 | 0.0 | 0.15 | 1.02 | 0.56 | 94 | 1008.2 |
| 20260507070519 | 10 | 360 | 0.0 | 0.0 | 0.15 | 1.02 | 0.56 | 94 | 1008.3 |
| 20260507070434 | 10 | 0 | 0.0 | 0.0 | 0.15 | 1.02 | 0.56 | 94 | 1008.2 |
| 20260507070225 | 10 | 0 | 0.0 | 0.0 | 0.15 | 1.02 | 0.56 | 93 | 1008.1 |
| 20260507070125 | 10 | 0 | 0.0 | 0.0 | 0.18 | 1.02 | 0.56 | 93 | 1008.2 |
| 20260507070046 | 10 | 0 | 0.0 | 0.0 | 0.15 | 0.99 | 0.56 | 93 | 1008.2 |
| 20260507070019 | 10 | 360 | 0.0 | 0.0 | 0.18 | 1.02 | 0.56 | 93 | 1008.3 |
| 20260507065931 | 10 | 0 | 0.0 | 0.0 | 0.18 | 0.99 | 0.53 | 93 | 1008.2 |
| 20260507065734 | 10 | 0 | 0.0 | 0.0 | 0.20 | 0.99 | 0.53 | 93 | 1008.3 |
| 20260507065730 | 10 | 0 | 0.0 | 0.0 | 0.20 | 0.99 | 0.53 | 93 | 1008.2 |
| 20260507065521 | 10 | 0 | 0.0 | 0.0 | 0.18 | 0.97 | 0.53 | 93 | 1008.2 |
| 20260507065421 | 10 | 0 | 0.0 | 0.0 | 0.18 | 0.97 | 0.51 | 93 | 1008.2 |
| 20260507065321 | 10 | 0 | 0.0 | 0.0 | 0.18 | 0.97 | 0.51 | 93 | 1008.2 |
| 20260507065225 | 10 | 0 | 0.0 | 0.0 | 0.20 | 0.97 | 0.51 | 93 | 1008.1 |
| 20260507065120 | 10 | 0 | 0.0 | 0.0 | 0.20 | 0.97 | 0.51 | 93 | 1008.3 |
| 20260507065049 | 10 | 360 | 0.0 | 0.0 | 0.20 | 0.97 | 0.51 | 93 | 1008.6 |
| 20260507065019 | 10 | 0 | 0.0 | 0.0 | 0.20 | 0.97 | 0.51 | 93 | 1008.5 |
| 20260507064932 | 10 | 0 | 0.0 | 0.0 | 0.20 | 0.97 | 0.51 | 93 | 1008.4 |
| 20260507064928 | 10 | 0 | 0.0 | 0.0 | 0.20 | 0.97 | 0.51 | 93 | 1008.5 |
| 20260507064718 | 10 | 0 | 0.0 | 0.0 | 0.18 | 0.94 | 0.51 | 93 | 1008.5 |
| 20260507064618 | 10 | 0 | 0.0 | 0.0 | 0.18 | 0.94 | 0.48 | 93 | 1008.4 |
| 20260507064551 | 10 | 0 | 0.0 | 0.0 | 0.18 | 0.94 | 0.48 | 93 | 1008.5 |
| 20260507064546 | 10 | 0 | 0.0 | 0.0 | 0.18 | 0.94 | 0.48 | 93 | 1008.6 |
| 20260507064536 | 10 | 0 | 0.0 | 0.0 | 0.18 | 0.94 | 0.48 | 93 | 1008.5 |
| 20260507064519 | 10 | 360 | 0.0 | 0.0 | 0.18 | 0.94 | 0.48 | 93 | 1008.6 |
| 20260507064217 | 10 | 0 | 0.0 | 0.0 | 0.18 | 0.94 | 0.48 | 93 | 1008.5 |
| 20260507064132 | 10 | 0 | 0.0 | 0.0 | 0.25 | 0.94 | 0.48 | 93 | 1008.7 |
| 20260507064128 | 10 | 0 | 0.0 | 0.0 | 0.20 | 0.94 | 0.48 | 93 | 1008.4 |
| 20260507064119 | 10 | 0 | 0.0 | 0.0 | 0.20 | 0.94 | 0.48 | 93 | 1008.4 |
| 20260507064020 | 10 | 360 | 0.0 | 0.0 | 0.20 | 0.94 | 0.48 | 93 | 1008.8 |
| 20260507063926 | 10 | 0 | 0.0 | 0.0 | 0.28 | 0.94 | 0.48 | 93 | 1008.4 |
| 20260507063921 | 10 | 0 | 0.0 | 0.0 | 0.25 | 0.94 | 0.48 | 93 | 1008.7 |
| 20260507063712 | 10 | 0 | 0.0 | 0.0 | 0.30 | 0.94 | 0.48 | 93 | 1008.3 |
| 20260507063629 | 10 | 0 | 0.0 | 0.0 | 0.30 | 0.94 | 0.48 | 93 | 1008.0 |
| 20260507063625 | 10 | 0 | 0.0 | 0.0 | 0.30 | 0.94 | 0.48 | 93 | 1008.1 |
| 20260507063616 | 10 | 0 | 0.0 | 0.0 | 0.30 | 0.94 | 0.48 | 93 | 1008.1 |
| 20260507063534 | 10 | 360 | 0.0 | 0.0 | 0.30 | 0.94 | 0.48 | 93 | 1008.1 |
| 20260507063410 | 10 | 0 | 0.0 | 0.0 | 0.30 | 0.94 | 0.48 | 93 | 1007.9 |
| 20260507063323 | 10 | 0 | 0.0 | 0.0 | 0.33 | 0.94 | 0.48 | 93 | 1008.0 |
| 20260507063319 | 10 | 0 | 0.0 | 0.0 | 0.30 | 0.94 | 0.48 | 93 | 1008.0 |
| 20260507063110 | 10 | 0 | 0.0 | 0.0 | 0.33 | 0.94 | 0.48 | 93 | 1008.0 |
| 20260507063035 | 10 | 360 | 0.0 | 0.0 | 0.33 | 0.94 | 0.48 | 93 | 1008.1 |
| 20260507063009 | 10 | 0 | 0.0 | 0.0 | 0.33 | 0.94 | 0.48 | 93 | 1008.0 |
| 20260507062909 | 10 | 0 | 0.0 | 0.0 | 0.30 | 0.91 | 0.46 | 93 | 1007.9 |
| 20260507062807 | 10 | 0 | 0.0 | 0.0 | 0.30 | 0.91 | 0.46 | 93 | 1008.1 |
| 20260507062708 | 10 | 0 | 0.0 | 0.0 | 0.30 | 0.91 | 0.46 | 93 | 1008.3 |
| 20260507062621 | 10 | 0 | 0.0 | 0.0 | 0.30 | 0.91 | 0.46 | 93 | 1008.4 |
| 20260507062612 | 10 | 0 | 0.0 | 0.0 | 0.30 | 0.91 | 0.46 | 93 | 1008.4 |
| 20260507062519 | 10 | 360 | 0.0 | 0.0 | 0.30 | 0.91 | 0.46 | 93 | 1008.5 |
| 20260507062406 | 10 | 0 | 0.0 | 0.0 | 0.30 | 0.91 | 0.46 | 93 | 1008.3 |
| 20260507062306 | 10 | 0 | 0.0 | 0.0 | 0.30 | 0.91 | 0.46 | 93 | 1008.2 |
| 20260507062205 | 10 | 0 | 0.0 | 0.0 | 0.33 | 0.91 | 0.46 | 93 | 1008.0 |
| 20260507062105 | 10 | 0 | 0.0 | 0.0 | 0.36 | 0.91 | 0.46 | 93 | 1008.0 |
| 20260507062020 | 10 | 360 | 0.0 | 0.0 | 0.36 | 0.91 | 0.46 | 93 | 1008.2 |
| 20260507062018 | 10 | 0 | 0.0 | 0.0 | 0.36 | 0.91 | 0.46 | 93 | 1008.0 |
| 20260507062004 | 10 | 0 | 0.0 | 0.0 | 0.36 | 0.91 | 0.46 | 93 | 1008.1 |
| 20260507061904 | 10 | 0 | 0.0 | 0.0 | 0.36 | 0.91 | 0.46 | 93 | 1008.2 |
| 20260507061803 | 10 | 0 | 0.0 | 0.0 | 0.36 | 0.91 | 0.46 | 93 | 1008.2 |
| 20260507061703 | 10 | 0 | 0.0 | 0.0 | 0.38 | 0.91 | 0.46 | 93 | 1008.2 |
| 20260507061602 | 10 | 0 | 0.0 | 0.0 | 0.38 | 0.91 | 0.46 | 93 | 1008.2 |
| 20260507061520 | 10 | 360 | 0.0 | 0.0 | 0.38 | 0.91 | 0.46 | 93 | 1008.1 |
| 20260507061515 | 10 | 0 | 0.0 | 0.0 | 0.38 | 0.91 | 0.46 | 93 | 1008.0 |
| 20260507061510 | 10 | 0 | 0.0 | 0.0 | 0.38 | 0.91 | 0.46 | 93 | 1008.0 |
| 20260507061300 | 10 | 0 | 0.0 | 0.0 | 0.41 | 0.91 | 0.46 | 93 | 1007.9 |
| 20260507061200 | 10 | 0 | 0.0 | 0.0 | 0.41 | 0.91 | 0.46 | 93 | 1008.0 |
| 20260507061059 | 10 | 0 | 0.0 | 0.0 | 0.43 | 0.91 | 0.46 | 93 | 1008.1 |
| 20260507061019 | 10 | 360 | 0.0 | 0.0 | 0.43 | 0.91 | 0.46 | 93 | 1008.2 |
| 20260507061016 | 10 | 0 | 0.0 | 0.0 | 0.43 | 0.91 | 0.46 | 93 | 1008.1 |
| 20260507060959 | 10 | 0 | 0.0 | 0.0 | 0.43 | 0.91 | 0.46 | 93 | 1008.1 |
| 20260507060858 | 10 | 0 | 0.0 | 0.0 | 0.43 | 0.91 | 0.46 | 93 | 1008.1 |
| 20260507060758 | 10 | 0 | 0.0 | 0.0 | 0.43 | 0.91 | 0.46 | 93 | 1008.2 |
| 20260507060657 | 10 | 0 | 0.0 | 0.0 | 0.41 | 0.89 | 0.46 | 93 | 1008.3 |
| 20260507060557 | 10 | 0 | 0.0 | 0.0 | 0.38 | 0.86 | 0.43 | 92 | 1008.4 |
| 20260507060526 | 10 | 0 | 0.0 | 0.0 | 0.41 | 0.86 | 0.41 | 92 | 1007.9 |
| 20260507060521 | 10 | 0 | 0.0 | 0.0 | 0.41 | 0.86 | 0.41 | 92 | 1008.4 |
| 20260507060519 | 10 | 360 | 0.0 | 0.0 | 0.38 | 0.86 | 0.41 | 92 | 1008.2 |
| 20260507060515 | 10 | 0 | 0.0 | 0.0 | 0.41 | 0.86 | 0.41 | 92 | 1008.1 |
| 20260507060506 | 10 | 0 | 0.0 | 0.0 | 0.41 | 0.86 | 0.41 | 92 | 1007.8 |
| 20260507060155 | 10 | 0 | 0.0 | 0.0 | 0.41 | 0.86 | 0.41 | 92 | 1008.1 |
| 20260507060053 | 10 | 0 | 0.0 | 0.0 | 0.38 | 0.84 | 0.38 | 92 | 1008.2 |
| 20260507060034 | 10 | 360 | 0.0 | 0.0 | 0.38 | 0.84 | 0.38 | 92 | 1008.4 |
| 20260507060014 | 10 | 0 | 0.0 | 0.0 | 0.38 | 0.84 | 0.38 | 92 | 1008.2 |
| 20260507055953 | 10 | 0 | 0.0 | 0.0 | 0.36 | 0.81 | 0.38 | 92 | 1008.3 |
| 20260507055853 | 10 | 0 | 0.0 | 0.0 | 0.36 | 0.81 | 0.36 | 92 | 1008.2 |
| 20260507055805 | 10 | 0 | 0.0 | 0.0 | 0.33 | 0.79 | 0.33 | 92 | 1008.2 |
| 20260507055801 | 10 | 0 | 0.0 | 0.0 | 0.33 | 0.79 | 0.36 | 92 | 1008.2 |
| 20260507055551 | 10 | 0 | 0.0 | 0.0 | 0.33 | 0.79 | 0.33 | 92 | 1008.1 |
| 20260507055519 | 10 | 360 | 0.0 | 0.0 | 0.33 | 0.79 | 0.33 | 92 | 1008.4 |
| 20260507055515 | 10 | 0 | 0.0 | 0.0 | 0.33 | 0.79 | 0.33 | 92 | 1008.1 |
| 20260507055451 | 10 | 0 | 0.0 | 0.0 | 0.33 | 0.79 | 0.33 | 92 | 1008.3 |
| 20260507055351 | 10 | 0 | 0.0 | 0.0 | 0.33 | 0.79 | 0.33 | 92 | 1008.5 |
| 20260507055250 | 10 | 0 | 0.0 | 0.0 | 0.33 | 0.79 | 0.33 | 92 | 1008.5 |
| 20260507055150 | 10 | 0 | 0.0 | 0.0 | 0.30 | 0.76 | 0.30 | 92 | 1008.3 |
| 20260507055048 | 10 | 0 | 0.0 | 0.0 | 0.30 | 0.76 | 0.30 | 92 | 1008.0 |
| 20260507055034 | 10 | 360 | 0.0 | 0.0 | 0.30 | 0.76 | 0.30 | 92 | 1008.1 |
| 20260507055015 | 10 | 0 | 0.0 | 0.0 | 0.30 | 0.76 | 0.30 | 92 | 1008.1 |
| 20260507054948 | 10 | 0 | 0.0 | 0.0 | 0.30 | 0.76 | 0.30 | 92 | 1008.1 |
| 20260507054847 | 10 | 0 | 0.0 | 0.0 | 0.30 | 0.76 | 0.30 | 92 | 1008.1 |
| 20260507054749 | 10 | 0 | 0.0 | 0.0 | 0.30 | 0.76 | 0.30 | 92 | 1008.1 |
| 20260507054736 | 10 | 0 | 0.0 | 0.0 | 0.30 | 0.76 | 0.30 | 91 | 1008.1 |
| 20260507054731 | 10 | 0 | 0.0 | 0.0 | 0.30 | 0.76 | 0.30 | 92 | 1008.1 |
| 20260507054519 | 10 | 360 | 0.0 | 0.0 | 0.30 | 0.76 | 0.30 | 91 | 1008.1 |
| 20260507054446 | 10 | 0 | 0.0 | 0.0 | 0.30 | 0.76 | 0.30 | 92 | 1008.1 |
| 20260507054346 | 10 | 0 | 0.0 | 0.0 | 0.30 | 0.76 | 0.30 | 92 | 1008.1 |
| 20260507054245 | 10 | 0 | 0.0 | 0.0 | 0.30 | 0.76 | 0.30 | 92 | 1008.1 |
| 20260507054145 | 10 | 0 | 0.0 | 0.0 | 0.28 | 0.74 | 0.30 | 92 | 1008.1 |
| 20260507054045 | 10 | 0 | 0.0 | 0.0 | 0.28 | 0.74 | 0.28 | 92 | 1008.2 |
| 20260507054019 | 11 | 360 | 0.0 | 0.0 | 0.28 | 0.74 | 0.28 | 91 | 1008.1 |
| 20260507054013 | 10 | 0 | 0.0 | 0.0 | 0.23 | 0.69 | 0.28 | 91 | 1008.2 |
| 20260507053843 | 11 | 0 | 0.0 | 0.0 | 0.20 | 0.66 | 0.20 | 91 | 1008.1 |
| 20260507053742 | 11 | 0 | 0.0 | 0.0 | 0.18 | 0.64 | 0.18 | 91 | 1007.8 |
| 20260507053643 | 11 | 0 | 0.0 | 0.0 | 0.18 | 0.64 | 0.18 | 91 | 1008.0 |
| 20260507053520 | 11 | 360 | 0.0 | 1.6 | 0.18 | 0.64 | 0.18 | 91 | 1009.0 |
| 20260507053512 | 11 | 0 | 0.0 | 1.6 | 0.18 | 0.64 | 0.18 | 91 | 1008.7 |
| 20260507053442 | 11 | 0 | 0.0 | 3.2 | 0.18 | 0.64 | 0.18 | 91 | 1009.0 |
| 20260507053341 | 11 | 0 | 0.0 | 3.2 | 0.18 | 0.64 | 0.18 | 91 | 1008.7 |
| 20260507053241 | 11 | 0 | 0.0 | 3.2 | 0.15 | 0.61 | 0.15 | 90 | 1008.3 |
| 20260507053141 | 11 | 0 | 0.0 | 3.2 | 0.15 | 0.61 | 0.15 | 90 | 1008.0 |
| 20260507053100 | 11 | 0 | 0.0 | 3.2 | 0.15 | 0.61 | 0.15 | 90 | 1007.8 |
| 20260507053019 | 11 | 360 | 0.0 | 3.2 | 0.15 | 0.61 | 0.15 | 90 | 1007.8 |
| 20260507052949 | 11 | 0 | 0.0 | 3.2 | 0.15 | 0.61 | 0.15 | 90 | 1007.8 |
| 20260507052744 | 11 | 0 | 0.0 | 6.4 | 0.15 | 0.61 | 0.15 | 90 | 1007.9 |
| 20260507052738 | 11 | 0 | 0.0 | 3.2 | 0.15 | 0.61 | 0.15 | 90 | 1007.9 |
| 20260507052638 | 11 | 0 | 0.0 | 3.2 | 0.15 | 0.61 | 0.15 | 90 | 1007.9 |
| 20260507052619 | 11 | 0 | 0.0 | 3.2 | 0.15 | 0.61 | 0.15 | 90 | 1007.9 |
| 20260507052520 | 11 | 360 | 1.6 | 6.4 | 0.15 | 0.61 | 0.15 | 90 | 1007.9 |
| 20260507052451 | 11 | 0 | 1.6 | 8.0 | 0.15 | 0.61 | 0.15 | 89 | 1007.8 |
| 20260507052446 | 11 | 0 | 0.0 | 6.4 | 0.15 | 0.61 | 0.15 | 90 | 1007.9 |
| 20260507052234 | 11 | 0 | 1.6 | 9.7 | 0.15 | 0.61 | 0.15 | 89 | 1007.9 |
| 20260507052134 | 11 | 0 | 1.6 | 9.7 | 0.13 | 0.58 | 0.13 | 89 | 1007.8 |
| 20260507052034 | 11 | 0 | 1.6 | 9.7 | 0.10 | 0.56 | 0.13 | 89 | 1007.8 |
| 20260507052020 | 11 | 360 | 0.0 | 9.7 | 0.10 | 0.56 | 0.10 | 89 | 1008.0 |
| 20260507052011 | 11 | 0 | 1.6 | 9.7 | 0.10 | 0.56 | 0.10 | 89 | 1008.0 |
| 20260507051933 | 11 | 0 | 1.6 | 9.7 | 0.10 | 0.56 | 0.10 | 89 | 1008.0 |
| 20260507051833 | 11 | 0 | 1.6 | 9.7 | 0.10 | 0.56 | 0.10 | 89 | 1007.9 |
| 20260507051737 | 11 | 0 | 1.6 | 9.7 | 0.08 | 0.53 | 0.08 | 88 | 1007.8 |
| 20260507051733 | 11 | 0 | 1.6 | 9.7 | 0.10 | 0.56 | 0.10 | 88 | 1007.6 |
| 20260507051632 | 11 | 0 | 1.6 | 9.7 | 0.08 | 0.53 | 0.10 | 88 | 1007.6 |
| 20260507051619 | 11 | 0 | 1.6 | 9.7 | 0.08 | 0.53 | 0.08 | 88 | 1007.8 |
| 20260507051520 | 11 | 360 | 4.8 | 9.7 | 0.08 | 0.53 | 0.08 | 88 | 1007.8 |
| 20260507051433 | 11 | 0 | 1.6 | 9.7 | 0.08 | 0.53 | 0.08 | 88 | 1007.8 |
| 20260507051332 | 11 | 0 | 1.6 | 8.0 | 0.08 | 0.53 | 0.08 | 88 | 1007.9 |
| 20260507051232 | 11 | 0 | 1.6 | 8.0 | 0.05 | 0.51 | 0.08 | 88 | 1008.0 |
| 20260507051132 | 11 | 0 | 1.6 | 8.0 | 0.03 | 0.48 | 0.05 | 88 | 1008.0 |
| 20260507051032 | 11 | 0 | 1.6 | 8.0 | 0.03 | 0.48 | 0.03 | 88 | 1007.9 |
| 20260507051019 | 11 | 360 | 1.6 | 8.0 | 0.03 | 0.48 | 0.03 | 88 | 1008.1 |
| 20260507051011 | 11 | 0 | 3.2 | 8.0 | 0.03 | 0.48 | 0.03 | 88 | 1007.9 |
| 20260507050945 | 11 | 0 | 3.2 | 8.0 | 0.03 | 0.48 | 0.03 | 88 | 1008.4 |
| 20260507050941 | 11 | 0 | 3.2 | 8.0 | 0.03 | 0.48 | 0.03 | 88 | 1008.1 |
| 20260507050734 | 12 | 0 | 3.2 | 9.7 | 0.00 | 0.46 | 0.03 | 86 | 1007.1 |
| 20260507050730 | 11 | 0 | 3.2 | 8.0 | 0.03 | 0.48 | 0.03 | 87 | 1008.3 |
| 20260507050630 | 11 | 0 | 3.2 | 9.7 | 0.03 | 0.48 | 0.03 | 87 | 1008.1 |
| 20260507050618 | 12 | 0 | 3.2 | 9.7 | 0.03 | 0.48 | 0.03 | 86 | 1007.5 |
| 20260507050520 | 12 | 360 | 3.2 | 9.7 | 0.03 | 0.48 | 0.03 | 86 | 1007.2 |
| 20260507050429 | 12 | 0 | 3.2 | 9.7 | 0.00 | 0.46 | 0.03 | 87 | 1007.1 |
| 20260507050329 | 12 | 0 | 3.2 | 9.7 | 0.00 | 0.46 | 0.00 | 86 | 1007.1 |
| 20260507050248 | 12 | 0 | 3.2 | 14.5 | 0.00 | 0.46 | 0.00 | 86 | 1007.8 |
| 20260507050239 | 12 | 0 | 3.2 | 14.5 | 0.00 | 0.46 | 0.00 | 86 | 1007.6 |
| 20260507050235 | 12 | 0 | 3.2 | 14.5 | 0.00 | 0.46 | 0.00 | 86 | 1007.3 |
| 20260507050226 | 12 | 0 | 3.2 | 14.5 | 0.00 | 0.46 | 0.00 | 86 | 1007.6 |
| 20260507050019 | 12 | 360 | 4.8 | 9.7 | 0.00 | 0.46 | 0.00 | 86 | 1007.9 |
| 20260507045928 | 12 | 0 | 3.2 | 14.5 | 0.00 | 0.46 | 0.00 | 86 | 1007.8 |
| 20260507045826 | 12 | 0 | 3.2 | 14.5 | 0.00 | 0.46 | 0.00 | 86 | 1007.9 |
| 20260507045726 | 12 | 0 | 3.2 | 14.5 | 0.00 | 0.46 | 0.00 | 87 | 1007.9 |
| 20260507045658 | 12 | 0 | 1.6 | 14.5 | 0.00 | 0.46 | 0.00 | 86 | 1007.4 |
| 20260507045654 | 12 | 0 | 1.6 | 14.5 | 0.00 | 0.46 | 0.00 | 86 | 1007.2 |
| 20260507045649 | 12 | 0 | 1.6 | 14.5 | 0.00 | 0.46 | 0.00 | 86 | 1007.6 |
| 20260507045532 | 12 | 0 | 1.6 | 14.5 | 0.00 | 0.46 | 0.00 | 86 | 1007.2 |
| 20260507045520 | 12 | 360 | 3.2 | 9.7 | 0.00 | 0.46 | 0.00 | 86 | 1007.3 |
| 20260507045323 | 12 | 0 | 1.6 | 14.5 | 0.00 | 0.46 | 0.00 | 87 | 1007.2 |
| 20260507045224 | 12 | 0 | 1.6 | 9.7 | 0.00 | 0.46 | 0.00 | 87 | 1007.1 |
| 20260507045124 | 12 | 0 | 0.0 | 4.8 | 0.00 | 0.46 | 0.00 | 87 | 1007.0 |
| 20260507045023 | 12 | 0 | 0.0 | 3.2 | 0.00 | 0.46 | 0.00 | 87 | 1006.8 |
| 20260507045019 | 12 | 360 | 0.0 | 4.8 | 0.00 | 0.46 | 0.00 | 87 | 1006.9 |
| 20260507045007 | 12 | 0 | 0.0 | 4.8 | 0.00 | 0.46 | 0.00 | 87 | 1006.8 |
| 20260507044921 | 12 | 0 | 0.0 | 4.8 | 0.00 | 0.46 | 0.00 | 87 | 1006.8 |
| 20260507044822 | 12 | 0 | 0.0 | 4.8 | 0.00 | 0.46 | 0.00 | 87 | 1007.0 |
| 20260507044803 | 12 | 0 | 0.0 | 4.8 | 0.00 | 0.46 | 0.00 | 86 | 1006.9 |
| 20260507044721 | 12 | 0 | 0.0 | 4.8 | 0.00 | 0.46 | 0.00 | 87 | 1007.1 |
| 20260507044657 | 12 | 0 | 0.0 | 4.8 | 0.00 | 0.46 | 0.00 | 86 | 1007.0 |
| 20260507044648 | 12 | 0 | 0.0 | 4.8 | 0.00 | 0.46 | 0.00 | 86 | 1007.0 |
| 20260507044534 | 12 | 360 | 1.6 | 4.8 | 0.00 | 0.46 | 0.00 | 86 | 1007.0 |
| 20260507044429 | 12 | 0 | 0.0 | 4.8 | 0.00 | 0.46 | 0.00 | 86 | 1006.9 |
| 20260507044233 | 12 | 0 | 1.6 | 9.7 | 0.00 | 0.46 | 0.00 | 86 | 1007.3 |
| 20260507044229 | 12 | 0 | 1.6 | 9.7 | 0.00 | 0.46 | 0.00 | 86 | 1007.1 |
| 20260507044019 | 12 | 360 | 3.2 | 9.7 | 0.00 | 0.46 | 0.00 | 86 | 1007.8 |
| 20260507044004 | 12 | 0 | 1.6 | 9.7 | 0.00 | 0.46 | 0.00 | 86 | 1007.7 |
| 20260507043919 | 12 | 0 | 1.6 | 9.7 | 0.00 | 0.46 | 0.00 | 86 | 1007.7 |
| 20260507043818 | 12 | 0 | 1.6 | 9.7 | 0.00 | 0.46 | 0.00 | 86 | 1007.5 |
| 20260507043718 | 12 | 0 | 1.6 | 9.7 | 0.00 | 0.46 | 0.00 | 86 | 1007.2 |
| 20260507043631 | 12 | 0 | 1.6 | 9.7 | 0.00 | 0.46 | 0.00 | 85 | 1006.9 |
| 20260507043627 | 12 | 0 | 1.6 | 9.7 | 0.00 | 0.46 | 0.00 | 86 | 1006.9 |
| 20260507043534 | 12 | 360 | 4.8 | 9.7 | 0.00 | 0.46 | 0.00 | 85 | 1007.0 |
| 20260507043505 | 12 | 0 | 1.6 | 9.7 | 0.00 | 0.46 | 0.00 | 85 | 1006.9 |
| 20260507043417 | 12 | 0 | 1.6 | 9.7 | 0.00 | 0.46 | 0.00 | 86 | 1006.9 |
| 20260507043317 | 12 | 0 | 1.6 | 8.0 | 0.00 | 0.46 | 0.00 | 86 | 1007.1 |
| 20260507043229 | 12 | 0 | 1.6 | 8.0 | 0.00 | 0.46 | 0.00 | 86 | 1007.3 |
| 20260507043225 | 12 | 0 | 1.6 | 8.0 | 0.00 | 0.46 | 0.00 | 86 | 1007.2 |
| 20260507043019 | 12 | 360 | 0.0 | 8.0 | 0.00 | 0.46 | 0.00 | 85 | 1007.4 |
| 20260507043004 | 12 | 0 | 3.2 | 8.0 | 0.00 | 0.46 | 0.00 | 85 | 1007.3 |
| 20260507042915 | 12 | 0 | 3.2 | 8.0 | 0.00 | 0.46 | 0.00 | 85 | 1007.3 |
| 20260507042814 | 12 | 0 | 3.2 | 8.0 | 0.00 | 0.46 | 0.00 | 85 | 1007.2 |
| 20260507042714 | 12 | 0 | 3.2 | 8.0 | 0.00 | 0.46 | 0.00 | 86 | 1007.2 |
| 20260507042626 | 12 | 0 | 3.2 | 8.0 | 0.00 | 0.46 | 0.00 | 86 | 1007.0 |
| 20260507042622 | 12 | 0 | 3.2 | 8.0 | 0.00 | 0.46 | 0.00 | 86 | 1007.0 |
| 20260507042520 | 12 | 360 | 3.2 | 8.0 | 0.00 | 0.46 | 0.00 | 86 | 1007.1 |
| 20260507042503 | 12 | 0 | 3.2 | 8.0 | 0.00 | 0.46 | 0.00 | 86 | 1007.0 |
| 20260507042412 | 12 | 0 | 1.6 | 8.0 | 0.00 | 0.46 | 0.00 | 86 | 1007.0 |
| 20260507042311 | 12 | 0 | 1.6 | 8.0 | 0.00 | 0.46 | 0.00 | 86 | 1007.1 |
| 20260507042239 | 12 | 0 | 1.6 | 8.0 | 0.00 | 0.46 | 0.00 | 86 | 1007.0 |
| 20260507042235 | 12 | 0 | 1.6 | 8.0 | 0.00 | 0.46 | 0.00 | 86 | 1006.9 |
| 20260507042229 | 12 | 0 | 1.6 | 8.0 | 0.00 | 0.46 | 0.00 | 86 | 1007.1 |
| 20260507042019 | 12 | 360 | 3.2 | 8.0 | 0.00 | 0.46 | 0.00 | 86 | 1007.0 |
| 20260507042000 | 12 | 0 | 1.6 | 9.7 | 0.00 | 0.46 | 0.00 | 86 | 1006.9 |
| 20260507041909 | 12 | 0 | 1.6 | 12.9 | 0.00 | 0.46 | 0.00 | 86 | 1006.9 |
| 20260507041809 | 12 | 0 | 1.6 | 12.9 | 0.00 | 0.46 | 0.00 | 86 | 1006.9 |
| 20260507041708 | 12 | 0 | 1.6 | 12.9 | 0.00 | 0.46 | 0.00 | 86 | 1006.9 |
| 20260507041608 | 12 | 0 | 1.6 | 12.9 | 0.00 | 0.46 | 0.00 | 86 | 1006.9 |
| 20260507041520 | 12 | 360 | 0.0 | 12.9 | 0.00 | 0.46 | 0.00 | 86 | 1007.1 |
| 20260507041508 | 12 | 0 | 3.2 | 12.9 | 0.00 | 0.46 | 0.00 | 86 | 1007.0 |
| 20260507041500 | 12 | 0 | 3.2 | 12.9 | 0.00 | 0.46 | 0.00 | 86 | 1007.0 |
| 20260507041407 | 12 | 0 | 3.2 | 12.9 | 0.00 | 0.46 | 0.00 | 86 | 1006.9 |
| 20260507041307 | 12 | 0 | 3.2 | 12.9 | 0.00 | 0.46 | 0.00 | 86 | 1006.9 |
| 20260507041206 | 12 | 0 | 3.2 | 12.9 | 0.00 | 0.46 | 0.00 | 86 | 1006.9 |
| 20260507041106 | 12 | 0 | 3.2 | 12.9 | 0.00 | 0.46 | 0.00 | 86 | 1006.9 |
| 20260507041019 | 12 | 360 | 8.0 | 12.9 | 0.00 | 0.46 | 0.00 | 86 | 1007.1 |
| 20260507041007 | 12 | 0 | 3.2 | 12.9 | 0.00 | 0.46 | 0.00 | 86 | 1007.0 |
| 20260507041001 | 12 | 0 | 3.2 | 12.9 | 0.00 | 0.46 | 0.00 | 86 | 1007.0 |
| 20260507040902 | 12 | 0 | 3.2 | 9.7 | 0.00 | 0.46 | 0.00 | 86 | 1007.2 |
| 20260507040814 | 12 | 0 | 3.2 | 9.7 | 0.00 | 0.46 | 0.00 | 86 | 1007.3 |
| 20260507040810 | 12 | 0 | 3.2 | 9.7 | 0.00 | 0.46 | 0.00 | 86 | 1007.2 |
| 20260507040600 | 12 | 0 | 3.2 | 9.7 | 0.00 | 0.46 | 0.00 | 86 | 1007.3 |
| 20260507040519 | 12 | 360 | 4.8 | 9.7 | 0.00 | 0.46 | 0.00 | 86 | 1007.3 |
| 20260507040501 | 12 | 0 | 3.2 | 9.7 | 0.00 | 0.46 | 0.00 | 86 | 1007.2 |
| 20260507040359 | 12 | 0 | 1.6 | 9.7 | 0.00 | 0.46 | 0.00 | 86 | 1007.3 |
| 20260507040258 | 12 | 0 | 1.6 | 9.7 | 0.00 | 0.46 | 0.00 | 86 | 1007.4 |
| 20260507040158 | 12 | 0 | 1.6 | 9.7 | 0.00 | 0.46 | 0.00 | 87 | 1007.3 |
| 20260507040112 | 12 | 0 | 1.6 | 8.0 | 0.00 | 0.46 | 0.00 | 87 | 1007.2 |
| 20260507040019 | 12 | 360 | 0.0 | 8.0 | 0.00 | 0.46 | 0.00 | 87 | 1007.3 |
| 20260507035855 | 12 | 0 | 3.2 | 12.9 | 0.00 | 0.46 | 0.46 | 87 | 1007.2 |
| 20260507035806 | 12 | 0 | 3.2 | 12.9 | 0.00 | 0.46 | 0.46 | 87 | 1007.4 |
| 20260507035802 | 12 | 0 | 3.2 | 12.9 | 0.00 | 0.46 | 0.46 | 87 | 1007.3 |
| 20260507035552 | 12 | 0 | 3.2 | 12.9 | 0.00 | 0.46 | 0.46 | 87 | 1007.4 |
| 20260507035534 | 12 | 360 | 0.0 | 12.9 | 0.00 | 0.46 | 0.46 | 87 | 1007.5 |
| 20260507035452 | 12 | 0 | 3.2 | 12.9 | 0.00 | 0.46 | 0.46 | 87 | 1007.4 |
| 20260507035353 | 12 | 0 | 3.2 | 12.9 | 0.00 | 0.46 | 0.46 | 87 | 1007.4 |
| 20260507035252 | 12 | 0 | 3.2 | 12.9 | 0.00 | 0.46 | 0.46 | 87 | 1007.4 |
| 20260507035150 | 12 | 0 | 3.2 | 12.9 | 0.00 | 0.46 | 0.46 | 87 | 1007.4 |
| 20260507035050 | 12 | 0 | 1.6 | 12.9 | 0.00 | 0.46 | 0.46 | 87 | 1007.4 |
| 20260507035020 | 13 | 360 | 8.0 | 12.9 | 0.00 | 0.46 | 0.46 | 87 | 1007.6 |
| 20260507034957 | 12 | 0 | 1.6 | 9.7 | 0.00 | 0.46 | 0.46 | 87 | 1007.5 |
| 20260507034949 | 13 | 0 | 1.6 | 9.7 | 0.00 | 0.46 | 0.46 | 87 | 1007.5 |
| 20260507034849 | 13 | 0 | 1.6 | 8.0 | 0.00 | 0.46 | 0.46 | 87 | 1007.4 |
| 20260507034749 | 13 | 0 | 1.6 | 12.9 | 0.00 | 0.46 | 0.46 | 87 | 1007.3 |
| 20260507034717 | 13 | 0 | 1.6 | 12.9 | 0.00 | 0.46 | 0.46 | 88 | 1007.4 |
| 20260507034647 | 13 | 0 | 1.6 | 12.9 | 0.00 | 0.46 | 0.46 | 87 | 1007.3 |
| 20260507034606 | 13 | 0 | 1.6 | 12.9 | 0.00 | 0.46 | 0.46 | 88 | 1007.2 |
| 20260507034446 | 13 | 0 | 1.6 | 12.9 | 0.00 | 0.46 | 0.46 | 88 | 1007.4 |
| 20260507034344 | 13 | 0 | 1.6 | 12.9 | 0.00 | 0.46 | 0.46 | 88 | 1007.4 |
| 20260507034306 | 13 | 0 | 1.6 | 12.9 | 0.03 | 0.46 | 0.46 | 87 | 1007.3 |
| 20260507034244 | 13 | 0 | 1.6 | 12.9 | 0.00 | 0.46 | 0.46 | 88 | 1007.4 |
| 20260507034212 | 13 | 0 | 1.6 | 12.9 | 0.03 | 0.46 | 0.46 | 87 | 1007.3 |
| 20260507034207 | 13 | 0 | 1.6 | 12.9 | 0.00 | 0.46 | 0.46 | 87 | 1007.3 |
| 20260507034158 | 13 | 0 | 3.2 | 12.9 | 0.03 | 0.46 | 0.46 | 87 | 1007.3 |
| 20260507034020 | 13 | 360 | 0.0 | 12.9 | 0.03 | 0.46 | 0.46 | 87 | 1007.4 |
| 20260507033842 | 13 | 0 | 1.6 | 12.9 | 0.03 | 0.46 | 0.46 | 87 | 1007.2 |
| 20260507033742 | 13 | 0 | 1.6 | 8.0 | 0.03 | 0.46 | 0.46 | 87 | 1007.2 |
| 20260507033641 | 13 | 0 | 1.6 | 8.0 | 0.03 | 0.46 | 0.46 | 87 | 1007.2 |
| 20260507033541 | 13 | 0 | 1.6 | 8.0 | 0.03 | 0.46 | 0.46 | 87 | 1007.3 |
| 20260507033520 | 13 | 360 | 4.8 | 8.0 | 0.03 | 0.46 | 0.46 | 87 | 1007.3 |
| 20260507033459 | 13 | 0 | 1.6 | 8.0 | 0.03 | 0.46 | 0.46 | 87 | 1007.2 |
| 20260507033440 | 13 | 0 | 1.6 | 8.0 | 0.03 | 0.46 | 0.46 | 88 | 1007.2 |
| 20260507033340 | 13 | 0 | 1.6 | 6.4 | 0.03 | 0.46 | 0.46 | 88 | 1007.2 |
| 20260507033240 | 13 | 0 | 1.6 | 6.4 | 0.03 | 0.46 | 0.46 | 88 | 1007.2 |
| 20260507033137 | 13 | 0 | 1.6 | 6.4 | 0.03 | 0.46 | 0.46 | 88 | 1007.2 |
| 20260507033038 | 13 | 0 | 1.6 | 6.4 | 0.03 | 0.46 | 0.46 | 88 | 1007.1 |
| 20260507033020 | 13 | 360 | 1.6 | 6.4 | 0.03 | 0.46 | 0.46 | 88 | 1007.2 |
| 20260507032937 | 13 | 0 | 1.6 | 6.4 | 0.03 | 0.46 | 0.46 | 88 | 1007.1 |
| 20260507032837 | 13 | 0 | 1.6 | 6.4 | 0.03 | 0.46 | 0.46 | 88 | 1006.9 |
| 20260507032734 | 13 | 0 | 1.6 | 6.4 | 0.03 | 0.46 | 0.46 | 88 | 1006.9 |
| 20260507032715 | 13 | 0 | 1.6 | 6.4 | 0.03 | 0.46 | 0.46 | 88 | 1006.9 |
| 20260507032633 | 13 | 0 | 1.6 | 6.4 | 0.03 | 0.46 | 0.46 | 88 | 1006.9 |
| 20260507032615 | 13 | 0 | 1.6 | 6.4 | 0.03 | 0.46 | 0.46 | 87 | 1007.0 |
| 20260507032611 | 13 | 0 | 1.6 | 12.9 | 0.03 | 0.46 | 0.46 | 88 | 1006.9 |
| 20260507032605 | 13 | 0 | 1.6 | 6.4 | 0.03 | 0.46 | 0.46 | 88 | 1006.9 |
| 20260507032519 | 13 | 360 | 3.2 | 6.4 | 0.03 | 0.46 | 0.46 | 88 | 1007.0 |
| 20260507032450 | 13 | 0 | 1.6 | 6.4 | 0.03 | 0.46 | 0.46 | 87 | 1006.9 |
| 20260507032204 | 13 | 0 | 1.6 | 12.9 | 0.03 | 0.46 | 0.46 | 87 | 1006.8 |
| 20260507032200 | 13 | 0 | 1.6 | 12.9 | 0.03 | 0.46 | 0.46 | 87 | 1006.9 |
| 20260507032154 | 13 | 0 | 1.6 | 12.9 | 0.03 | 0.46 | 0.46 | 87 | 1006.9 |
| 20260507032037 | 13 | 0 | 1.6 | 12.9 | 0.03 | 0.46 | 0.46 | 87 | 1006.8 |
| 20260507032019 | 13 | 360 | 0.0 | 12.9 | 0.03 | 0.46 | 0.46 | 87 | 1006.9 |
| 20260507031830 | 13 | 0 | 3.2 | 19.3 | 0.03 | 0.46 | 0.46 | 87 | 1006.9 |
| 20260507031730 | 13 | 0 | 3.2 | 19.3 | 0.03 | 0.46 | 0.46 | 87 | 1007.0 |
| 20260507031630 | 13 | 0 | 3.2 | 19.3 | 0.03 | 0.46 | 0.46 | 87 | 1006.9 |
| 20260507031529 | 13 | 0 | 3.2 | 19.3 | 0.03 | 0.46 | 0.46 | 87 | 1006.9 |
| 20260507031520 | 13 | 360 | 4.8 | 19.3 | 0.03 | 0.46 | 0.46 | 87 | 1006.9 |
| 20260507031428 | 13 | 0 | 3.2 | 19.3 | 0.03 | 0.46 | 0.46 | 87 | 1006.9 |
| 20260507031328 | 13 | 0 | 3.2 | 19.3 | 0.03 | 0.46 | 0.46 | 87 | 1006.9 |
| 20260507031227 | 13 | 0 | 3.2 | 19.3 | 0.03 | 0.46 | 0.46 | 87 | 1006.9 |
| 20260507031127 | 13 | 0 | 3.2 | 19.3 | 0.03 | 0.46 | 0.46 | 87 | 1006.9 |
| 20260507031025 | 13 | 0 | 4.8 | 19.3 | 0.03 | 0.46 | 0.46 | 87 | 1007.0 |
| 20260507031020 | 13 | 360 | 0.0 | 19.3 | 0.03 | 0.46 | 0.46 | 87 | 1007.0 |
| 20260507030939 | 13 | 0 | 4.8 | 16.1 | 0.03 | 0.46 | 0.46 | 87 | 1007.0 |
| 20260507030934 | 13 | 0 | 4.8 | 19.3 | 0.03 | 0.46 | 0.46 | 87 | 1007.0 |
| 20260507030738 | 13 | 0 | 4.8 | 16.1 | 0.03 | 0.46 | 0.46 | 88 | 1006.9 |
| 20260507030733 | 13 | 0 | 4.8 | 16.1 | 0.03 | 0.46 | 0.46 | 87 | 1007.0 |
| 20260507030537 | 13 | 0 | 4.8 | 16.1 | 0.03 | 0.46 | 0.46 | 88 | 1006.9 |
| 20260507030529 | 13 | 0 | 4.8 | 16.1 | 0.03 | 0.46 | 0.46 | 88 | 1006.9 |
| 20260507030520 | 13 | 360 | 0.0 | 16.1 | 0.03 | 0.46 | 0.46 | 88 | 1006.9 |
| 20260507030322 | 13 | 0 | 4.8 | 16.1 | 0.03 | 0.46 | 0.46 | 87 | 1006.9 |
| 20260507030221 | 13 | 0 | 4.8 | 16.1 | 0.03 | 0.46 | 0.46 | 87 | 1006.9 |
| 20260507030120 | 14 | 0 | 4.8 | 14.5 | 0.03 | 0.46 | 0.46 | 87 | 1006.9 |
| 20260507030034 | 14 | 360 | 4.8 | 14.5 | 0.03 | 0.46 | 0.46 | 88 | 1006.7 |
| 20260507030018 | 14 | 0 | 4.8 | 14.5 | 0.03 | 0.46 | 0.46 | 88 | 1006.8 |
| 20260507025954 | 14 | 0 | 4.8 | 14.5 | 0.03 | 0.46 | 0.46 | 88 | 1006.7 |
| 20260507025917 | 14 | 0 | 4.8 | 14.5 | 0.03 | 0.46 | 0.46 | 88 | 1006.7 |
| 20260507025818 | 14 | 0 | 4.8 | 14.5 | 0.05 | 0.46 | 0.46 | 88 | 1006.6 |
| 20260507025718 | 14 | 0 | 4.8 | 19.3 | 0.05 | 0.46 | 0.46 | 88 | 1006.6 |
| 20260507025616 | 14 | 0 | 4.8 | 19.3 | 0.05 | 0.46 | 0.46 | 88 | 1006.6 |
| 20260507025519 | 14 | 360 | 6.4 | 19.3 | 0.05 | 0.46 | 0.46 | 88 | 1006.6 |
| 20260507025516 | 14 | 0 | 4.8 | 19.3 | 0.05 | 0.46 | 0.46 | 88 | 1006.6 |
| 20260507025453 | 14 | 0 | 4.8 | 19.3 | 0.05 | 0.46 | 0.46 | 88 | 1006.6 |
| 20260507025416 | 14 | 0 | 4.8 | 19.3 | 0.05 | 0.46 | 0.46 | 88 | 1006.6 |
| 20260507025316 | 15 | 0 | 4.8 | 19.3 | 0.05 | 0.46 | 0.46 | 88 | 1006.7 |
| 20260507025259 | 15 | 0 | 4.8 | 20.9 | 0.05 | 0.46 | 0.46 | 87 | 1006.5 |
| 20260507025253 | 15 | 0 | 6.4 | 20.9 | 0.05 | 0.46 | 0.46 | 88 | 1006.7 |
| 20260507025139 | 15 | 0 | 4.8 | 20.9 | 0.05 | 0.46 | 0.46 | 87 | 1006.6 |
| 20260507025130 | 15 | 0 | 4.8 | 20.9 | 0.05 | 0.46 | 0.46 | 87 | 1006.5 |
| 20260507025019 | 15 | 360 | 0.0 | 20.9 | 0.05 | 0.46 | 0.46 | 87 | 1006.5 |
| 20260507024815 | 15 | 0 | 3.2 | 20.9 | 0.05 | 0.46 | 0.46 | 87 | 1006.5 |
| 20260507024714 | 15 | 0 | 3.2 | 20.9 | 0.05 | 0.46 | 0.46 | 88 | 1006.5 |
| 20260507024628 | 15 | 0 | 1.6 | 20.9 | 0.05 | 0.46 | 0.46 | 87 | 1006.4 |
| 20260507024623 | 15 | 0 | 3.2 | 20.9 | 0.05 | 0.46 | 0.46 | 87 | 1006.4 |
| 20260507024520 | 15 | 360 | 4.8 | 20.9 | 0.05 | 0.46 | 0.46 | 87 | 1006.4 |
| 20260507024451 | 16 | 0 | 1.6 | 20.9 | 0.05 | 0.46 | 0.46 | 87 | 1006.4 |
| 20260507024413 | 16 | 0 | 1.6 | 20.9 | 0.05 | 0.46 | 0.46 | 87 | 1006.3 |
| 20260507024313 | 16 | 0 | 0.0 | 20.9 | 0.05 | 0.46 | 0.46 | 88 | 1006.3 |
| 20260507024212 | 16 | 0 | 0.0 | 20.9 | 0.05 | 0.46 | 0.46 | 89 | 1006.4 |
| 20260507024111 | 17 | 0 | 0.0 | 1.6 | 0.05 | 0.46 | 0.46 | 91 | 1006.4 |
| 20260507024020 | 17 | 360 | 0.0 | 0.0 | 0.03 | 0.43 | 0.43 | 92 | 1006.3 |
| 20260507024011 | 17 | 0 | 0.0 | 0.0 | 0.03 | 0.43 | 0.43 | 92 | 1006.3 |
| 20260507023950 | 17 | 0 | 0.0 | 0.0 | 0.03 | 0.43 | 0.43 | 92 | 1006.3 |
| 20260507023925 | 17 | 0 | 0.0 | 0.0 | 0.03 | 0.43 | 0.43 | 92 | 1006.4 |
| 20260507023920 | 17 | 0 | 0.0 | 0.0 | 0.03 | 0.43 | 0.43 | 92 | 1006.4 |
| 20260507023732 | 17 | 0 | 0.0 | 0.0 | 0.03 | 0.43 | 0.43 | 92 | 1006.4 |
| 20260507023727 | 17 | 0 | 0.0 | 0.0 | 0.03 | 0.43 | 0.43 | 92 | 1006.4 |
| 20260507023722 | 17 | 0 | 0.0 | 0.0 | 0.03 | 0.43 | 0.43 | 92 | 1006.4 |
| 20260507023713 | 17 | 0 | 0.0 | 0.0 | 0.03 | 0.43 | 0.43 | 92 | 1006.4 |
| 20260507023535 | 17 | 360 | 0.0 | 0.0 | 0.03 | 0.43 | 0.43 | 93 | 1006.4 |
| 20260507023452 | 17 | 0 | 0.0 | 0.0 | 0.03 | 0.43 | 0.43 | 92 | 1006.4 |
| 20260507023444 | 17 | 0 | 0.0 | 0.0 | 0.03 | 0.43 | 0.43 | 93 | 1006.3 |
| 20260507023331 | 17 | 0 | 0.0 | 0.0 | 0.03 | 0.43 | 0.43 | 92 | 1006.3 |
| 20260507023218 | 17 | 0 | 0.0 | 0.0 | 0.03 | 0.43 | 0.43 | 92 | 1006.3 |
| 20260507023209 | 17 | 0 | 0.0 | 0.0 | 0.03 | 0.43 | 0.43 | 92 | 1006.4 |
| 20260507023159 | 17 | 0 | 0.0 | 0.0 | 0.03 | 0.43 | 0.43 | 92 | 1006.4 |
| 20260507023019 | 17 | 360 | 0.0 | 0.0 | 0.03 | 0.43 | 0.43 | 92 | 1006.4 |
| 20260507022940 | 17 | 0 | 0.0 | 0.0 | 0.03 | 0.43 | 0.43 | 92 | 1006.4 |
| 20260507022520 | 17 | 360 | 0.0 | 0.0 | 0.03 | 0.43 | 0.43 | 92 | 1006.5 |
| 20260507022448 | 17 | 0 | 0.0 | 0.0 | 0.03 | 0.43 | 0.43 | 92 | 1006.5 |
| 20260507022402 | 17 | 0 | 0.0 | 0.0 | 0.03 | 0.43 | 0.43 | 92 | 1006.4 |
| 20260507022301 | 17 | 0 | 0.0 | 0.0 | 0.03 | 0.43 | 0.43 | 92 | 1006.4 |
| 20260507022215 | 17 | 0 | 0.0 | 0.0 | 0.03 | 0.43 | 0.43 | 92 | 1006.2 |
| 20260507022201 | 17 | 0 | 0.0 | 0.0 | 0.03 | 0.43 | 0.43 | 92 | 1006.3 |
| 20260507022118 | 17 | 0 | 0.0 | 0.0 | 0.03 | 0.43 | 0.43 | 92 | 1006.3 |
| 20260507022113 | 17 | 0 | 0.0 | 0.0 | 0.03 | 0.43 | 0.43 | 92 | 1006.3 |
| 20260507022108 | 17 | 0 | 0.0 | 0.0 | 0.03 | 0.43 | 0.43 | 92 | 1006.3 |
| 20260507022104 | 17 | 0 | 0.0 | 0.0 | 0.03 | 0.43 | 0.43 | 92 | 1006.3 |
| 20260507022055 | 17 | 0 | 0.0 | 0.0 | 0.03 | 0.43 | 0.43 | 92 | 1006.2 |
| 20260507022050 | 17 | 360 | 0.0 | 0.0 | 0.03 | 0.43 | 0.43 | 92 | 1006.2 |
| 20260507021942 | 17 | 0 | 0.0 | 0.0 | 0.03 | 0.43 | 0.43 | 92 | 1006.4 |
| 20260507021936 | 17 | 0 | 0.0 | 0.0 | 0.03 | 0.43 | 0.43 | 92 | 1006.3 |
| 20260507021520 | 17 | 360 | 0.0 | 0.0 | 0.03 | 0.43 | 0.43 | 92 | 1006.4 |
| 20260507021446 | 17 | 0 | 0.0 | 0.0 | 0.03 | 0.43 | 0.43 | 92 | 1006.4 |
| 20260507021359 | 17 | 0 | 0.0 | 0.0 | 0.03 | 0.43 | 0.43 | 92 | 1006.4 |
| 20260507021259 | 17 | 0 | 0.0 | 0.0 | 0.03 | 0.43 | 0.43 | 92 | 1006.4 |
| 20260507021158 | 17 | 0 | 0.0 | 0.0 | 0.03 | 0.43 | 0.43 | 92 | 1006.4 |
| 20260507021058 | 17 | 0 | 0.0 | 0.0 | 0.05 | 0.43 | 0.43 | 92 | 1006.4 |
| 20260507021019 | 17 | 360 | 0.0 | 0.0 | 0.05 | 0.43 | 0.43 | 92 | 1006.3 |
| 20260507020944 | 17 | 0 | 0.0 | 0.0 | 0.05 | 0.43 | 0.43 | 92 | 1006.3 |
| 20260507020857 | 17 | 0 | 0.0 | 0.0 | 0.05 | 0.43 | 0.43 | 92 | 1006.3 |
| 20260507020810 | 17 | 0 | 0.0 | 0.0 | 0.08 | 0.43 | 0.43 | 92 | 1006.4 |
| 20260507020804 | 17 | 0 | 0.0 | 0.0 | 0.05 | 0.43 | 0.43 | 92 | 1006.4 |
| 20260507020555 | 17 | 0 | 0.0 | 0.0 | 0.08 | 0.43 | 0.43 | 92 | 1006.4 |
| 20260507020549 | 17 | 360 | 0.0 | 0.0 | 0.08 | 0.43 | 0.43 | 92 | 1006.4 |
| 20260507020444 | 17 | 0 | 0.0 | 0.0 | 0.08 | 0.43 | 0.43 | 92 | 1006.4 |
| 20260507020355 | 17 | 0 | 0.0 | 0.0 | 0.08 | 0.43 | 0.43 | 92 | 1006.4 |
| 20260507020254 | 17 | 0 | 0.0 | 0.0 | 0.08 | 0.43 | 0.43 | 92 | 1006.4 |
| 20260507020154 | 17 | 0 | 0.0 | 0.0 | 0.08 | 0.43 | 0.43 | 92 | 1006.4 |
| 20260507020053 | 17 | 0 | 0.0 | 0.0 | 0.08 | 0.43 | 0.43 | 91 | 1006.4 |
| 20260507020019 | 17 | 360 | 0.0 | 0.0 | 0.08 | 0.43 | 0.43 | 91 | 1006.5 |
| 20260507015944 | 17 | 0 | 0.0 | 0.0 | 0.08 | 0.43 | 0.43 | 91 | 1006.5 |
| 20260507015851 | 17 | 0 | 0.0 | 0.0 | 0.05 | 0.41 | 0.41 | 91 | 1006.5 |
| 20260507015750 | 17 | 0 | 0.0 | 0.0 | 0.05 | 0.41 | 0.41 | 91 | 1006.5 |
| 20260507015704 | 17 | 0 | 0.0 | 0.0 | 0.05 | 0.41 | 0.41 | 91 | 1006.5 |
| 20260507015659 | 17 | 0 | 0.0 | 0.0 | 0.05 | 0.41 | 0.41 | 91 | 1006.5 |
| 20260507015535 | 17 | 360 | 0.0 | 0.0 | 0.05 | 0.41 | 0.41 | 91 | 1006.6 |
| 20260507015441 | 17 | 0 | 0.0 | 0.0 | 0.05 | 0.41 | 0.41 | 91 | 1006.6 |
| 20260507015349 | 17 | 0 | 0.0 | 0.0 | 0.05 | 0.41 | 0.41 | 91 | 1006.6 |
| 20260507015314 | 17 | 0 | 0.0 | 0.0 | 0.05 | 0.41 | 0.41 | 91 | 1006.4 |
| 20260507015148 | 17 | 0 | 0.0 | 0.0 | 0.05 | 0.41 | 0.41 | 91 | 1006.4 |
| 20260507015058 | 17 | 0 | 0.0 | 0.0 | 0.05 | 0.41 | 0.41 | 91 | 1006.4 |
| 20260507015049 | 17 | 0 | 0.0 | 0.0 | 0.05 | 0.41 | 0.41 | 91 | 1006.5 |
| 20260507015034 | 17 | 360 | 0.0 | 0.0 | 0.05 | 0.41 | 0.41 | 90 | 1006.5 |
| 20260507014846 | 17 | 0 | 0.0 | 0.0 | 0.05 | 0.41 | 0.41 | 90 | 1006.6 |
| 20260507014746 | 17 | 0 | 0.0 | 0.0 | 0.05 | 0.41 | 0.41 | 90 | 1006.6 |
| 20260507014646 | 17 | 0 | 0.0 | 0.0 | 0.05 | 0.41 | 0.41 | 90 | 1006.5 |
| 20260507014545 | 17 | 0 | 0.0 | 0.0 | 0.05 | 0.41 | 0.41 | 90 | 1006.5 |
| 20260507014520 | 17 | 360 | 0.0 | 0.0 | 0.05 | 0.41 | 0.41 | 90 | 1006.5 |
| 20260507014440 | 17 | 0 | 0.0 | 0.0 | 0.05 | 0.41 | 0.41 | 90 | 1006.5 |
| 20260507014409 | 17 | 0 | 0.0 | 0.0 | 0.05 | 0.41 | 0.41 | 90 | 1006.4 |
| 20260507014405 | 17 | 0 | 0.0 | 0.0 | 0.05 | 0.41 | 0.41 | 90 | 1006.3 |
| 20260507014400 | 17 | 0 | 0.0 | 0.0 | 0.05 | 0.41 | 0.41 | 90 | 1006.5 |
| 20260507014041 | 17 | 0 | 0.0 | 0.0 | 0.05 | 0.41 | 0.41 | 89 | 1006.3 |
| 20260507014035 | 17 | 360 | 0.0 | 0.0 | 0.05 | 0.41 | 0.41 | 89 | 1006.3 |
| 20260507013942 | 17 | 0 | 0.0 | 0.0 | 0.05 | 0.41 | 0.41 | 89 | 1006.3 |
| 20260507013840 | 17 | 0 | 0.0 | 0.0 | 0.05 | 0.41 | 0.41 | 89 | 1006.2 |
| 20260507013818 | 18 | 0 | 0.0 | 0.0 | 0.05 | 0.41 | 0.41 | 89 | 1006.2 |
| 20260507013706 | 18 | 0 | 0.0 | 0.0 | 0.05 | 0.41 | 0.41 | 89 | 1006.3 |
| 20260507013700 | 18 | 0 | 0.0 | 0.0 | 0.05 | 0.41 | 0.41 | 89 | 1006.3 |
| 20260507013542 | 18 | 0 | 0.0 | 0.0 | 0.05 | 0.41 | 0.41 | 89 | 1006.3 |
| 20260507013535 | 18 | 360 | 0.0 | 0.0 | 0.05 | 0.41 | 0.41 | 89 | 1006.3 |
| 20260507013350 | 18 | 0 | 0.0 | 0.0 | 0.05 | 0.41 | 0.41 | 88 | 1006.3 |
| 20260507013345 | 18 | 0 | 0.0 | 0.0 | 0.05 | 0.41 | 0.41 | 89 | 1006.3 |
| 20260507013158 | 18 | 0 | 0.0 | 0.0 | 0.05 | 0.41 | 0.41 | 88 | 1006.3 |
| 20260507013135 | 18 | 0 | 0.0 | 0.0 | 0.05 | 0.41 | 0.41 | 88 | 1006.3 |
| 20260507013049 | 18 | 0 | 0.0 | 0.0 | 0.05 | 0.41 | 0.41 | 88 | 1006.3 |
| 20260507013021 | 18 | 360 | 0.0 | 0.0 | 0.05 | 0.41 | 0.41 | 88 | 1006.3 |
| 20260507012934 | 18 | 0 | 0.0 | 0.0 | 0.05 | 0.41 | 0.41 | 88 | 1006.3 |
| 20260507012834 | 18 | 0 | 0.0 | 0.0 | 0.05 | 0.41 | 0.41 | 88 | 1006.2 |
| 20260507012734 | 18 | 0 | 0.0 | 0.0 | 0.05 | 0.41 | 0.41 | 88 | 1006.2 |
| 20260507012633 | 18 | 0 | 0.0 | 0.0 | 0.05 | 0.41 | 0.41 | 88 | 1006.2 |
| 20260507012533 | 18 | 0 | 0.0 | 0.0 | 0.05 | 0.41 | 0.41 | 87 | 1006.2 |
| 20260507012519 | 18 | 360 | 0.0 | 0.0 | 0.05 | 0.41 | 0.41 | 87 | 1006.2 |
| 20260507012452 | 18 | 0 | 0.0 | 0.0 | 0.05 | 0.41 | 0.41 | 87 | 1006.2 |
| 20260507012441 | 18 | 0 | 0.0 | 0.0 | 0.05 | 0.41 | 0.41 | 87 | 1006.2 |
| 20260507012232 | 18 | 0 | 0.0 | 0.0 | 0.05 | 0.41 | 0.41 | 87 | 1006.2 |
| 20260507012132 | 18 | 0 | 0.0 | 0.0 | 0.05 | 0.41 | 0.41 | 86 | 1006.2 |
| 20260507012030 | 18 | 0 | 0.0 | 0.0 | 0.05 | 0.41 | 0.41 | 86 | 1006.2 |
| 20260507012020 | 18 | 360 | 0.0 | 0.0 | 0.05 | 0.41 | 0.41 | 86 | 1006.1 |
| 20260507011931 | 18 | 0 | 0.0 | 0.0 | 0.05 | 0.41 | 0.41 | 86 | 1006.1 |
| 20260507011829 | 18 | 0 | 0.0 | 0.0 | 0.05 | 0.41 | 0.41 | 86 | 1006.1 |
| 20260507011729 | 18 | 0 | 0.0 | 0.0 | 0.05 | 0.41 | 0.41 | 86 | 1006.1 |
| 20260507011700 | 18 | 0 | 0.0 | 0.0 | 0.05 | 0.41 | 0.41 | 85 | 1006.0 |
| 20260507011656 | 18 | 0 | 0.0 | 0.0 | 0.05 | 0.41 | 0.41 | 85 | 1006.0 |
| 20260507011650 | 18 | 0 | 0.0 | 0.0 | 0.05 | 0.41 | 0.41 | 85 | 1006.1 |
| 20260507011534 | 18 | 360 | 0.0 | 0.0 | 0.05 | 0.41 | 0.41 | 85 | 1006.0 |
| 20260507011532 | 18 | 0 | 0.0 | 0.0 | 0.05 | 0.41 | 0.41 | 85 | 1006.0 |
| 20260507011327 | 18 | 0 | 0.0 | 0.0 | 0.05 | 0.41 | 0.41 | 85 | 1006.0 |
| 20260507011242 | 18 | 0 | 0.0 | 0.0 | 0.03 | 0.38 | 0.41 | 85 | 1006.0 |
| 20260507011237 | 18 | 0 | 0.0 | 0.0 | 0.05 | 0.41 | 0.41 | 85 | 1006.0 |
| 20260507011102 | 18 | 0 | 0.0 | 0.0 | 0.03 | 0.38 | 0.38 | 84 | 1005.8 |
| 20260507011020 | 18 | 360 | 0.0 | 0.0 | 0.03 | 0.38 | 0.38 | 84 | 1005.9 |
| 20260507010932 | 18 | 0 | 0.0 | 0.0 | 0.03 | 0.38 | 0.38 | 84 | 1005.9 |
| 20260507010826 | 18 | 0 | 0.0 | 0.0 | 0.03 | 0.38 | 0.38 | 84 | 1005.9 |
| 20260507010726 | 18 | 0 | 0.0 | 0.0 | 0.00 | 0.36 | 0.38 | 84 | 1006.0 |
| 20260507010625 | 18 | 0 | 0.0 | 0.0 | 0.00 | 0.36 | 0.36 | 84 | 1006.0 |
| 20260507010534 | 18 | 360 | 0.0 | 0.0 | 0.00 | 0.36 | 0.36 | 83 | 1006.0 |
| 20260507010525 | 18 | 0 | 0.0 | 0.0 | 0.00 | 0.36 | 0.36 | 83 | 1006.1 |
| 20260507010424 | 18 | 0 | 0.0 | 0.0 | 0.00 | 0.36 | 0.36 | 83 | 1006.0 |
| 20260507010325 | 18 | 0 | 0.0 | 0.0 | 0.00 | 0.36 | 0.36 | 83 | 1005.9 |
| 20260507010225 | 18 | 0 | 0.0 | 0.0 | 0.00 | 0.36 | 0.36 | 82 | 1005.8 |
| 20260507010124 | 18 | 0 | 0.0 | 0.0 | 0.00 | 0.36 | 0.36 | 82 | 1005.8 |
| 20260507010024 | 18 | 0 | 0.0 | 0.0 | 0.00 | 0.36 | 0.36 | 82 | 1005.8 |
| 20260507010020 | 18 | 360 | 0.0 | 0.0 | 0.00 | 0.36 | 0.36 | 82 | 1005.8 |
| 20260507005923 | 18 | 0 | 0.0 | 0.0 | 0.00 | 0.36 | 0.36 | 82 | 1005.8 |
| 20260507005821 | 18 | 0 | 0.0 | 0.0 | 0.00 | 0.36 | 0.36 | 82 | 1005.8 |
| 20260507005722 | 18 | 0 | 0.0 | 0.0 | 0.00 | 0.36 | 0.36 | 82 | 1005.8 |
| 20260507005621 | 18 | 0 | 0.0 | 0.0 | 0.00 | 0.36 | 0.36 | 82 | 1005.7 |
| 20260507005520 | 18 | 0 | 0.0 | 0.0 | 0.00 | 0.36 | 0.36 | 82 | 1005.7 |
| 20260507005420 | 18 | 0 | 0.0 | 0.0 | 0.00 | 0.36 | 0.36 | 82 | 1005.9 |
| 20260507005320 | 18 | 0 | 0.0 | 0.0 | 0.00 | 0.36 | 0.36 | 82 | 1005.9 |
| 20260507005219 | 18 | 0 | 0.0 | 0.0 | 0.00 | 0.36 | 0.36 | 82 | 1006.0 |
| 20260507005119 | 18 | 0 | 0.0 | 0.0 | 0.00 | 0.36 | 0.36 | 82 | 1006.0 |
| 20260507005050 | 18 | 360 | 0.0 | 0.0 | 0.00 | 0.36 | 0.36 | 82 | 1005.9 |
| 20260507005018 | 18 | 0 | 0.0 | 0.0 | 0.00 | 0.36 | 0.36 | 82 | 1005.9 |
| 20260507004959 | 18 | 0 | 0.0 | 0.0 | 0.00 | 0.36 | 0.36 | 82 | 1005.9 |
| 20260507004948 | 18 | 0 | 0.0 | 0.0 | 0.00 | 0.36 | 0.36 | 82 | 1005.9 |
| 20260507004725 | 18 | 0 | 0.0 | 0.0 | 0.00 | 0.36 | 0.36 | 82 | 1005.8 |
| 20260507004520 | 18 | 360 | 0.0 | 0.0 | 0.00 | 0.36 | 0.36 | 82 | 1005.6 |
| 20260507004516 | 18 | 0 | 0.0 | 0.0 | 0.00 | 0.36 | 0.36 | 82 | 1005.6 |
| 20260507004417 | 18 | 0 | 0.0 | 0.0 | 0.00 | 0.36 | 0.36 | 82 | 1005.6 |
| 20260507004316 | 18 | 0 | 0.0 | 0.0 | 0.00 | 0.36 | 0.36 | 82 | 1005.6 |
| 20260507004215 | 18 | 0 | 0.0 | 4.8 | 0.00 | 0.36 | 0.36 | 82 | 1005.6 |
| 20260507004114 | 18 | 0 | 0.0 | 6.4 | 0.00 | 0.36 | 0.36 | 82 | 1005.6 |
| 20260507004020 | 18 | 360 | 0.0 | 6.4 | 0.00 | 0.36 | 0.36 | 82 | 1005.6 |
| 20260507004014 | 18 | 0 | 0.0 | 6.4 | 0.00 | 0.36 | 0.36 | 82 | 1005.6 |
| 20260507003914 | 18 | 0 | 0.0 | 6.4 | 0.00 | 0.36 | 0.36 | 82 | 1005.6 |
| 20260507003813 | 18 | 0 | 0.0 | 6.4 | 0.00 | 0.36 | 0.36 | 82 | 1005.5 |
| 20260507003713 | 18 | 0 | 0.0 | 6.4 | 0.00 | 0.36 | 0.36 | 82 | 1005.4 |
| 20260507003640 | 18 | 0 | 0.0 | 6.4 | 0.00 | 0.36 | 0.36 | 82 | 1005.4 |
| 20260507003612 | 18 | 0 | 0.0 | 6.4 | 0.00 | 0.36 | 0.36 | 82 | 1005.4 |
| 20260507003550 | 18 | 360 | 0.0 | 6.4 | 0.00 | 0.36 | 0.36 | 82 | 1005.4 |
| 20260507003529 | 18 | 0 | 0.0 | 6.4 | 0.00 | 0.36 | 0.36 | 82 | 1005.4 |
| 20260507003411 | 18 | 0 | 0.0 | 6.4 | 0.00 | 0.36 | 0.36 | 82 | 1005.5 |
| 20260507003311 | 18 | 0 | 0.0 | 6.4 | 0.00 | 0.36 | 0.36 | 82 | 1005.4 |
| 20260507003211 | 18 | 0 | 0.0 | 6.4 | 0.00 | 0.36 | 0.36 | 82 | 1005.4 |
| 20260507003138 | 18 | 0 | 0.0 | 3.2 | 0.00 | 0.36 | 0.36 | 82 | 1005.1 |
| 20260507003110 | 18 | 0 | 0.0 | 3.2 | 0.00 | 0.36 | 0.36 | 82 | 1005.2 |
| 20260507003027 | 18 | 0 | 0.0 | 3.2 | 0.00 | 0.36 | 0.36 | 82 | 1005.1 |
| 20260507003020 | 18 | 360 | 0.0 | 3.2 | 0.00 | 0.36 | 0.36 | 82 | 1005.2 |
| 20260507002909 | 18 | 0 | 0.0 | 3.2 | 0.00 | 0.36 | 0.36 | 82 | 1005.1 |
| 20260507002809 | 18 | 0 | 0.0 | 3.2 | 0.00 | 0.36 | 0.36 | 82 | 1005.1 |
| 20260507002709 | 18 | 0 | 0.0 | 3.2 | 0.00 | 0.36 | 0.36 | 82 | 1005.0 |
| 20260507002608 | 18 | 0 | 0.0 | 3.2 | 0.00 | 0.36 | 0.36 | 82 | 1005.1 |
| 20260507002520 | 18 | 360 | 0.0 | 1.6 | 0.00 | 0.36 | 0.36 | 82 | 1005.2 |
| 20260507002508 | 18 | 0 | 0.0 | 1.6 | 0.00 | 0.36 | 0.36 | 82 | 1005.1 |
| 20260507002416 | 18 | 0 | 0.0 | 1.6 | 0.00 | 0.36 | 0.36 | 82 | 1005.1 |
| 20260507002408 | 19 | 0 | 0.0 | 0.0 | 0.00 | 0.36 | 0.36 | 82 | 1005.1 |
| 20260507002307 | 19 | 0 | 0.0 | 0.0 | 0.00 | 0.36 | 0.36 | 82 | 1005.1 |
| 20260507002221 | 19 | 0 | 0.0 | 0.0 | 0.00 | 0.36 | 0.36 | 82 | 1005.2 |
| 20260507002215 | 19 | 0 | 0.0 | 0.0 | 0.00 | 0.36 | 0.36 | 82 | 1005.1 |
| 20260507002020 | 19 | 360 | 0.0 | 0.0 | 0.00 | 0.36 | 0.36 | 82 | 1005.2 |
| 20260507002005 | 19 | 0 | 0.0 | 0.0 | 0.00 | 0.36 | 0.36 | 82 | 1005.1 |
| 20260507001906 | 19 | 0 | 0.0 | 0.0 | 0.00 | 0.36 | 0.36 | 82 | 1005.1 |
| 20260507001805 | 19 | 0 | 0.0 | 4.8 | 0.00 | 0.36 | 0.36 | 82 | 1005.2 |
| 20260507001757 | 19 | 0 | 0.0 | 4.8 | 0.00 | 0.36 | 0.36 | 82 | 1005.2 |
| 20260507001753 | 19 | 0 | 0.0 | 4.8 | 0.00 | 0.36 | 0.36 | 81 | 1005.2 |
| 20260507001749 | 19 | 0 | 0.0 | 4.8 | 0.00 | 0.36 | 0.36 | 81 | 1005.2 |
| 20260507001743 | 19 | 0 | 0.0 | 4.8 | 0.00 | 0.36 | 0.36 | 82 | 1005.2 |
| 20260507001534 | 19 | 360 | 0.0 | 4.8 | 0.00 | 0.36 | 0.36 | 82 | 1005.3 |
| 20260507001404 | 19 | 0 | 0.0 | 4.8 | 0.00 | 0.36 | 0.36 | 81 | 1005.2 |
| 20260507001304 | 19 | 0 | 0.0 | 4.8 | 0.00 | 0.36 | 0.36 | 81 | 1005.1 |
| 20260507001204 | 19 | 0 | 0.0 | 4.8 | 0.00 | 0.36 | 0.36 | 81 | 1005.1 |
| 20260507001103 | 19 | 0 | 0.0 | 8.0 | 0.00 | 0.36 | 0.36 | 81 | 1005.2 |
| 20260507001022 | 19 | 0 | 0.0 | 8.0 | 0.00 | 0.36 | 0.36 | 81 | 1005.2 |
| 20260507001020 | 19 | 360 | 0.0 | 4.8 | 0.00 | 0.36 | 0.36 | 81 | 1005.2 |
| 20260507001009 | 19 | 0 | 0.0 | 8.0 | 0.00 | 0.36 | 0.36 | 81 | 1005.1 |
| 20260507000823 | 19 | 0 | 0.0 | 8.0 | 0.00 | 0.36 | 0.36 | 81 | 1005.1 |
| 20260507000709 | 19 | 0 | 1.6 | 8.0 | 0.00 | 0.36 | 0.36 | 81 | 1005.1 |
| 20260507000520 | 19 | 360 | 0.0 | 4.8 | 0.00 | 0.36 | 0.36 | 81 | 1005.2 |
| 20260507000457 | 19 | 0 | 1.6 | 8.0 | 0.00 | 0.36 | 0.36 | 81 | 1005.1 |
| 20260507000414 | 19 | 0 | 1.6 | 8.0 | 0.00 | 0.36 | 0.36 | 81 | 1005.1 |
| 20260507000357 | 19 | 0 | 1.6 | 8.0 | 0.00 | 0.36 | 0.36 | 81 | 1005.1 |
| 20260507000258 | 19 | 0 | 1.6 | 8.0 | 0.00 | 0.36 | 0.36 | 81 | 1005.1 |
| 20260507000155 | 19 | 0 | 1.6 | 8.0 | 0.00 | 0.36 | 0.36 | 81 | 1005.1 |
| 20260507000055 | 19 | 0 | 1.6 | 6.4 | 0.00 | 0.36 | 0.36 | 81 | 1005.1 |
| 20260507000035 | 19 | 360 | 0.0 | 6.4 | 0.00 | 0.36 | 0.36 | 81 | 1005.1 |
| 20260506235955 | 19 | 0 | 1.6 | 6.4 | 0.00 | 0.36 | 0.36 | 81 | 1005.0 |
| 20260506235913 | 19 | 0 | 1.6 | 6.4 | 0.00 | 0.36 | 0.36 | 81 | 1005.1 |
| 20260506235907 | 19 | 0 | 0.0 | 6.4 | 0.00 | 0.36 | 0.36 | 81 | 1004.9 |
| 20260506235902 | 19 | 0 | 1.6 | 6.4 | 0.00 | 0.36 | 0.36 | 81 | 1005.1 |
| 20260506235653 | 19 | 0 | 0.0 | 6.4 | 0.00 | 0.36 | 0.36 | 81 | 1004.9 |
| 20260506235551 | 19 | 0 | 0.0 | 6.4 | 0.00 | 0.36 | 0.36 | 81 | 1004.9 |
| 20260506235538 | 19 | 0 | 0.0 | 6.4 | 0.00 | 0.36 | 0.36 | 81 | 1004.9 |
| 20260506235534 | 19 | 0 | 0.0 | 0.0 | 0.00 | 0.36 | 0.36 | 81 | 1004.9 |
| 20260506235529 | 19 | 0 | 0.0 | 0.0 | 0.00 | 0.36 | 0.36 | 81 | 1004.9 |
| 20260506235520 | 19 | 360 | 0.0 | 6.4 | 0.00 | 0.36 | 0.36 | 81 | 1005.0 |
| 20260506235515 | 19 | 0 | 0.0 | 6.4 | 0.00 | 0.36 | 0.36 | 81 | 1004.9 |
| 20260506235050 | 19 | 0 | 0.0 | 0.0 | 0.00 | 0.36 | 0.36 | 81 | 1004.9 |
| 20260506235020 | 19 | 360 | 0.0 | 8.0 | 0.00 | 0.36 | 0.36 | 81 | 1005.0 |
| 20260506234950 | 19 | 0 | 0.0 | 8.0 | 0.00 | 0.36 | 0.36 | 81 | 1004.9 |
| 20260506234912 | 19 | 0 | 0.0 | 8.0 | 0.00 | 0.36 | 0.36 | 81 | 1004.9 |
| 20260506234849 | 19 | 0 | 0.0 | 8.0 | 0.00 | 0.36 | 0.36 | 81 | 1004.9 |
| 20260506234749 | 19 | 0 | 0.0 | 8.0 | 0.00 | 0.36 | 0.36 | 81 | 1004.9 |
| 20260506234649 | 19 | 0 | 0.0 | 8.0 | 0.00 | 0.36 | 0.36 | 81 | 1004.9 |
| 20260506234635 | 19 | 0 | 0.0 | 8.0 | 0.00 | 0.36 | 0.36 | 81 | 1004.9 |
| 20260506234628 | 19 | 0 | 0.0 | 8.0 | 0.00 | 0.36 | 0.36 | 81 | 1004.8 |
| 20260506234520 | 19 | 360 | 0.0 | 8.0 | 0.00 | 0.36 | 0.36 | 81 | 1005.0 |
| 20260506234347 | 19 | 0 | 0.0 | 8.0 | 0.00 | 0.36 | 0.36 | 81 | 1004.9 |
| 20260506234247 | 19 | 0 | 0.0 | 8.0 | 0.00 | 0.36 | 0.36 | 81 | 1004.9 |
| 20260506234146 | 19 | 0 | 0.0 | 8.0 | 0.00 | 0.36 | 0.36 | 81 | 1005.0 |
| 20260506234133 | 19 | 0 | 0.0 | 1.6 | 0.00 | 0.36 | 0.36 | 81 | 1005.0 |
| 20260506234045 | 19 | 0 | 0.0 | 8.0 | 0.00 | 0.36 | 0.36 | 81 | 1005.0 |
| 20260506234020 | 19 | 360 | 0.0 | 3.2 | 0.00 | 0.36 | 0.36 | 81 | 1005.1 |
| 20260506233843 | 19 | 0 | 0.0 | 0.0 | 0.00 | 0.36 | 0.36 | 81 | 1005.0 |
| 20260506233744 | 19 | 0 | 0.0 | 0.0 | 0.00 | 0.36 | 0.36 | 81 | 1004.9 |
| 20260506233644 | 19 | 0 | 0.0 | 1.6 | 0.00 | 0.36 | 0.36 | 81 | 1004.9 |
| 20260506233543 | 19 | 0 | 0.0 | 1.6 | 0.00 | 0.36 | 0.36 | 81 | 1004.9 |
| 20260506233520 | 19 | 360 | 0.0 | 1.6 | 0.00 | 0.36 | 0.36 | 81 | 1005.0 |
| 20260506233502 | 19 | 0 | 0.0 | 1.6 | 0.00 | 0.36 | 0.36 | 81 | 1004.8 |
| 20260506233457 | 19 | 0 | 0.0 | 1.6 | 0.00 | 0.36 | 0.36 | 81 | 1004.9 |
| 20260506233449 | 19 | 0 | 0.0 | 1.6 | 0.00 | 0.36 | 0.36 | 81 | 1004.8 |
| 20260506233247 | 19 | 0 | 0.0 | 1.6 | 0.00 | 0.36 | 0.36 | 81 | 1004.9 |
| 20260506233243 | 19 | 0 | 0.0 | 1.6 | 0.00 | 0.36 | 0.36 | 81 | 1004.9 |
| 20260506233236 | 19 | 0 | 0.0 | 1.6 | 0.00 | 0.36 | 0.36 | 81 | 1004.8 |
| 20260506233232 | 19 | 0 | 0.0 | 1.6 | 0.00 | 0.36 | 0.36 | 81 | 1004.8 |
| 20260506233228 | 19 | 0 | 0.0 | 1.6 | 0.00 | 0.36 | 0.36 | 81 | 1004.8 |
| 20260506233222 | 19 | 0 | 0.0 | 1.6 | 0.00 | 0.36 | 0.36 | 81 | 1004.9 |
| 20260506233103 | 19 | 0 | 0.0 | 1.6 | 0.00 | 0.36 | 0.36 | 81 | 1004.8 |
| 20260506233020 | 19 | 360 | 0.0 | 1.6 | 0.00 | 0.36 | 0.36 | 81 | 1004.9 |
| 20260506232655 | 19 | 0 | 0.0 | 0.0 | 0.00 | 0.36 | 0.36 | 81 | 1004.8 |
| 20260506232650 | 19 | 0 | 0.0 | 0.0 | 0.00 | 0.36 | 0.36 | 81 | 1004.8 |
| 20260506232604 | 19 | 360 | 0.0 | 0.0 | 0.00 | 0.36 | 0.36 | 81 | 1004.9 |
| 20260506232438 | 19 | 0 | 0.0 | 0.0 | 0.00 | 0.36 | 0.36 | 81 | 1004.8 |
| 20260506232406 | 19 | 0 | 0.0 | 0.0 | 0.00 | 0.36 | 0.36 | 81 | 1004.8 |
| 20260506232338 | 19 | 0 | 0.0 | 0.0 | 0.00 | 0.36 | 0.36 | 81 | 1004.8 |
| 20260506232237 | 19 | 0 | 0.0 | 0.0 | 0.00 | 0.36 | 0.36 | 80 | 1004.8 |
| 20260506232137 | 19 | 0 | 0.0 | 0.0 | 0.00 | 0.36 | 0.36 | 80 | 1004.9 |
| 20260506232037 | 19 | 0 | 0.0 | 0.0 | 0.00 | 0.36 | 0.36 | 80 | 1004.9 |
| 20260506232035 | 19 | 360 | 0.0 | 0.0 | 0.00 | 0.36 | 0.36 | 80 | 1004.9 |
| 20260506231936 | 19 | 0 | 0.0 | 0.0 | 0.00 | 0.36 | 0.36 | 80 | 1004.9 |
| 20260506231906 | 19 | 0 | 0.0 | 0.0 | 0.00 | 0.36 | 0.36 | 80 | 1004.9 |
| 20260506231836 | 19 | 0 | 0.0 | 0.0 | 0.00 | 0.36 | 0.36 | 80 | 1004.9 |
| 20260506231816 | 19 | 0 | 0.0 | 0.0 | 0.00 | 0.36 | 0.36 | 80 | 1004.9 |
| 20260506231811 | 19 | 0 | 0.0 | 0.0 | 0.00 | 0.36 | 0.36 | 80 | 1004.9 |
| 20260506231807 | 19 | 0 | 0.0 | 0.0 | 0.00 | 0.36 | 0.36 | 80 | 1004.9 |
| 20260506231801 | 19 | 0 | 0.0 | 0.0 | 0.00 | 0.36 | 0.36 | 80 | 1004.9 |
| 20260506231520 | 20 | 360 | 0.0 | 0.0 | 0.00 | 0.36 | 0.36 | 80 | 1004.9 |
| 20260506231406 | 20 | 0 | 0.0 | 0.0 | 0.00 | 0.36 | 0.36 | 80 | 1004.9 |
| 20260506231333 | 20 | 0 | 0.0 | 0.0 | 0.00 | 0.36 | 0.36 | 80 | 1004.9 |
| 20260506231233 | 20 | 0 | 0.0 | 0.0 | 0.00 | 0.36 | 0.36 | 79 | 1004.9 |
| 20260506231132 | 20 | 0 | 0.0 | 0.0 | 0.00 | 0.36 | 0.36 | 79 | 1004.9 |
| 20260506231049 | 20 | 360 | 0.0 | 0.0 | 0.00 | 0.36 | 0.36 | 80 | 1004.8 |
| 20260506231031 | 20 | 0 | 0.0 | 0.0 | 0.00 | 0.36 | 0.36 | 80 | 1004.8 |
| 20260506230931 | 20 | 0 | 0.0 | 0.0 | 0.00 | 0.36 | 0.36 | 80 | 1004.8 |
| 20260506230905 | 20 | 0 | 0.0 | 0.0 | 0.00 | 0.36 | 0.36 | 79 | 1004.9 |
| 20260506230831 | 20 | 0 | 0.0 | 0.0 | 0.00 | 0.36 | 0.36 | 79 | 1004.9 |
| 20260506230731 | 20 | 0 | 0.0 | 0.0 | 0.00 | 0.36 | 0.36 | 79 | 1005.0 |
| 20260506230631 | 20 | 0 | 0.0 | 0.0 | 0.00 | 0.36 | 0.36 | 79 | 1005.0 |
| 20260506230611 | 20 | 0 | 0.0 | 0.0 | 0.00 | 0.36 | 0.36 | 79 | 1004.9 |
| 20260506230519 | 20 | 360 | 0.0 | 0.0 | 0.00 | 0.36 | 0.36 | 79 | 1005.0 |
| 20260506230459 | 20 | 0 | 0.0 | 0.0 | 0.00 | 0.36 | 0.36 | 79 | 1005.0 |
| 20260506230445 | 20 | 0 | 0.0 | 0.0 | 0.00 | 0.36 | 0.36 | 79 | 1005.0 |
| 20260506230134 | 20 | 0 | 0.0 | 0.0 | 0.00 | 0.36 | 0.36 | 79 | 1004.9 |
| 20260506230130 | 20 | 0 | 0.0 | 0.0 | 0.00 | 0.36 | 0.36 | 79 | 1004.9 |
| 20260506230123 | 20 | 0 | 0.0 | 0.0 | 0.00 | 0.36 | 0.36 | 79 | 1004.9 |
| 20260506230119 | 20 | 0 | 0.0 | 0.0 | 0.00 | 0.36 | 0.36 | 79 | 1004.9 |
| 20260506230114 | 20 | 0 | 0.0 | 0.0 | 0.00 | 0.36 | 0.36 | 79 | 1004.9 |
| 20260506230110 | 20 | 0 | 0.0 | 0.0 | 0.00 | 0.36 | 0.36 | 78 | 1004.9 |
| 20260506230105 | 20 | 0 | 0.0 | 4.8 | 0.00 | 0.36 | 0.36 | 78 | 1004.9 |
| 20260506230100 | 20 | 0 | 0.0 | 0.0 | 0.00 | 0.36 | 0.36 | 79 | 1005.0 |
| 20260506230050 | 20 | 0 | 0.0 | 0.0 | 0.00 | 0.36 | 0.36 | 79 | 1005.0 |
| 20260506230043 | 20 | 0 | 0.0 | 0.0 | 0.00 | 0.36 | 0.36 | 79 | 1004.9 |
| 20260506230019 | 20 | 360 | 0.0 | 0.0 | 0.00 | 0.36 | 0.36 | 79 | 1005.0 |
| 20260506225519 | 20 | 360 | 0.0 | 0.0 | 0.00 | 0.36 | 0.36 | 79 | 1004.9 |
| 20260506225451 | 20 | 0 | 0.0 | 4.8 | 0.00 | 0.36 | 0.36 | 78 | 1004.9 |
| 20260506225340 | 20 | 0 | 0.0 | 4.8 | 0.00 | 0.36 | 0.36 | 78 | 1004.9 |
| 20260506225037 | 20 | 0 | 0.0 | 4.8 | 0.00 | 0.36 | 0.36 | 78 | 1004.7 |
| 20260506225031 | 20 | 0 | 0.0 | 4.8 | 0.00 | 0.36 | 0.36 | 78 | 1004.8 |
| 20260506225019 | 20 | 360 | 0.0 | 4.8 | 0.00 | 0.36 | 0.36 | 78 | 1004.7 |
| 20260506224902 | 20 | 0 | 0.0 | 4.8 | 0.00 | 0.36 | 0.36 | 78 | 1004.7 |
| 20260506224837 | 20 | 0 | 0.0 | 4.8 | 0.00 | 0.36 | 0.36 | 78 | 1004.8 |
| 20260506224831 | 20 | 0 | 0.0 | 4.8 | 0.00 | 0.36 | 0.36 | 78 | 1004.7 |
| 20260506224622 | 20 | 0 | 0.0 | 4.8 | 0.00 | 0.36 | 0.36 | 78 | 1004.8 |
| 20260506224522 | 20 | 0 | 0.0 | 16.1 | 0.00 | 0.36 | 0.36 | 78 | 1004.8 |
| 20260506224520 | 20 | 360 | 0.0 | 16.1 | 0.00 | 0.36 | 0.36 | 78 | 1004.8 |
| 20260506224421 | 20 | 0 | 0.0 | 16.1 | 0.00 | 0.36 | 0.36 | 78 | 1004.8 |
| 20260506224400 | 20 | 0 | 0.0 | 16.1 | 0.00 | 0.36 | 0.36 | 78 | 1004.8 |
| 20260506224320 | 20 | 0 | 0.0 | 16.1 | 0.00 | 0.36 | 0.36 | 78 | 1004.8 |
| 20260506224220 | 20 | 0 | 0.0 | 16.1 | 0.00 | 0.36 | 0.36 | 78 | 1004.8 |
| 20260506224119 | 20 | 0 | 0.0 | 16.1 | 0.00 | 0.36 | 0.36 | 78 | 1004.8 |
| 20260506224050 | 20 | 360 | 0.0 | 16.1 | 0.00 | 0.36 | 0.36 | 77 | 1004.8 |
| 20260506224019 | 20 | 0 | 1.6 | 16.1 | 0.00 | 0.36 | 0.36 | 78 | 1004.7 |
| 20260506223918 | 20 | 0 | 1.6 | 16.1 | 0.00 | 0.36 | 0.36 | 78 | 1004.8 |
| 20260506223859 | 20 | 0 | 1.6 | 16.1 | 0.00 | 0.36 | 0.36 | 78 | 1004.7 |
| 20260506223818 | 20 | 215 | 1.6 | 16.1 | 0.00 | 0.36 | 0.36 | 78 | 1004.7 |
| 20260506223718 | 20 | 223 | 1.6 | 16.1 | 0.00 | 0.36 | 0.36 | 77 | 1004.7 |
| 20260506223618 | 20 | 240 | 1.6 | 16.1 | 0.00 | 0.36 | 0.36 | 77 | 1004.7 |
| 20260506223520 | 20 | 231 | 0.0 | 16.1 | 0.00 | 0.36 | 0.36 | 77 | 1004.8 |
| 20260506223517 | 20 | 230 | 1.6 | 16.1 | 0.00 | 0.36 | 0.36 | 77 | 1004.7 |
| 20260506223417 | 20 | 205 | 1.6 | 16.1 | 0.00 | 0.36 | 0.36 | 77 | 1004.8 |
| 20260506223357 | 20 | 218 | 3.2 | 16.1 | 0.00 | 0.36 | 0.36 | 77 | 1004.8 |
| 20260506223316 | 20 | 184 | 3.2 | 16.1 | 0.00 | 0.36 | 0.36 | 77 | 1004.8 |
| 20260506223216 | 20 | 205 | 3.2 | 16.1 | 0.00 | 0.36 | 0.36 | 77 | 1004.8 |
| 20260506223116 | 20 | 213 | 3.2 | 16.1 | 0.00 | 0.36 | 0.36 | 78 | 1004.7 |
| 20260506223050 | 20 | 223 | 0.0 | 12.9 | 0.00 | 0.36 | 0.36 | 78 | 1004.7 |
| 20260506223015 | 20 | 223 | 3.2 | 12.9 | 0.00 | 0.36 | 0.36 | 78 | 1004.7 |
| 20260506222914 | 20 | 210 | 3.2 | 12.9 | 0.00 | 0.36 | 0.36 | 79 | 1004.7 |
| 20260506222858 | 20 | 231 | 3.2 | 12.9 | 0.00 | 0.36 | 0.36 | 78 | 1004.7 |
| 20260506222813 | 20 | 193 | 3.2 | 12.9 | 0.00 | 0.36 | 0.36 | 78 | 1004.7 |
| 20260506222712 | 20 | 193 | 3.2 | 12.9 | 0.00 | 0.36 | 0.36 | 78 | 1004.6 |
| 20260506222611 | 20 | 223 | 3.2 | 12.9 | 0.00 | 0.36 | 0.36 | 78 | 1004.6 |
| 20260506222519 | 20 | 219 | 8.0 | 12.9 | 0.00 | 0.36 | 0.36 | 79 | 1004.5 |
| 20260506222511 | 20 | 219 | 3.2 | 12.9 | 0.00 | 0.36 | 0.36 | 79 | 1004.5 |
| 20260506222411 | 20 | 207 | 3.2 | 11.3 | 0.00 | 0.36 | 0.36 | 79 | 1004.5 |
| 20260506222358 | 20 | 182 | 3.2 | 11.3 | 0.00 | 0.36 | 0.36 | 79 | 1004.5 |
| 20260506222310 | 20 | 245 | 3.2 | 9.7 | 0.00 | 0.36 | 0.36 | 79 | 1004.5 |
| 20260506222209 | 20 | 206 | 3.2 | 9.7 | 0.00 | 0.36 | 0.36 | 79 | 1004.4 |
| 20260506222109 | 20 | 198 | 3.2 | 9.7 | 0.00 | 0.36 | 0.36 | 79 | 1004.4 |
| 20260506222020 | 20 | 360 | 0.0 | 9.7 | 0.00 | 0.36 | 0.36 | 79 | 1004.4 |
| 20260506222007 | 20 | 0 | 3.2 | 9.7 | 0.00 | 0.36 | 0.36 | 79 | 1004.4 |
| 20260506221907 | 20 | 0 | 3.2 | 9.7 | 0.00 | 0.36 | 0.36 | 79 | 1004.5 |
| 20260506221857 | 20 | 0 | 3.2 | 9.7 | 0.00 | 0.36 | 0.36 | 79 | 1004.5 |
| 20260506221806 | 20 | 0 | 4.8 | 9.7 | 0.00 | 0.36 | 0.36 | 79 | 1004.5 |
| 20260506221706 | 20 | 0 | 4.8 | 9.7 | 0.00 | 0.36 | 0.36 | 79 | 1004.5 |
| 20260506221606 | 20 | 0 | 4.8 | 9.7 | 0.00 | 0.36 | 0.36 | 79 | 1004.5 |
| 20260506221506 | 20 | 0 | 4.8 | 9.7 | 0.00 | 0.36 | 0.36 | 79 | 1004.4 |
| 20260506221405 | 20 | 0 | 3.2 | 9.7 | 0.00 | 0.36 | 0.36 | 79 | 1004.4 |
| 20260506221354 | 20 | 0 | 3.2 | 9.7 | 0.00 | 0.36 | 0.36 | 79 | 1004.4 |
| 20260506221305 | 20 | 0 | 3.2 | 8.0 | 0.00 | 0.36 | 0.36 | 79 | 1004.5 |
| 20260506221204 | 20 | 0 | 3.2 | 8.0 | 0.00 | 0.36 | 0.36 | 79 | 1004.5 |
| 20260506221103 | 20 | 0 | 3.2 | 8.0 | 0.00 | 0.36 | 0.36 | 79 | 1004.6 |
| 20260506221020 | 20 | 360 | 3.2 | 8.0 | 0.00 | 0.36 | 0.36 | 79 | 1004.6 |
| 20260506221004 | 20 | 0 | 3.2 | 8.0 | 0.00 | 0.36 | 0.36 | 79 | 1004.6 |
| 20260506220901 | 20 | 0 | 3.2 | 8.0 | 0.00 | 0.36 | 0.36 | 79 | 1004.6 |
| 20260506220853 | 20 | 0 | 3.2 | 8.0 | 0.00 | 0.36 | 0.36 | 79 | 1004.6 |
| 20260506220801 | 20 | 0 | 3.2 | 8.0 | 0.00 | 0.36 | 0.36 | 79 | 1004.6 |
| 20260506220715 | 20 | 0 | 3.2 | 8.0 | 0.00 | 0.36 | 0.36 | 80 | 1004.6 |
| 20260506220709 | 20 | 0 | 3.2 | 8.0 | 0.00 | 0.36 | 0.36 | 79 | 1004.6 |
| 20260506220520 | 20 | 360 | 1.6 | 8.0 | 0.00 | 0.36 | 0.36 | 80 | 1004.6 |
| 20260506220500 | 20 | 220 | 3.2 | 8.0 | 0.00 | 0.36 | 0.36 | 80 | 1004.6 |
| 20260506220418 | 20 | 0 | 4.8 | 12.9 | 0.00 | 0.36 | 0.36 | 80 | 1004.8 |
| 20260506220409 | 20 | 0 | 4.8 | 12.9 | 0.00 | 0.36 | 0.36 | 79 | 1004.8 |
| 20260506220404 | 20 | 226 | 3.2 | 12.9 | 0.00 | 0.36 | 0.36 | 80 | 1004.6 |
| 20260506220358 | 20 | 226 | 3.2 | 12.9 | 0.00 | 0.36 | 0.36 | 80 | 1004.6 |
| 20260506220350 | 20 | 232 | 4.8 | 12.9 | 0.00 | 0.36 | 0.36 | 80 | 1004.6 |
| 20260506220236 | 20 | 232 | 4.8 | 12.9 | 0.00 | 0.36 | 0.36 | 80 | 1004.7 |
| 20260506220118 | 20 | 0 | 4.8 | 12.9 | 0.00 | 0.36 | 0.36 | 80 | 1004.8 |
| 20260506220035 | 20 | 360 | 3.2 | 12.9 | 0.00 | 0.36 | 0.36 | 80 | 1004.8 |
| 20260506215711 | 20 | 0 | 4.8 | 16.1 | 0.00 | 0.36 | 0.36 | 79 | 1004.8 |
| 20260506215707 | 20 | 257 | 4.8 | 16.1 | 0.00 | 0.36 | 0.36 | 79 | 1004.7 |
| 20260506215701 | 20 | 254 | 4.8 | 16.1 | 0.00 | 0.36 | 0.36 | 79 | 1004.8 |
| 20260506215520 | 20 | 360 | 3.2 | 16.1 | 0.00 | 0.36 | 0.36 | 79 | 1004.7 |
| 20260506215507 | 20 | 0 | 4.8 | 16.1 | 0.00 | 0.36 | 0.36 | 79 | 1004.7 |
| 20260506215352 | 20 | 248 | 4.8 | 16.1 | 0.00 | 0.36 | 0.36 | 79 | 1004.7 |
| 20260506215250 | 20 | 220 | 3.2 | 16.1 | 0.00 | 0.36 | 0.36 | 80 | 1004.7 |
| 20260506215207 | 20 | 240 | 3.2 | 16.1 | 0.00 | 0.36 | 0.36 | 80 | 1004.5 |
| 20260506215202 | 20 | 211 | 3.2 | 16.1 | 0.00 | 0.36 | 0.36 | 80 | 1004.6 |
| 20260506215020 | 20 | 200 | 4.8 | 16.1 | 0.00 | 0.36 | 0.36 | 80 | 1004.5 |
| 20260506214950 | 20 | 200 | 3.2 | 16.1 | 0.00 | 0.36 | 0.36 | 80 | 1004.5 |
| 20260506214855 | 20 | 204 | 3.2 | 16.1 | 0.00 | 0.36 | 0.36 | 81 | 1004.6 |
| 20260506214850 | 20 | 206 | 3.2 | 16.1 | 0.00 | 0.36 | 0.36 | 81 | 1004.6 |
| 20260506214749 | 20 | 207 | 3.2 | 9.7 | 0.00 | 0.36 | 0.36 | 81 | 1004.5 |
| 20260506214649 | 20 | 209 | 3.2 | 12.9 | 0.00 | 0.36 | 0.36 | 80 | 1004.5 |
| 20260506214548 | 20 | 257 | 3.2 | 12.9 | 0.00 | 0.36 | 0.36 | 80 | 1004.5 |
| 20260506214520 | 20 | 257 | 1.6 | 12.9 | 0.00 | 0.36 | 0.36 | 81 | 1004.4 |
| 20260506214448 | 20 | 257 | 3.2 | 12.9 | 0.00 | 0.36 | 0.36 | 81 | 1004.4 |
| 20260506214347 | 20 | 256 | 3.2 | 12.9 | 0.00 | 0.36 | 0.36 | 81 | 1004.4 |
| 20260506214246 | 20 | 259 | 3.2 | 12.9 | 0.00 | 0.36 | 0.36 | 81 | 1004.4 |
| 20260506214146 | 20 | 210 | 3.2 | 12.9 | 0.00 | 0.36 | 0.36 | 81 | 1004.4 |
| 20260506214045 | 20 | 210 | 3.2 | 12.9 | 0.00 | 0.36 | 0.36 | 80 | 1004.4 |
| 20260506214019 | 20 | 211 | 3.2 | 12.9 | 0.00 | 0.36 | 0.36 | 80 | 1004.5 |
| 20260506213945 | 20 | 196 | 3.2 | 12.9 | 0.00 | 0.36 | 0.36 | 80 | 1004.5 |
| 20260506213852 | 19 | 211 | 3.2 | 12.9 | 0.00 | 0.36 | 0.36 | 80 | 1004.5 |
| 20260506213845 | 20 | 211 | 3.2 | 12.9 | 0.00 | 0.36 | 0.36 | 80 | 1004.5 |
| 20260506213744 | 19 | 230 | 3.2 | 12.9 | 0.00 | 0.36 | 0.36 | 81 | 1004.5 |
| 20260506213643 | 19 | 215 | 3.2 | 12.9 | 0.00 | 0.36 | 0.36 | 81 | 1004.5 |
| 20260506213543 | 19 | 202 | 3.2 | 8.0 | 0.00 | 0.36 | 0.36 | 81 | 1004.5 |
| 20260506213520 | 19 | 246 | 3.2 | 8.0 | 0.00 | 0.36 | 0.36 | 81 | 1004.5 |
| 20260506213443 | 19 | 240 | 3.2 | 8.0 | 0.00 | 0.36 | 0.36 | 81 | 1004.5 |
| 20260506213350 | 19 | 240 | 3.2 | 8.0 | 0.00 | 0.36 | 0.36 | 81 | 1004.4 |
| 20260506213342 | 19 | 0 | 3.2 | 8.0 | 0.00 | 0.36 | 0.36 | 81 | 1004.4 |
| 20260506213242 | 19 | 238 | 3.2 | 8.0 | 0.00 | 0.36 | 0.36 | 81 | 1004.4 |
| 20260506213142 | 19 | 0 | 3.2 | 8.0 | 0.00 | 0.36 | 0.36 | 82 | 1004.5 |
| 20260506213050 | 19 | 360 | 3.2 | 9.7 | 0.00 | 0.36 | 0.36 | 81 | 1004.5 |
| 20260506213040 | 19 | 0 | 3.2 | 9.7 | 0.00 | 0.36 | 0.36 | 81 | 1004.4 |
| 20260506213023 | 19 | 0 | 4.8 | 12.9 | 0.00 | 0.36 | 0.36 | 81 | 1004.3 |
| 20260506213019 | 19 | 227 | 3.2 | 12.9 | 0.00 | 0.36 | 0.36 | 82 | 1004.2 |
| 20260506213012 | 19 | 0 | 3.2 | 9.7 | 0.00 | 0.36 | 0.36 | 81 | 1004.5 |
| 20260506213004 | 19 | 0 | 3.2 | 12.9 | 0.00 | 0.36 | 0.36 | 81 | 1004.4 |
| 20260506212540 | 19 | 202 | 3.2 | 12.9 | 0.00 | 0.36 | 0.36 | 81 | 1004.1 |
| 20260506212520 | 19 | 202 | 4.8 | 12.9 | 0.00 | 0.36 | 0.36 | 81 | 1004.2 |
| 20260506212439 | 19 | 190 | 3.2 | 12.9 | 0.00 | 0.36 | 0.36 | 81 | 1004.1 |
| 20260506212350 | 19 | 216 | 3.2 | 12.9 | 0.00 | 0.36 | 0.36 | 82 | 1004.1 |
| 20260506212339 | 19 | 225 | 3.2 | 12.9 | 0.00 | 0.36 | 0.36 | 82 | 1004.1 |
| 20260506212238 | 19 | 0 | 3.2 | 12.9 | 0.00 | 0.36 | 0.36 | 82 | 1004.1 |
| 20260506212137 | 19 | 0 | 3.2 | 12.9 | 0.00 | 0.36 | 0.36 | 82 | 1004.1 |
| 20260506212037 | 19 | 0 | 3.2 | 12.9 | 0.00 | 0.36 | 0.36 | 82 | 1004.1 |
| 20260506212020 | 19 | 360 | 4.8 | 12.9 | 0.00 | 0.36 | 0.36 | 82 | 1004.1 |
| 20260506211937 | 19 | 0 | 3.2 | 12.9 | 0.00 | 0.36 | 0.36 | 82 | 1004.0 |
| 20260506211849 | 19 | 0 | 3.2 | 9.7 | 0.00 | 0.36 | 0.36 | 82 | 1004.1 |
| 20260506211836 | 19 | 0 | 3.2 | 9.7 | 0.00 | 0.36 | 0.36 | 82 | 1004.1 |
| 20260506211736 | 19 | 0 | 3.2 | 9.7 | 0.00 | 0.36 | 0.36 | 82 | 1004.1 |
| 20260506211636 | 18 | 0 | 3.2 | 9.7 | 0.00 | 0.36 | 0.36 | 82 | 1004.2 |
| 20260506211535 | 18 | 0 | 3.2 | 9.7 | 0.00 | 0.36 | 0.36 | 82 | 1004.2 |
| 20260506211519 | 18 | 360 | 3.2 | 9.7 | 0.00 | 0.36 | 0.36 | 82 | 1004.3 |
| 20260506211502 | 18 | 0 | 3.2 | 9.7 | 0.00 | 0.36 | 0.36 | 82 | 1004.2 |
| 20260506211343 | 18 | 0 | 3.2 | 9.7 | 0.00 | 0.36 | 0.36 | 82 | 1004.2 |
| 20260506211133 | 18 | 0 | 4.8 | 12.9 | 0.00 | 0.36 | 0.36 | 82 | 1004.2 |
| 20260506211033 | 18 | 0 | 4.8 | 12.9 | 0.00 | 0.36 | 0.36 | 82 | 1004.1 |
| 20260506211020 | 18 | 360 | 3.2 | 12.9 | 0.00 | 0.36 | 0.36 | 82 | 1004.3 |
| 20260506210932 | 18 | 0 | 4.8 | 12.9 | 0.00 | 0.36 | 0.36 | 82 | 1004.2 |
| 20260506210834 | 18 | 0 | 4.8 | 12.9 | 0.00 | 0.36 | 0.36 | 82 | 1004.2 |
| 20260506210733 | 18 | 0 | 4.8 | 12.9 | 0.00 | 0.36 | 0.36 | 82 | 1004.2 |
| 20260506210655 | 18 | 0 | 4.8 | 12.9 | 0.00 | 0.36 | 0.36 | 82 | 1004.2 |
| 20260506210542 | 18 | 0 | 4.8 | 12.9 | 0.00 | 0.36 | 0.36 | 82 | 1004.2 |
| 20260506210520 | 18 | 360 | 4.8 | 12.9 | 0.00 | 0.36 | 0.36 | 82 | 1004.3 |
| 20260506210332 | 18 | 0 | 4.8 | 12.9 | 0.00 | 0.36 | 0.36 | 82 | 1004.2 |
| 20260506210232 | 18 | 0 | 4.8 | 9.7 | 0.00 | 0.36 | 0.36 | 83 | 1004.2 |
| 20260506210213 | 18 | 0 | 4.8 | 9.7 | 0.00 | 0.36 | 0.36 | 83 | 1004.1 |
| 20260506210031 | 18 | 0 | 4.8 | 9.7 | 0.00 | 0.36 | 0.36 | 83 | 1004.1 |
| 20260506210020 | 18 | 360 | 4.8 | 9.7 | 0.00 | 0.36 | 0.36 | 83 | 1004.2 |
| 20260506205953 | 18 | 0 | 4.8 | 12.9 | 0.00 | 0.36 | 0.36 | 83 | 1004.1 |
| 20260506205828 | 18 | 0 | 4.8 | 12.9 | 0.00 | 0.36 | 0.36 | 83 | 1004.2 |
| 20260506205727 | 18 | 0 | 4.8 | 12.9 | 0.00 | 0.36 | 0.36 | 83 | 1004.2 |
| 20260506205706 | 18 | 0 | 4.8 | 12.9 | 0.00 | 0.36 | 0.36 | 83 | 1004.3 |
| 20260506205554 | 18 | 0 | 4.8 | 16.1 | 0.00 | 0.36 | 0.36 | 82 | 1004.3 |
| 20260506205549 | 18 | 0 | 4.8 | 16.1 | 0.00 | 0.36 | 0.36 | 83 | 1004.2 |
| 20260506205520 | 18 | 360 | 3.2 | 12.9 | 0.00 | 0.36 | 0.36 | 82 | 1004.4 |
| 20260506205431 | 18 | 0 | 4.8 | 16.1 | 0.00 | 0.36 | 0.36 | 82 | 1004.3 |
| 20260506205222 | 18 | 0 | 4.8 | 16.1 | 0.00 | 0.36 | 0.36 | 82 | 1004.4 |
| 20260506205135 | 18 | 0 | 4.8 | 16.1 | 0.00 | 0.36 | 0.36 | 82 | 1004.3 |
| 20260506205131 | 18 | 0 | 4.8 | 16.1 | 0.00 | 0.36 | 0.36 | 82 | 1004.3 |
| 20260506205020 | 18 | 360 | 4.8 | 12.9 | 0.00 | 0.36 | 0.36 | 82 | 1004.4 |
| 20260506204949 | 18 | 0 | 4.8 | 16.1 | 0.00 | 0.36 | 0.36 | 82 | 1004.3 |
| 20260506204940 | 18 | 0 | 4.8 | 16.1 | 0.00 | 0.36 | 0.36 | 82 | 1004.3 |
| 20260506204830 | 18 | 0 | 4.8 | 16.1 | 0.00 | 0.36 | 0.36 | 83 | 1004.3 |
| 20260506204621 | 18 | 0 | 4.8 | 16.1 | 0.00 | 0.36 | 0.36 | 83 | 1004.3 |
| 20260506204520 | 18 | 360 | 4.8 | 19.3 | 0.00 | 0.36 | 0.36 | 83 | 1004.3 |
| 20260506204437 | 18 | 0 | 6.4 | 19.3 | 0.00 | 0.36 | 0.36 | 83 | 1004.1 |
| 20260506204433 | 18 | 0 | 4.8 | 19.3 | 0.00 | 0.36 | 0.36 | 83 | 1004.2 |
| 20260506204424 | 18 | 0 | 6.4 | 19.3 | 0.00 | 0.36 | 0.36 | 83 | 1004.1 |
| 20260506204218 | 18 | 0 | 6.4 | 19.3 | 0.00 | 0.36 | 0.36 | 82 | 1004.1 |
| 20260506204118 | 18 | 0 | 6.4 | 19.3 | 0.00 | 0.36 | 0.36 | 82 | 1004.1 |
| 20260506204028 | 18 | 0 | 6.4 | 19.3 | 0.00 | 0.36 | 0.36 | 82 | 1004.2 |
| 20260506204024 | 18 | 0 | 6.4 | 19.3 | 0.00 | 0.36 | 0.36 | 82 | 1004.1 |
| 20260506204020 | 18 | 360 | 4.8 | 19.3 | 0.00 | 0.36 | 0.36 | 82 | 1004.3 |
| 20260506203842 | 18 | 0 | 6.4 | 19.3 | 0.00 | 0.36 | 0.36 | 82 | 1004.2 |
| 20260506203816 | 18 | 0 | 6.4 | 19.3 | 0.00 | 0.36 | 0.36 | 82 | 1004.2 |
| 20260506203716 | 18 | 0 | 4.8 | 19.3 | 0.00 | 0.36 | 0.36 | 82 | 1004.1 |
| 20260506203614 | 18 | 0 | 6.4 | 19.3 | 0.00 | 0.36 | 0.36 | 82 | 1004.0 |
| 20260506203520 | 18 | 360 | 6.4 | 16.1 | 0.00 | 0.36 | 0.36 | 82 | 1004.1 |
| 20260506203514 | 18 | 0 | 6.4 | 16.1 | 0.00 | 0.36 | 0.36 | 82 | 1004.0 |
| 20260506203414 | 18 | 0 | 6.4 | 17.7 | 0.00 | 0.36 | 0.36 | 83 | 1004.0 |
| 20260506203342 | 18 | 0 | 6.4 | 17.7 | 0.00 | 0.36 | 0.36 | 83 | 1004.1 |
| 20260506203315 | 18 | 0 | 6.4 | 17.7 | 0.00 | 0.36 | 0.36 | 83 | 1004.1 |
| 20260506203215 | 18 | 0 | 6.4 | 17.7 | 0.00 | 0.36 | 0.36 | 83 | 1004.1 |
| 20260506203113 | 18 | 0 | 6.4 | 17.7 | 0.00 | 0.36 | 0.36 | 84 | 1004.1 |
| 20260506203020 | 18 | 360 | 6.4 | 17.7 | 0.00 | 0.36 | 0.36 | 84 | 1004.2 |
| 20260506203013 | 18 | 0 | 6.4 | 17.7 | 0.00 | 0.36 | 0.36 | 84 | 1004.1 |
| 20260506202913 | 18 | 0 | 8.0 | 17.7 | 0.00 | 0.36 | 0.36 | 83 | 1004.0 |
| 20260506202839 | 18 | 0 | 8.0 | 17.7 | 0.00 | 0.36 | 0.36 | 83 | 1004.0 |
| 20260506202812 | 18 | 0 | 6.4 | 17.7 | 0.00 | 0.36 | 0.36 | 83 | 1004.1 |
| 20260506202713 | 18 | 0 | 6.4 | 17.7 | 0.00 | 0.36 | 0.36 | 83 | 1004.0 |
| 20260506202612 | 18 | 0 | 6.4 | 17.7 | 0.00 | 0.36 | 0.36 | 83 | 1003.9 |
| 20260506202519 | 18 | 360 | 8.0 | 17.7 | 0.00 | 0.36 | 0.36 | 84 | 1004.1 |
| 20260506202511 | 18 | 0 | 6.4 | 17.7 | 0.00 | 0.36 | 0.36 | 84 | 1004.0 |
| 20260506202412 | 18 | 0 | 6.4 | 17.7 | 0.00 | 0.36 | 0.36 | 83 | 1003.9 |
| 20260506202312 | 18 | 0 | 6.4 | 17.7 | 0.00 | 0.36 | 0.36 | 83 | 1003.9 |
| 20260506202211 | 18 | 0 | 6.4 | 17.7 | 0.00 | 0.36 | 0.36 | 84 | 1004.0 |
| 20260506202124 | 18 | 0 | 6.4 | 17.7 | 0.00 | 0.36 | 0.36 | 84 | 1004.0 |
| 20260506202120 | 18 | 0 | 6.4 | 17.7 | 0.00 | 0.36 | 0.36 | 83 | 1004.0 |
| 20260506202020 | 18 | 360 | 9.7 | 17.7 | 0.00 | 0.36 | 0.36 | 83 | 1004.1 |
| 20260506201910 | 18 | 0 | 6.4 | 14.5 | 0.00 | 0.36 | 0.36 | 84 | 1004.1 |
| 20260506201840 | 18 | 0 | 6.4 | 14.5 | 0.00 | 0.36 | 0.36 | 84 | 1004.1 |
| 20260506201810 | 18 | 0 | 6.4 | 14.5 | 0.00 | 0.36 | 0.36 | 84 | 1003.9 |
| 20260506201707 | 18 | 0 | 6.4 | 14.5 | 0.00 | 0.36 | 0.36 | 84 | 1004.0 |
| 20260506201620 | 18 | 0 | 6.4 | 16.1 | 0.00 | 0.36 | 0.36 | 84 | 1004.0 |
| 20260506201616 | 18 | 0 | 6.4 | 14.5 | 0.00 | 0.36 | 0.36 | 84 | 1003.9 |
| 20260506201520 | 18 | 360 | 0.0 | 16.1 | 0.00 | 0.36 | 0.36 | 84 | 1004.1 |
| 20260506201426 | 18 | 0 | 6.4 | 16.1 | 0.00 | 0.36 | 0.36 | 83 | 1004.1 |
| 20260506201420 | 18 | 0 | 6.4 | 16.1 | 0.00 | 0.36 | 0.36 | 84 | 1004.1 |
| 20260506201412 | 18 | 0 | 6.4 | 16.1 | 0.00 | 0.36 | 0.36 | 84 | 1004.1 |
| 20260506201205 | 18 | 0 | 4.8 | 16.1 | 0.00 | 0.36 | 0.36 | 84 | 1004.1 |
| 20260506201118 | 18 | 0 | 3.2 | 16.1 | 0.00 | 0.36 | 0.36 | 84 | 1004.2 |
| 20260506201114 | 18 | 0 | 4.8 | 16.1 | 0.00 | 0.36 | 0.36 | 84 | 1004.1 |
| 20260506201020 | 18 | 360 | 6.4 | 16.1 | 0.00 | 0.36 | 0.36 | 84 | 1004.3 |
| 20260506200903 | 18 | 0 | 3.2 | 16.1 | 0.00 | 0.36 | 0.36 | 84 | 1004.2 |
| 20260506200837 | 18 | 0 | 3.2 | 16.1 | 0.00 | 0.36 | 0.36 | 84 | 1004.2 |
| 20260506200803 | 18 | 0 | 3.2 | 16.1 | 0.00 | 0.36 | 0.36 | 84 | 1004.2 |
| 20260506200703 | 18 | 0 | 1.6 | 16.1 | 0.00 | 0.36 | 0.36 | 84 | 1004.2 |
| 20260506200603 | 18 | 0 | 1.6 | 16.1 | 0.00 | 0.36 | 0.36 | 84 | 1004.3 |
| 20260506200557 | 18 | 0 | 0.0 | 4.8 | 0.00 | 0.36 | 0.36 | 84 | 1004.3 |
| 20260506200553 | 18 | 0 | 1.6 | 8.0 | 0.00 | 0.36 | 0.36 | 84 | 1004.2 |
| 20260506200546 | 18 | 0 | 0.0 | 14.5 | 0.00 | 0.36 | 0.36 | 84 | 1004.3 |
| 20260506200520 | 18 | 360 | 16.1 | 16.1 | 0.00 | 0.36 | 0.36 | 84 | 1004.4 |
| 20260506200429 | 18 | 0 | 0.0 | 8.0 | 0.00 | 0.36 | 0.36 | 84 | 1004.3 |
| 20260506200318 | 18 | 0 | 1.6 | 8.0 | 0.00 | 0.36 | 0.36 | 84 | 1004.2 |
| 20260506200035 | 18 | 360 | 0.0 | 8.0 | 0.00 | 0.36 | 0.36 | 84 | 1004.5 |
| 20260506195959 | 18 | 0 | 3.2 | 8.0 | 0.00 | 0.36 | 0.36 | 84 | 1004.4 |
| 20260506195834 | 18 | 0 | 3.2 | 8.0 | 0.00 | 0.36 | 0.36 | 84 | 1004.3 |
| 20260506195758 | 18 | 0 | 3.2 | 8.0 | 0.00 | 0.36 | 0.36 | 84 | 1004.4 |
| 20260506195658 | 18 | 0 | 3.2 | 14.5 | 0.00 | 0.36 | 0.36 | 84 | 1004.4 |
| 20260506195605 | 18 | 0 | 4.8 | 16.1 | 0.00 | 0.36 | 0.36 | 84 | 1004.5 |
| 20260506195600 | 18 | 0 | 4.8 | 14.5 | 0.00 | 0.36 | 0.36 | 84 | 1004.4 |
| 20260506195551 | 18 | 0 | 4.8 | 14.5 | 0.00 | 0.36 | 0.36 | 84 | 1004.5 |
| 20260506195520 | 18 | 360 | 0.0 | 12.9 | 0.00 | 0.36 | 0.36 | 84 | 1004.6 |
| 20260506195256 | 18 | 0 | 4.8 | 16.1 | 0.00 | 0.36 | 0.36 | 84 | 1004.4 |
| 20260506195156 | 18 | 0 | 4.8 | 16.1 | 0.00 | 0.36 | 0.36 | 84 | 1004.5 |
| 20260506195055 | 18 | 0 | 4.8 | 16.1 | 0.00 | 0.36 | 0.36 | 84 | 1004.5 |
| 20260506195019 | 18 | 360 | 6.4 | 16.1 | 0.00 | 0.36 | 0.36 | 84 | 1004.5 |
| 20260506194955 | 18 | 0 | 4.8 | 16.1 | 0.00 | 0.36 | 0.36 | 84 | 1004.4 |
| 20260506194832 | 18 | 0 | 6.4 | 16.1 | 0.00 | 0.36 | 0.36 | 84 | 1004.4 |
| 20260506194754 | 18 | 0 | 6.4 | 16.1 | 0.00 | 0.36 | 0.36 | 84 | 1004.5 |
| 20260506194654 | 18 | 0 | 6.4 | 20.9 | 0.00 | 0.36 | 0.36 | 84 | 1004.4 |
| 20260506194551 | 18 | 0 | 6.4 | 20.9 | 0.00 | 0.36 | 0.36 | 84 | 1004.4 |
| 20260506194534 | 18 | 360 | 12.9 | 20.9 | 0.00 | 0.36 | 0.36 | 84 | 1004.5 |
| 20260506194523 | 18 | 0 | 4.8 | 20.9 | 0.00 | 0.36 | 0.36 | 85 | 1004.4 |
| 20260506194519 | 18 | 0 | 6.4 | 20.9 | 0.00 | 0.36 | 0.36 | 84 | 1004.4 |
| 20260506194514 | 18 | 0 | 6.4 | 20.9 | 0.00 | 0.36 | 0.36 | 84 | 1004.4 |
| 20260506194357 | 18 | 0 | 4.8 | 20.9 | 0.00 | 0.36 | 0.36 | 85 | 1004.4 |
| 20260506194149 | 18 | 0 | 6.4 | 20.9 | 0.00 | 0.36 | 0.36 | 85 | 1004.3 |
| 20260506194048 | 18 | 0 | 6.4 | 20.9 | 0.00 | 0.36 | 0.36 | 85 | 1004.4 |
| 20260506194020 | 18 | 360 | 4.8 | 20.9 | 0.00 | 0.36 | 0.36 | 85 | 1004.4 |
| 20260506193948 | 18 | 0 | 6.4 | 20.9 | 0.00 | 0.36 | 0.36 | 85 | 1004.3 |
| 20260506193848 | 18 | 0 | 4.8 | 20.9 | 0.00 | 0.36 | 0.36 | 85 | 1004.3 |
| 20260506193831 | 18 | 0 | 4.8 | 20.9 | 0.00 | 0.36 | 0.36 | 85 | 1004.3 |
| 20260506193747 | 17 | 0 | 4.8 | 20.9 | 0.00 | 0.36 | 0.36 | 85 | 1004.2 |
| 20260506193645 | 17 | 0 | 4.8 | 16.1 | 0.00 | 0.36 | 0.36 | 85 | 1004.3 |
| 20260506193542 | 17 | 0 | 4.8 | 16.1 | 0.00 | 0.36 | 0.36 | 85 | 1004.2 |
| 20260506193520 | 17 | 360 | 4.8 | 16.1 | 0.00 | 0.36 | 0.36 | 85 | 1004.3 |
| 20260506193440 | 17 | 0 | 3.2 | 12.9 | 0.00 | 0.36 | 0.36 | 85 | 1004.2 |
| 20260506193341 | 17 | 0 | 3.2 | 12.9 | 0.00 | 0.36 | 0.36 | 85 | 1004.3 |
| 20260506193329 | 17 | 0 | 3.2 | 12.9 | 0.00 | 0.36 | 0.36 | 85 | 1004.3 |
| 20260506193240 | 17 | 0 | 3.2 | 20.9 | 0.00 | 0.36 | 0.36 | 85 | 1004.4 |
| 20260506193140 | 17 | 0 | 4.8 | 20.9 | 0.00 | 0.36 | 0.36 | 86 | 1004.3 |
| 20260506193057 | 17 | 0 | 4.8 | 20.9 | 0.00 | 0.36 | 0.36 | 86 | 1004.5 |
| 20260506193041 | 17 | 0 | 4.8 | 20.9 | 0.00 | 0.36 | 0.36 | 86 | 1004.4 |
| 20260506193020 | 17 | 360 | 1.6 | 20.9 | 0.00 | 0.36 | 0.36 | 86 | 1004.6 |
| 20260506192947 | 17 | 0 | 4.8 | 20.9 | 0.00 | 0.36 | 0.36 | 86 | 1004.5 |
| 20260506192938 | 17 | 0 | 4.8 | 20.9 | 0.00 | 0.36 | 0.36 | 86 | 1004.5 |
| 20260506192739 | 17 | 0 | 4.8 | 20.9 | 0.00 | 0.36 | 0.36 | 86 | 1004.5 |
| 20260506192639 | 17 | 0 | 6.4 | 20.9 | 0.00 | 0.36 | 0.36 | 86 | 1004.5 |
| 20260506192550 | 17 | 0 | 8.0 | 22.5 | 0.00 | 0.36 | 0.36 | 86 | 1004.5 |
| 20260506192546 | 17 | 0 | 8.0 | 22.5 | 0.00 | 0.36 | 0.36 | 86 | 1004.5 |
| 20260506192520 | 17 | 360 | 0.0 | 22.5 | 0.00 | 0.36 | 0.36 | 86 | 1004.6 |
| 20260506192330 | 17 | 0 | 8.0 | 22.5 | 0.00 | 0.36 | 0.36 | 86 | 1004.4 |
| 20260506192236 | 17 | 0 | 8.0 | 22.5 | 0.00 | 0.36 | 0.36 | 86 | 1004.4 |
| 20260506192137 | 17 | 0 | 8.0 | 22.5 | 0.00 | 0.36 | 0.36 | 86 | 1004.4 |
| 20260506192104 | 17 | 0 | 8.0 | 22.5 | 0.00 | 0.36 | 0.36 | 86 | 1004.5 |
| 20260506192059 | 17 | 0 | 8.0 | 22.5 | 0.00 | 0.36 | 0.36 | 86 | 1004.4 |
| 20260506192054 | 17 | 0 | 8.0 | 22.5 | 0.00 | 0.36 | 0.36 | 86 | 1004.4 |
| 20260506192019 | 17 | 360 | 1.6 | 22.5 | 0.00 | 0.36 | 0.36 | 86 | 1004.5 |
| 20260506191936 | 17 | 0 | 8.0 | 22.5 | 0.00 | 0.36 | 0.36 | 86 | 1004.5 |
| 20260506191752 | 17 | 0 | 6.4 | 22.5 | 0.00 | 0.36 | 0.36 | 86 | 1004.5 |
| 20260506191748 | 17 | 0 | 8.0 | 22.5 | 0.00 | 0.36 | 0.36 | 85 | 1004.4 |
| 20260506191635 | 17 | 0 | 8.0 | 22.5 | 0.00 | 0.36 | 0.36 | 85 | 1004.5 |
| 20260506191628 | 17 | 0 | 6.4 | 22.5 | 0.00 | 0.36 | 0.36 | 87 | 1004.6 |
| 20260506191623 | 17 | 0 | 6.4 | 22.5 | 0.00 | 0.36 | 0.36 | 87 | 1004.7 |
| 20260506191617 | 17 | 0 | 6.4 | 22.5 | 0.00 | 0.36 | 0.36 | 86 | 1004.5 |
| 20260506191608 | 17 | 0 | 6.4 | 22.5 | 0.00 | 0.36 | 0.36 | 86 | 1004.5 |
| 20260506191520 | 17 | 360 | 8.0 | 19.3 | 0.00 | 0.36 | 0.36 | 86 | 1004.6 |
| 20260506191034 | 17 | 0 | 6.4 | 22.5 | 0.00 | 0.36 | 0.36 | 87 | 1004.6 |
| 20260506191020 | 17 | 360 | 14.5 | 17.7 | 0.00 | 0.36 | 0.36 | 87 | 1004.6 |
| 20260506190946 | 17 | 0 | 6.4 | 22.5 | 0.00 | 0.36 | 0.36 | 86 | 1004.5 |
| 20260506190942 | 17 | 0 | 6.4 | 22.5 | 0.00 | 0.36 | 0.36 | 87 | 1004.5 |
| 20260506190826 | 17 | 0 | 6.4 | 22.5 | 0.00 | 0.36 | 0.36 | 86 | 1004.5 |
| 20260506190803 | 17 | 0 | 6.4 | 22.5 | 0.00 | 0.36 | 0.36 | 87 | 1004.7 |
| 20260506190759 | 17 | 0 | 6.4 | 17.7 | 0.00 | 0.36 | 0.36 | 87 | 1004.6 |
| 20260506190755 | 17 | 0 | 6.4 | 20.9 | 0.00 | 0.36 | 0.36 | 87 | 1004.7 |
| 20260506190750 | 17 | 0 | 6.4 | 22.5 | 0.00 | 0.36 | 0.36 | 86 | 1004.6 |
| 20260506190520 | 17 | 360 | 6.4 | 17.7 | 0.00 | 0.36 | 0.36 | 87 | 1004.8 |
| 20260506190439 | 17 | 0 | 6.4 | 17.7 | 0.00 | 0.36 | 0.36 | 87 | 1004.7 |
| 20260506190430 | 17 | 0 | 6.4 | 20.9 | 0.00 | 0.36 | 0.36 | 87 | 1004.7 |
| 20260506190230 | 17 | 0 | 6.4 | 20.9 | 0.00 | 0.36 | 0.36 | 87 | 1004.7 |
| 20260506190143 | 17 | 0 | 6.4 | 20.9 | 0.00 | 0.36 | 0.36 | 87 | 1004.6 |
| 20260506190139 | 17 | 0 | 6.4 | 20.9 | 0.00 | 0.36 | 0.36 | 87 | 1004.7 |
| 20260506190105 | 17 | 360 | 4.8 | 17.7 | 0.00 | 0.36 | 0.36 | 87 | 1004.6 |
| 20260506185929 | 17 | 0 | 6.4 | 20.9 | 0.00 | 0.36 | 0.36 | 87 | 1004.5 |
| 20260506185823 | 17 | 0 | 6.4 | 20.9 | 0.00 | 0.36 | 0.36 | 87 | 1004.5 |
| 20260506185728 | 17 | 0 | 6.4 | 20.9 | 0.00 | 0.36 | 0.36 | 87 | 1004.6 |
| 20260506185628 | 17 | 0 | 6.4 | 20.9 | 0.00 | 0.36 | 0.36 | 88 | 1004.6 |
| 20260506185526 | 17 | 0 | 6.4 | 20.9 | 0.00 | 0.36 | 0.36 | 88 | 1004.7 |
| 20260506185519 | 17 | 360 | 0.0 | 17.7 | 0.00 | 0.36 | 0.36 | 88 | 1004.9 |
| 20260506185452 | 17 | 0 | 6.4 | 17.7 | 0.00 | 0.36 | 0.36 | 88 | 1004.8 |
| 20260506185338 | 17 | 0 | 4.8 | 17.7 | 0.00 | 0.36 | 0.36 | 88 | 1004.8 |
| 20260506185334 | 17 | 0 | 4.8 | 17.7 | 0.00 | 0.36 | 0.36 | 88 | 1004.8 |
| 20260506185123 | 17 | 0 | 6.4 | 17.7 | 0.00 | 0.36 | 0.36 | 88 | 1004.8 |
| 20260506185035 | 17 | 360 | 6.4 | 17.7 | 0.00 | 0.36 | 0.36 | 88 | 1004.9 |
| 20260506185021 | 17 | 0 | 6.4 | 17.7 | 0.00 | 0.36 | 0.36 | 88 | 1004.8 |
| 20260506184919 | 17 | 0 | 6.4 | 17.7 | 0.00 | 0.36 | 0.36 | 88 | 1004.8 |
| 20260506184822 | 17 | 0 | 6.4 | 17.7 | 0.00 | 0.36 | 0.36 | 88 | 1004.8 |
| 20260506184817 | 17 | 0 | 6.4 | 17.7 | 0.00 | 0.36 | 0.36 | 88 | 1004.8 |
| 20260506184716 | 17 | 0 | 6.4 | 14.5 | 0.00 | 0.36 | 0.36 | 88 | 1004.9 |
| 20260506184616 | 17 | 0 | 6.4 | 16.1 | 0.00 | 0.36 | 0.36 | 88 | 1004.8 |
| 20260506184519 | 17 | 360 | 3.2 | 16.1 | 0.00 | 0.36 | 0.36 | 88 | 1005.0 |
| 20260506184516 | 17 | 0 | 8.0 | 16.1 | 0.00 | 0.36 | 0.36 | 88 | 1004.9 |
| 20260506184414 | 16 | 0 | 8.0 | 20.9 | 0.00 | 0.36 | 0.36 | 88 | 1004.9 |
| 20260506184314 | 16 | 0 | 8.0 | 20.9 | 0.00 | 0.36 | 0.36 | 88 | 1004.9 |
| 20260506184214 | 16 | 0 | 8.0 | 20.9 | 0.00 | 0.36 | 0.36 | 88 | 1004.9 |
| 20260506184113 | 16 | 0 | 8.0 | 20.9 | 0.00 | 0.36 | 0.36 | 88 | 1005.0 |
| 20260506184021 | 17 | 360 | 8.0 | 20.9 | 0.00 | 0.36 | 0.36 | 88 | 1005.0 |
| 20260506184013 | 16 | 0 | 8.0 | 20.9 | 0.00 | 0.36 | 0.36 | 88 | 1004.9 |
| 20260506183912 | 16 | 0 | 6.4 | 20.9 | 0.00 | 0.36 | 0.36 | 88 | 1005.0 |
| 20260506183838 | 16 | 0 | 6.4 | 20.9 | 0.00 | 0.36 | 0.36 | 88 | 1005.0 |
| 20260506183832 | 16 | 0 | 8.0 | 20.9 | 0.00 | 0.36 | 0.36 | 88 | 1005.0 |
| 20260506183719 | 16 | 0 | 6.4 | 20.9 | 0.00 | 0.36 | 0.36 | 88 | 1005.0 |
| 20260506183535 | 17 | 360 | 8.0 | 22.5 | 0.00 | 0.36 | 0.36 | 88 | 1005.1 |
| 20260506183509 | 17 | 0 | 6.4 | 22.5 | 0.00 | 0.36 | 0.36 | 88 | 1005.0 |
| 20260506183408 | 17 | 0 | 6.4 | 22.5 | 0.00 | 0.36 | 0.36 | 88 | 1005.0 |
| 20260506183307 | 17 | 0 | 6.4 | 22.5 | 0.00 | 0.36 | 0.36 | 88 | 1005.0 |
| 20260506183207 | 17 | 0 | 6.4 | 22.5 | 0.00 | 0.36 | 0.36 | 89 | 1005.0 |
| 20260506183153 | 17 | 0 | 8.0 | 22.5 | 0.00 | 0.36 | 0.36 | 88 | 1005.0 |
| 20260506183149 | 17 | 0 | 8.0 | 27.4 | 0.00 | 0.36 | 0.36 | 88 | 1005.0 |
| 20260506183145 | 17 | 0 | 8.0 | 27.4 | 0.00 | 0.36 | 0.36 | 88 | 1004.9 |
| 20260506183139 | 17 | 0 | 6.4 | 22.5 | 0.00 | 0.36 | 0.36 | 89 | 1005.0 |
| 20260506183120 | 17 | 360 | 3.2 | 22.5 | 0.00 | 0.36 | 0.36 | 88 | 1005.1 |
| 20260506183021 | 17 | 0 | 8.0 | 27.4 | 0.00 | 0.36 | 0.36 | 88 | 1005.0 |
| 20260506182706 | 17 | 0 | 8.0 | 27.4 | 0.00 | 0.36 | 0.36 | 88 | 1004.9 |
| 20260506182604 | 17 | 0 | 8.0 | 27.4 | 0.00 | 0.36 | 0.36 | 88 | 1005.0 |
| 20260506182543 | 17 | 0 | 8.0 | 27.4 | 0.00 | 0.36 | 0.36 | 88 | 1004.9 |
| 20260506182520 | 17 | 360 | 8.0 | 27.4 | 0.00 | 0.36 | 0.36 | 88 | 1005.1 |
| 20260506182504 | 17 | 0 | 8.0 | 27.4 | 0.00 | 0.36 | 0.36 | 88 | 1005.0 |
| 20260506182427 | 17 | 0 | 8.0 | 27.4 | 0.00 | 0.36 | 0.36 | 88 | 1004.9 |
| 20260506182306 | 17 | 0 | 8.0 | 27.4 | 0.00 | 0.36 | 0.36 | 88 | 1004.9 |
| 20260506182203 | 17 | 0 | 8.0 | 27.4 | 0.00 | 0.36 | 0.36 | 88 | 1004.8 |
| 20260506182102 | 17 | 0 | 8.0 | 27.4 | 0.00 | 0.36 | 0.36 | 88 | 1004.9 |
| 20260506182020 | 17 | 360 | 6.4 | 27.4 | 0.00 | 0.36 | 0.36 | 88 | 1005.1 |
| 20260506182001 | 17 | 0 | 6.4 | 27.4 | 0.00 | 0.36 | 0.36 | 88 | 1005.0 |
| 20260506181901 | 17 | 0 | 6.4 | 27.4 | 0.00 | 0.36 | 0.36 | 88 | 1005.0 |
| 20260506181819 | 17 | 0 | 6.4 | 27.4 | 0.00 | 0.36 | 0.36 | 88 | 1005.0 |
| 20260506181800 | 17 | 0 | 8.0 | 27.4 | 0.00 | 0.36 | 0.36 | 88 | 1004.9 |
| 20260506181700 | 17 | 0 | 8.0 | 27.4 | 0.00 | 0.36 | 0.36 | 88 | 1004.8 |
| 20260506181600 | 17 | 0 | 8.0 | 22.5 | 0.00 | 0.36 | 0.36 | 88 | 1004.8 |
| 20260506181520 | 17 | 360 | 8.0 | 22.5 | 0.00 | 0.36 | 0.36 | 88 | 1005.1 |
| 20260506181458 | 17 | 0 | 8.0 | 22.5 | 0.00 | 0.36 | 0.36 | 88 | 1005.0 |
| 20260506181358 | 17 | 0 | 8.0 | 22.5 | 0.00 | 0.36 | 0.36 | 87 | 1004.9 |
| 20260506181318 | 17 | 0 | 8.0 | 22.5 | 0.00 | 0.36 | 0.36 | 87 | 1004.9 |
| 20260506181310 | 17 | 0 | 8.0 | 22.5 | 0.00 | 0.36 | 0.36 | 87 | 1005.0 |
| 20260506181306 | 17 | 0 | 8.0 | 22.5 | 0.00 | 0.36 | 0.36 | 87 | 1004.9 |
| 20260506181057 | 17 | 0 | 8.0 | 22.5 | 0.00 | 0.36 | 0.36 | 87 | 1004.9 |
| 20260506181020 | 17 | 360 | 4.8 | 22.5 | 0.00 | 0.36 | 0.36 | 87 | 1005.0 |
| 20260506180956 | 17 | 0 | 9.7 | 24.1 | 0.00 | 0.36 | 0.36 | 87 | 1004.9 |
| 20260506180854 | 17 | 0 | 9.7 | 25.7 | 0.00 | 0.36 | 0.36 | 87 | 1004.9 |
| 20260506180818 | 17 | 0 | 9.7 | 25.7 | 0.00 | 0.36 | 0.36 | 87 | 1004.9 |
| 20260506180753 | 17 | 0 | 9.7 | 25.7 | 0.00 | 0.36 | 0.36 | 87 | 1004.9 |
| 20260506180652 | 17 | 0 | 8.0 | 25.7 | 0.00 | 0.36 | 0.36 | 87 | 1004.9 |
| 20260506180552 | 17 | 0 | 8.0 | 25.7 | 0.00 | 0.36 | 0.36 | 87 | 1004.9 |
| 20260506180520 | 17 | 360 | 4.8 | 25.7 | 0.00 | 0.36 | 0.36 | 87 | 1005.0 |
| 20260506180451 | 17 | 0 | 6.4 | 25.7 | 0.00 | 0.36 | 0.36 | 87 | 1004.9 |
| 20260506180350 | 16 | 0 | 8.0 | 27.4 | 0.00 | 0.36 | 0.36 | 87 | 1005.0 |
| 20260506180317 | 16 | 0 | 8.0 | 27.4 | 0.00 | 0.36 | 0.36 | 87 | 1005.0 |
| 20260506180249 | 16 | 0 | 8.0 | 27.4 | 0.00 | 0.36 | 0.36 | 87 | 1005.0 |
| 20260506180149 | 16 | 0 | 8.0 | 27.4 | 0.00 | 0.36 | 0.36 | 87 | 1005.0 |
| 20260506180101 | 16 | 0 | 6.4 | 27.4 | 0.00 | 0.36 | 0.36 | 88 | 1005.0 |
| 20260506180056 | 16 | 0 | 8.0 | 27.4 | 0.00 | 0.36 | 0.36 | 87 | 1004.8 |
| 20260506180035 | 17 | 360 | 22.5 | 25.7 | 0.00 | 0.36 | 0.36 | 87 | 1005.1 |
| 20260506175846 | 16 | 0 | 6.4 | 27.4 | 0.00 | 0.36 | 0.36 | 88 | 1005.0 |
| 20260506175816 | 16 | 0 | 6.4 | 27.4 | 0.00 | 0.36 | 0.36 | 88 | 1005.0 |
| 20260506175745 | 16 | 0 | 8.0 | 27.4 | 0.00 | 0.36 | 0.36 | 88 | 1005.0 |
| 20260506175645 | 16 | 0 | 8.0 | 27.4 | 0.00 | 0.36 | 0.36 | 88 | 1005.0 |
| 20260506175544 | 16 | 0 | 9.7 | 27.4 | 0.00 | 0.36 | 0.36 | 88 | 1005.0 |
| 20260506175535 | 16 | 360 | 6.4 | 24.1 | 0.00 | 0.36 | 0.36 | 88 | 1005.1 |
| 20260506175443 | 16 | 0 | 9.7 | 27.4 | 0.00 | 0.36 | 0.36 | 88 | 1005.0 |
| 20260506175343 | 16 | 0 | 8.0 | 24.1 | 0.00 | 0.36 | 0.36 | 88 | 1005.1 |
| 20260506175316 | 16 | 0 | 8.0 | 24.1 | 0.00 | 0.36 | 0.36 | 88 | 1005.1 |
| 20260506175242 | 16 | 0 | 9.7 | 24.1 | 0.00 | 0.36 | 0.36 | 88 | 1005.2 |
| 20260506175155 | 16 | 0 | 8.0 | 24.1 | 0.00 | 0.36 | 0.36 | 88 | 1005.2 |
| 20260506175151 | 16 | 0 | 9.7 | 24.1 | 0.00 | 0.36 | 0.36 | 88 | 1005.1 |
| 20260506175035 | 16 | 360 | 8.0 | 22.5 | 0.00 | 0.36 | 0.36 | 88 | 1005.2 |
| 20260506174940 | 16 | 0 | 8.0 | 22.5 | 0.00 | 0.36 | 0.36 | 88 | 1005.1 |
| 20260506174906 | 16 | 0 | 8.0 | 22.5 | 0.00 | 0.36 | 0.36 | 88 | 1005.2 |
| 20260506174858 | 16 | 0 | 8.0 | 22.5 | 0.00 | 0.36 | 0.36 | 88 | 1005.2 |
| 20260506174747 | 16 | 0 | 8.0 | 22.5 | 0.00 | 0.36 | 0.36 | 88 | 1005.2 |
| 20260506174538 | 16 | 0 | 8.0 | 20.9 | 0.00 | 0.36 | 0.36 | 88 | 1005.0 |
| 20260506174519 | 16 | 360 | 4.8 | 20.9 | 0.00 | 0.36 | 0.36 | 88 | 1005.1 |
| 20260506174439 | 16 | 0 | 8.0 | 20.9 | 0.00 | 0.36 | 0.36 | 88 | 1005.0 |
| 20260506174338 | 16 | 0 | 8.0 | 20.9 | 0.00 | 0.36 | 0.36 | 89 | 1005.1 |
| 20260506174316 | 16 | 0 | 8.0 | 20.9 | 0.00 | 0.36 | 0.36 | 89 | 1005.1 |
| 20260506174237 | 16 | 0 | 8.0 | 20.9 | 0.00 | 0.36 | 0.36 | 89 | 1005.1 |
| 20260506174150 | 16 | 0 | 8.0 | 19.3 | 0.00 | 0.36 | 0.36 | 89 | 1005.2 |
| 20260506174145 | 16 | 0 | 8.0 | 19.3 | 0.00 | 0.36 | 0.36 | 89 | 1005.4 |
| 20260506174020 | 16 | 360 | 4.8 | 19.3 | 0.00 | 0.36 | 0.36 | 88 | 1005.2 |
| 20260506173936 | 16 | 0 | 8.0 | 19.3 | 0.00 | 0.36 | 0.36 | 88 | 1005.1 |
| 20260506173835 | 16 | 0 | 8.0 | 19.3 | 0.00 | 0.36 | 0.36 | 89 | 1005.2 |
| 20260506173814 | 16 | 0 | 8.0 | 19.3 | 0.00 | 0.36 | 0.36 | 89 | 1005.2 |
| 20260506173735 | 16 | 0 | 8.0 | 20.9 | 0.00 | 0.36 | 0.36 | 89 | 1005.2 |
| 20260506173633 | 16 | 0 | 8.0 | 20.9 | 0.00 | 0.36 | 0.36 | 89 | 1005.2 |
| 20260506173533 | 16 | 0 | 8.0 | 20.9 | 0.00 | 0.36 | 0.36 | 89 | 1005.1 |
| 20260506173520 | 16 | 360 | 8.0 | 20.9 | 0.00 | 0.36 | 0.36 | 89 | 1005.1 |
| 20260506173433 | 16 | 0 | 8.0 | 20.9 | 0.00 | 0.36 | 0.36 | 89 | 1005.0 |
| 20260506173313 | 16 | 0 | 6.4 | 20.9 | 0.00 | 0.36 | 0.36 | 90 | 1005.0 |
| 20260506173232 | 16 | 0 | 6.4 | 20.9 | 0.00 | 0.36 | 0.36 | 90 | 1005.0 |
| 20260506173132 | 16 | 0 | 8.0 | 20.9 | 0.00 | 0.36 | 0.36 | 90 | 1005.0 |
| 20260506173031 | 16 | 0 | 8.0 | 20.9 | 0.00 | 0.36 | 0.36 | 89 | 1004.9 |
| 20260506173020 | 16 | 360 | 3.2 | 20.9 | 0.00 | 0.36 | 0.36 | 89 | 1005.0 |
| 20260506172931 | 16 | 0 | 8.0 | 20.9 | 0.00 | 0.36 | 0.36 | 89 | 1004.9 |
| 20260506172813 | 16 | 0 | 8.0 | 20.9 | 0.00 | 0.36 | 0.36 | 89 | 1004.9 |
| 20260506172729 | 16 | 0 | 8.0 | 20.9 | 0.00 | 0.36 | 0.36 | 89 | 1004.9 |
| 20260506172629 | 16 | 0 | 8.0 | 20.9 | 0.00 | 0.36 | 0.36 | 90 | 1005.0 |
| 20260506172526 | 16 | 0 | 8.0 | 20.9 | 0.00 | 0.36 | 0.36 | 90 | 1005.0 |
| 20260506172520 | 16 | 360 | 3.2 | 20.9 | 0.00 | 0.36 | 0.36 | 90 | 1005.2 |
| 20260506172425 | 16 | 0 | 9.7 | 20.9 | 0.00 | 0.36 | 0.36 | 90 | 1005.1 |
| 20260506172319 | 16 | 0 | 8.0 | 19.3 | 0.00 | 0.36 | 0.36 | 90 | 1005.2 |
| 20260506172314 | 16 | 0 | 9.7 | 20.9 | 0.00 | 0.36 | 0.36 | 90 | 1005.1 |
| 20260506172307 | 16 | 0 | 9.7 | 20.9 | 0.00 | 0.36 | 0.36 | 90 | 1005.2 |
| 20260506172050 | 16 | 360 | 9.7 | 19.3 | 0.00 | 0.36 | 0.36 | 90 | 1005.4 |
| 20260506172024 | 16 | 0 | 8.0 | 19.3 | 0.00 | 0.36 | 0.36 | 90 | 1005.4 |
| 20260506171952 | 16 | 0 | 9.7 | 19.3 | 0.00 | 0.36 | 0.36 | 90 | 1005.5 |
| 20260506171946 | 16 | 0 | 8.0 | 19.3 | 0.00 | 0.36 | 0.36 | 90 | 1005.4 |
| 20260506171937 | 16 | 0 | 9.7 | 19.3 | 0.00 | 0.36 | 0.36 | 90 | 1005.5 |
| 20260506171643 | 16 | 0 | 9.7 | 20.9 | 0.00 | 0.36 | 0.36 | 90 | 1005.6 |
| 20260506171521 | 16 | 0 | 9.7 | 20.9 | 0.00 | 0.36 | 0.36 | 90 | 1005.7 |
| 20260506171428 | 16 | 0 | 8.0 | 20.9 | 0.03 | 0.36 | 0.36 | 90 | 1005.7 |
| 20260506171419 | 16 | 0 | 9.7 | 20.9 | 0.03 | 0.36 | 0.36 | 90 | 1005.7 |
| 20260506171220 | 16 | 0 | 9.7 | 20.9 | 0.03 | 0.36 | 0.36 | 90 | 1005.6 |
| 20260506171119 | 16 | 0 | 9.7 | 20.9 | 0.03 | 0.36 | 0.36 | 90 | 1005.6 |
| 20260506171032 | 16 | 0 | 8.0 | 20.9 | 0.03 | 0.36 | 0.36 | 90 | 1005.5 |
| 20260506171028 | 16 | 0 | 8.0 | 20.9 | 0.03 | 0.36 | 0.36 | 90 | 1005.6 |
| 20260506171020 | 16 | 360 | 14.5 | 20.9 | 0.03 | 0.36 | 0.36 | 90 | 1005.5 |
| 20260506170814 | 16 | 0 | 6.4 | 20.9 | 0.03 | 0.36 | 0.36 | 90 | 1005.5 |
| 20260506170717 | 16 | 0 | 6.4 | 20.9 | 0.03 | 0.36 | 0.36 | 90 | 1005.5 |
| 20260506170616 | 16 | 0 | 6.4 | 20.9 | 0.03 | 0.36 | 0.36 | 90 | 1005.4 |
| 20260506170521 | 16 | 0 | 8.0 | 32.2 | 0.03 | 0.36 | 0.36 | 90 | 1005.4 |
| 20260506170415 | 16 | 0 | 8.0 | 32.2 | 0.03 | 0.36 | 0.36 | 90 | 1005.4 |
| 20260506170316 | 16 | 0 | 6.4 | 32.2 | 0.03 | 0.36 | 0.36 | 91 | 1005.4 |
| 20260506170214 | 16 | 0 | 6.4 | 32.2 | 0.03 | 0.36 | 0.36 | 91 | 1005.4 |
| 20260506170114 | 16 | 0 | 8.0 | 32.2 | 0.03 | 0.36 | 0.36 | 91 | 1005.5 |
| 20260506170045 | 16 | 0 | 9.7 | 32.2 | 0.03 | 0.36 | 0.36 | 90 | 1005.4 |
| 20260506170020 | 16 | 360 | 0.0 | 32.2 | 0.03 | 0.36 | 0.36 | 90 | 1005.4 |
| 20260506170013 | 16 | 0 | 9.7 | 32.2 | 0.03 | 0.36 | 0.36 | 90 | 1005.4 |
| 20260506165925 | 16 | 0 | 9.7 | 32.2 | 0.03 | 0.36 | 0.36 | 90 | 1005.4 |
| 20260506165810 | 16 | 0 | 9.7 | 32.2 | 0.03 | 0.36 | 0.36 | 90 | 1005.4 |
| 20260506165711 | 16 | 0 | 9.7 | 32.2 | 0.05 | 0.36 | 0.36 | 90 | 1005.4 |
| 20260506165637 | 16 | 0 | 8.0 | 27.4 | 0.05 | 0.36 | 0.36 | 90 | 1005.1 |
| 20260506165610 | 16 | 0 | 8.0 | 32.2 | 0.05 | 0.36 | 0.36 | 90 | 1005.4 |
| 20260506165538 | 16 | 0 | 8.0 | 27.4 | 0.05 | 0.36 | 0.36 | 90 | 1005.1 |
| 20260506165533 | 16 | 0 | 8.0 | 27.4 | 0.05 | 0.36 | 0.36 | 91 | 1005.2 |
| 20260506165524 | 16 | 0 | 8.0 | 27.4 | 0.05 | 0.36 | 0.36 | 91 | 1005.1 |
| 20260506165520 | 16 | 360 | 16.1 | 27.4 | 0.05 | 0.36 | 0.36 | 91 | 1005.3 |
| 20260506165209 | 16 | 0 | 6.4 | 27.4 | 0.05 | 0.36 | 0.36 | 91 | 1005.2 |
| 20260506165108 | 16 | 0 | 8.0 | 29.0 | 0.08 | 0.36 | 0.36 | 91 | 1005.2 |
| 20260506165037 | 16 | 0 | 8.0 | 32.2 | 0.08 | 0.36 | 0.36 | 91 | 1005.0 |
| 20260506165035 | 16 | 360 | 9.7 | 32.2 | 0.08 | 0.36 | 0.36 | 91 | 1005.2 |
| 20260506165008 | 16 | 0 | 8.0 | 32.2 | 0.08 | 0.36 | 0.36 | 91 | 1005.1 |
| 20260506164921 | 16 | 0 | 8.0 | 32.2 | 0.08 | 0.36 | 0.36 | 91 | 1005.0 |
| 20260506164806 | 16 | 0 | 8.0 | 32.2 | 0.08 | 0.36 | 0.36 | 91 | 1005.0 |
| 20260506164706 | 16 | 0 | 8.0 | 32.2 | 0.08 | 0.36 | 0.36 | 91 | 1005.0 |
| 20260506164621 | 16 | 0 | 9.7 | 32.2 | 0.08 | 0.36 | 0.36 | 91 | 1005.0 |
| 20260506164615 | 16 | 0 | 8.0 | 32.2 | 0.08 | 0.36 | 0.36 | 91 | 1005.0 |
| 20260506164520 | 16 | 360 | 6.4 | 32.2 | 0.08 | 0.36 | 0.36 | 91 | 1005.1 |
| 20260506164421 | 16 | 0 | 9.7 | 32.2 | 0.10 | 0.36 | 0.36 | 91 | 1005.1 |
| 20260506164412 | 16 | 0 | 9.7 | 37.0 | 0.10 | 0.36 | 0.36 | 91 | 1005.1 |
| 20260506164206 | 16 | 0 | 9.7 | 37.0 | 0.10 | 0.36 | 0.36 | 91 | 1005.1 |
| 20260506164122 | 16 | 0 | 9.7 | 37.0 | 0.10 | 0.36 | 0.36 | 91 | 1005.1 |
| 20260506164118 | 16 | 0 | 9.7 | 37.0 | 0.13 | 0.36 | 0.36 | 91 | 1005.0 |
| 20260506164113 | 16 | 0 | 9.7 | 37.0 | 0.10 | 0.36 | 0.36 | 91 | 1005.1 |
| 20260506164020 | 16 | 360 | 4.8 | 30.6 | 0.10 | 0.36 | 0.36 | 91 | 1005.2 |
| 20260506163920 | 16 | 0 | 9.7 | 37.0 | 0.13 | 0.36 | 0.36 | 91 | 1005.0 |
| 20260506163802 | 16 | 0 | 9.7 | 37.0 | 0.13 | 0.36 | 0.36 | 91 | 1005.0 |
| 20260506163702 | 16 | 0 | 8.0 | 37.0 | 0.13 | 0.36 | 0.36 | 91 | 1004.9 |
| 20260506163602 | 16 | 0 | 8.0 | 37.0 | 0.13 | 0.36 | 0.36 | 91 | 1004.9 |
| 20260506163527 | 16 | 0 | 6.4 | 30.6 | 0.13 | 0.36 | 0.36 | 92 | 1005.2 |
| 20260506163519 | 16 | 360 | 12.9 | 30.6 | 0.13 | 0.36 | 0.36 | 91 | 1005.0 |
| 20260506163501 | 16 | 0 | 8.0 | 37.0 | 0.13 | 0.36 | 0.36 | 91 | 1004.9 |
| 20260506163418 | 16 | 0 | 6.4 | 37.0 | 0.13 | 0.36 | 0.36 | 91 | 1005.0 |
| 20260506163259 | 16 | 0 | 6.4 | 24.1 | 0.13 | 0.36 | 0.36 | 92 | 1005.2 |
| 20260506163159 | 16 | 0 | 6.4 | 24.1 | 0.15 | 0.36 | 0.36 | 92 | 1005.2 |
| 20260506163059 | 16 | 0 | 6.4 | 24.1 | 0.15 | 0.36 | 0.36 | 92 | 1005.4 |
| 20260506163020 | 16 | 360 | 8.0 | 17.7 | 0.15 | 0.36 | 0.36 | 92 | 1005.3 |
| 20260506162958 | 16 | 0 | 6.4 | 17.7 | 0.15 | 0.36 | 0.36 | 92 | 1005.2 |
| 20260506162857 | 16 | 0 | 6.4 | 22.5 | 0.15 | 0.36 | 0.36 | 92 | 1005.0 |
| 20260506162809 | 16 | 0 | 6.4 | 22.5 | 0.15 | 0.36 | 0.36 | 92 | 1004.9 |
| 20260506162756 | 16 | 0 | 6.4 | 22.5 | 0.15 | 0.36 | 0.36 | 92 | 1004.9 |
| 20260506162656 | 16 | 0 | 6.4 | 22.5 | 0.18 | 0.36 | 0.36 | 92 | 1004.8 |
| 20260506162610 | 16 | 0 | 6.4 | 22.5 | 0.18 | 0.36 | 0.36 | 92 | 1004.9 |
| 20260506162605 | 16 | 0 | 4.8 | 22.5 | 0.18 | 0.36 | 0.36 | 92 | 1004.9 |
| 20260506162520 | 16 | 360 | 0.0 | 22.5 | 0.18 | 0.36 | 0.36 | 92 | 1005.0 |
| 20260506162354 | 16 | 0 | 6.4 | 22.5 | 0.18 | 0.36 | 0.36 | 92 | 1004.9 |
| 20260506162308 | 16 | 0 | 4.8 | 22.5 | 0.18 | 0.36 | 0.36 | 92 | 1004.9 |
| 20260506162253 | 16 | 0 | 4.8 | 22.5 | 0.18 | 0.36 | 0.36 | 92 | 1004.9 |
| 20260506162153 | 16 | 0 | 4.8 | 22.5 | 0.18 | 0.36 | 0.36 | 92 | 1004.9 |
| 20260506162053 | 16 | 0 | 3.2 | 22.5 | 0.20 | 0.36 | 0.36 | 92 | 1005.1 |
| 20260506162027 | 16 | 0 | 1.6 | 19.3 | 0.20 | 0.36 | 0.36 | 92 | 1005.4 |
| 20260506162020 | 16 | 360 | 16.1 | 22.5 | 0.20 | 0.36 | 0.36 | 92 | 1005.3 |
| 20260506161951 | 16 | 0 | 1.6 | 22.5 | 0.20 | 0.36 | 0.36 | 92 | 1005.1 |
| 20260506161915 | 16 | 0 | 1.6 | 19.3 | 0.20 | 0.36 | 0.36 | 92 | 1005.2 |
| 20260506161751 | 16 | 0 | 1.6 | 19.3 | 0.20 | 0.36 | 0.36 | 92 | 1005.4 |
| 20260506161650 | 16 | 0 | 1.6 | 14.5 | 0.23 | 0.36 | 0.36 | 92 | 1005.4 |
| 20260506161549 | 16 | 0 | 1.6 | 9.7 | 0.23 | 0.36 | 0.36 | 92 | 1005.5 |
| 20260506161520 | 16 | 360 | 0.0 | 9.7 | 0.23 | 0.36 | 0.36 | 92 | 1005.7 |
| 20260506161450 | 16 | 0 | 1.6 | 9.7 | 0.20 | 0.33 | 0.36 | 92 | 1005.6 |
| 20260506161349 | 16 | 0 | 0.0 | 9.7 | 0.20 | 0.33 | 0.33 | 92 | 1005.7 |
| 20260506161305 | 16 | 0 | 1.6 | 8.0 | 0.20 | 0.33 | 0.33 | 92 | 1005.8 |
| 20260506161248 | 16 | 0 | 1.6 | 8.0 | 0.20 | 0.33 | 0.33 | 92 | 1005.8 |
| 20260506161148 | 16 | 0 | 1.6 | 8.0 | 0.20 | 0.33 | 0.33 | 92 | 1005.8 |
| 20260506161047 | 16 | 0 | 1.6 | 8.0 | 0.23 | 0.33 | 0.33 | 92 | 1005.8 |
| 20260506161020 | 16 | 360 | 0.0 | 8.0 | 0.23 | 0.33 | 0.33 | 91 | 1006.0 |
| 20260506160946 | 16 | 0 | 1.6 | 8.0 | 0.23 | 0.33 | 0.33 | 91 | 1005.9 |
| 20260506160905 | 16 | 0 | 0.0 | 8.0 | 0.23 | 0.33 | 0.33 | 91 | 1006.0 |
| 20260506160852 | 16 | 0 | 0.0 | 8.0 | 0.23 | 0.33 | 0.33 | 91 | 1006.0 |
| 20260506160644 | 16 | 0 | 0.0 | 8.0 | 0.23 | 0.33 | 0.33 | 91 | 1006.1 |
| 20260506160543 | 16 | 0 | 0.0 | 4.8 | 0.23 | 0.33 | 0.33 | 92 | 1006.2 |
| 20260506160520 | 16 | 360 | 0.0 | 4.8 | 0.23 | 0.33 | 0.33 | 92 | 1006.3 |
| 20260506160458 | 16 | 0 | 0.0 | 4.8 | 0.23 | 0.33 | 0.33 | 91 | 1006.3 |
| 20260506160453 | 16 | 0 | 0.0 | 4.8 | 0.23 | 0.33 | 0.33 | 92 | 1006.2 |
| 20260506160303 | 16 | 0 | 0.0 | 4.8 | 0.23 | 0.33 | 0.33 | 91 | 1006.3 |
| 20260506160241 | 16 | 0 | 0.0 | 4.8 | 0.23 | 0.33 | 0.33 | 91 | 1006.3 |
| 20260506160201 | 16 | 0 | 0.0 | 4.8 | 0.23 | 0.33 | 0.33 | 91 | 1006.3 |
| 20260506160050 | 16 | 360 | 0.0 | 6.4 | 0.23 | 0.33 | 0.33 | 91 | 1006.5 |
| 20260506160047 | 16 | 0 | 0.0 | 4.8 | 0.23 | 0.33 | 0.33 | 91 | 1006.3 |
| 20260506155837 | 16 | 0 | 1.6 | 17.7 | 0.23 | 0.33 | 0.33 | 91 | 1006.3 |
| 20260506155819 | 16 | 0 | 1.6 | 17.7 | 0.23 | 0.30 | 0.30 | 91 | 1006.4 |
| 20260506155814 | 16 | 0 | 1.6 | 17.7 | 0.25 | 0.33 | 0.33 | 91 | 1006.3 |
| 20260506155807 | 16 | 0 | 1.6 | 17.7 | 0.25 | 0.33 | 0.33 | 91 | 1006.3 |
| 20260506155654 | 16 | 0 | 1.6 | 17.7 | 0.23 | 0.30 | 0.30 | 91 | 1006.4 |
| 20260506155520 | 16 | 360 | 0.0 | 17.7 | 0.23 | 0.30 | 0.30 | 91 | 1006.5 |
| 20260506155335 | 16 | 0 | 1.6 | 17.7 | 0.23 | 0.30 | 0.30 | 91 | 1006.5 |
| 20260506155234 | 16 | 0 | 1.6 | 17.7 | 0.23 | 0.30 | 0.30 | 91 | 1006.5 |
| 20260506155132 | 16 | 0 | 1.6 | 17.7 | 0.20 | 0.28 | 0.30 | 91 | 1006.5 |
| 20260506155035 | 16 | 360 | 3.2 | 17.7 | 0.20 | 0.28 | 0.28 | 91 | 1006.6 |
| 20260506155032 | 16 | 0 | 0.0 | 17.7 | 0.20 | 0.28 | 0.28 | 91 | 1006.5 |
| 20260506154932 | 16 | 0 | 0.0 | 17.7 | 0.20 | 0.28 | 0.28 | 91 | 1006.5 |
| 20260506154831 | 16 | 0 | 0.0 | 4.8 | 0.20 | 0.28 | 0.28 | 91 | 1006.6 |
| 20260506154730 | 16 | 0 | 0.0 | 4.8 | 0.20 | 0.28 | 0.28 | 91 | 1006.5 |
| 20260506154642 | 16 | 0 | 0.0 | 6.4 | 0.20 | 0.28 | 0.28 | 90 | 1006.6 |
| 20260506154637 | 16 | 0 | 0.0 | 4.8 | 0.20 | 0.28 | 0.28 | 90 | 1006.6 |
| 20260506154520 | 16 | 360 | 0.0 | 6.4 | 0.20 | 0.28 | 0.28 | 90 | 1006.7 |
| 20260506154442 | 16 | 0 | 0.0 | 6.4 | 0.18 | 0.25 | 0.25 | 90 | 1006.7 |
| 20260506154436 | 16 | 0 | 0.0 | 6.4 | 0.18 | 0.25 | 0.25 | 90 | 1006.6 |
| 20260506154259 | 16 | 0 | 0.0 | 6.4 | 0.20 | 0.25 | 0.25 | 90 | 1006.7 |
| 20260506154226 | 16 | 0 | 0.0 | 6.4 | 0.20 | 0.25 | 0.25 | 90 | 1006.7 |
| 20260506154139 | 16 | 0 | 0.0 | 9.7 | 0.20 | 0.25 | 0.25 | 90 | 1006.7 |
| 20260506154134 | 16 | 0 | 0.0 | 6.4 | 0.20 | 0.25 | 0.25 | 90 | 1006.7 |
| 20260506154020 | 16 | 360 | 0.0 | 9.7 | 0.20 | 0.25 | 0.25 | 90 | 1006.7 |
| 20260506154018 | 16 | 0 | 1.6 | 9.7 | 0.18 | 0.23 | 0.23 | 90 | 1006.6 |
| 20260506153925 | 16 | 0 | 0.0 | 9.7 | 0.20 | 0.25 | 0.25 | 90 | 1006.6 |
| 20260506153907 | 16 | 0 | 0.0 | 9.7 | 0.18 | 0.23 | 0.25 | 90 | 1006.6 |
| 20260506153725 | 16 | 0 | 1.6 | 14.5 | 0.18 | 0.23 | 0.23 | 89 | 1006.6 |
| 20260506153623 | 16 | 0 | 1.6 | 14.5 | 0.18 | 0.23 | 0.23 | 89 | 1006.6 |
| 20260506153521 | 16 | 0 | 0.0 | 14.5 | 0.18 | 0.23 | 0.23 | 89 | 1006.7 |
| 20260506153420 | 16 | 0 | 0.0 | 14.5 | 0.20 | 0.23 | 0.23 | 89 | 1006.6 |
| 20260506153338 | 16 | 0 | 0.0 | 14.5 | 0.18 | 0.20 | 0.20 | 89 | 1006.5 |
| 20260506153333 | 16 | 0 | 0.0 | 14.5 | 0.20 | 0.23 | 0.23 | 89 | 1006.5 |
| 20260506153325 | 16 | 0 | 0.0 | 14.5 | 0.20 | 0.23 | 0.23 | 89 | 1006.5 |
| 20260506153118 | 16 | 0 | 0.0 | 14.5 | 0.18 | 0.20 | 0.20 | 89 | 1006.5 |
| 20260506153020 | 16 | 360 | 0.0 | 14.5 | 0.18 | 0.20 | 0.20 | 89 | 1006.7 |
| 20260506153018 | 16 | 0 | 0.0 | 14.5 | 0.18 | 0.20 | 0.20 | 89 | 1006.6 |
| 20260506152917 | 16 | 0 | 0.0 | 14.5 | 0.18 | 0.20 | 0.20 | 89 | 1006.6 |
| 20260506152819 | 16 | 0 | 0.0 | 14.5 | 0.18 | 0.20 | 0.20 | 89 | 1006.6 |
| 20260506152755 | 16 | 0 | 0.0 | 14.5 | 0.20 | 0.20 | 0.20 | 88 | 1006.6 |
| 20260506152718 | 16 | 0 | 0.0 | 8.0 | 0.18 | 0.18 | 0.20 | 88 | 1006.6 |
| 20260506152615 | 16 | 0 | 0.0 | 8.0 | 0.18 | 0.18 | 0.18 | 88 | 1006.6 |
| 20260506152521 | 16 | 360 | 0.0 | 8.0 | 0.18 | 0.18 | 0.18 | 88 | 1006.6 |
| 20260506152515 | 16 | 0 | 0.0 | 8.0 | 0.18 | 0.18 | 0.18 | 88 | 1006.5 |
| 20260506152415 | 16 | 0 | 0.0 | 8.0 | 0.18 | 0.18 | 0.18 | 88 | 1006.5 |
| 20260506152315 | 16 | 0 | 0.0 | 8.0 | 0.18 | 0.18 | 0.18 | 88 | 1006.5 |
| 20260506152256 | 16 | 0 | 0.0 | 8.0 | 0.18 | 0.18 | 0.18 | 88 | 1006.6 |
| 20260506152214 | 16 | 0 | 0.0 | 8.0 | 0.18 | 0.18 | 0.18 | 88 | 1006.6 |
| 20260506152135 | 16 | 0 | 0.0 | 8.0 | 0.15 | 0.15 | 0.18 | 88 | 1006.7 |
| 20260506152022 | 16 | 0 | 0.0 | 8.0 | 0.15 | 0.15 | 0.15 | 87 | 1006.6 |
| 20260506152020 | 16 | 360 | 0.0 | 8.0 | 0.15 | 0.15 | 0.15 | 87 | 1006.7 |
| 20260506151811 | 16 | 0 | 0.0 | 12.9 | 0.15 | 0.15 | 0.15 | 88 | 1006.7 |
| 20260506151756 | 16 | 0 | 0.0 | 12.9 | 0.15 | 0.15 | 0.15 | 88 | 1006.7 |
| 20260506151740 | 16 | 0 | 0.0 | 12.9 | 0.13 | 0.13 | 0.13 | 87 | 1006.7 |
| 20260506151734 | 16 | 0 | 0.0 | 12.9 | 0.13 | 0.13 | 0.15 | 87 | 1006.7 |
| 20260506151621 | 16 | 0 | 0.0 | 12.9 | 0.13 | 0.13 | 0.13 | 87 | 1006.7 |
| 20260506151535 | 16 | 360 | 0.0 | 12.9 | 0.13 | 0.13 | 0.13 | 87 | 1006.7 |
| 20260506151412 | 16 | 0 | 0.0 | 12.9 | 0.13 | 0.13 | 0.13 | 87 | 1006.8 |
| 20260506151401 | 16 | 0 | 0.0 | 12.9 | 0.13 | 0.13 | 0.13 | 87 | 1006.8 |
| 20260506151210 | 16 | 0 | 0.0 | 12.9 | 0.13 | 0.13 | 0.13 | 87 | 1006.8 |
| 20260506151124 | 17 | 0 | 1.6 | 12.9 | 0.10 | 0.10 | 0.10 | 87 | 1006.7 |
| 20260506151119 | 16 | 0 | 0.0 | 12.9 | 0.10 | 0.10 | 0.10 | 87 | 1006.8 |
| 20260506151020 | 17 | 360 | 0.0 | 12.9 | 0.10 | 0.10 | 0.10 | 87 | 1006.7 |
| 20260506150908 | 17 | 0 | 1.6 | 12.9 | 0.10 | 0.10 | 0.10 | 87 | 1006.7 |
| 20260506150808 | 17 | 0 | 1.6 | 8.0 | 0.10 | 0.10 | 0.10 | 87 | 1006.6 |
| 20260506150752 | 17 | 0 | 1.6 | 12.9 | 0.10 | 0.10 | 0.10 | 87 | 1006.6 |
| 20260506150707 | 17 | 0 | 1.6 | 12.9 | 0.10 | 0.10 | 0.10 | 87 | 1006.6 |
| 20260506150607 | 17 | 0 | 1.6 | 12.9 | 0.10 | 0.10 | 0.10 | 87 | 1006.7 |
| 20260506150521 | 17 | 0 | 0.0 | 12.9 | 0.10 | 0.10 | 0.10 | 87 | 1006.7 |
| 20260506150515 | 17 | 0 | 0.0 | 12.9 | 0.10 | 0.10 | 0.10 | 87 | 1006.7 |
| 20260506150306 | 17 | 0 | 0.0 | 12.9 | 0.10 | 0.10 | 0.10 | 87 | 1006.6 |
| 20260506150249 | 17 | 0 | 0.0 | 12.9 | 0.10 | 0.10 | 0.10 | 87 | 1006.6 |
| 20260506150205 | 17 | 0 | 0.0 | 12.9 | 0.10 | 0.10 | 0.10 | 87 | 1006.6 |
| 20260506150120 | 17 | 0 | 0.0 | 12.9 | 0.10 | 0.10 | 0.10 | 87 | 1006.7 |
| 20260506150115 | 17 | 0 | 0.0 | 12.9 | 0.10 | 0.10 | 0.10 | 87 | 1006.6 |
| 20260506150020 | 17 | 360 | 0.0 | 12.9 | 0.10 | 0.10 | 0.10 | 87 | 1006.7 |
| 20260506145904 | 17 | 0 | 0.0 | 12.9 | 0.10 | 0.10 | 0.10 | 87 | 1006.6 |
| 20260506145822 | 17 | 0 | 0.0 | 1.6 | 0.08 | 0.08 | 0.08 | 87 | 1006.6 |
| 20260506145810 | 17 | 0 | 0.0 | 1.6 | 0.08 | 0.08 | 0.10 | 87 | 1006.6 |
| 20260506145601 | 17 | 0 | 0.0 | 1.6 | 0.08 | 0.08 | 0.08 | 86 | 1006.5 |
| 20260506145520 | 17 | 360 | 0.0 | 1.6 | 0.08 | 0.08 | 0.08 | 86 | 1006.5 |
| 20260506145501 | 17 | 0 | 0.0 | 1.6 | 0.08 | 0.08 | 0.08 | 86 | 1006.5 |
| 20260506145401 | 17 | 0 | 0.0 | 1.6 | 0.08 | 0.08 | 0.08 | 86 | 1006.5 |
| 20260506145249 | 17 | 0 | 0.0 | 1.6 | 0.08 | 0.08 | 0.08 | 86 | 1006.4 |
| 20260506145200 | 17 | 0 | 0.0 | 1.6 | 0.08 | 0.08 | 0.08 | 85 | 1006.4 |
| 20260506145113 | 17 | 0 | 0.0 | 1.6 | 0.08 | 0.08 | 0.08 | 85 | 1006.3 |
| 20260506145108 | 17 | 0 | 0.0 | 1.6 | 0.08 | 0.08 | 0.08 | 85 | 1006.4 |
| 20260506145020 | 17 | 360 | 0.0 | 1.6 | 0.08 | 0.08 | 0.08 | 85 | 1006.3 |
| 20260506144858 | 17 | 0 | 0.0 | 1.6 | 0.08 | 0.08 | 0.08 | 85 | 1006.3 |
| 20260506144747 | 17 | 0 | 0.0 | 0.0 | 0.08 | 0.08 | 0.08 | 85 | 1006.2 |
| 20260506144657 | 17 | 0 | 0.0 | 0.0 | 0.08 | 0.08 | 0.08 | 85 | 1006.3 |
| 20260506144556 | 17 | 0 | 0.0 | 0.0 | 0.08 | 0.08 | 0.08 | 85 | 1006.3 |
| 20260506144520 | 17 | 360 | 0.0 | 1.6 | 0.08 | 0.08 | 0.08 | 84 | 1006.3 |
| 20260506144455 | 17 | 0 | 0.0 | 1.6 | 0.08 | 0.08 | 0.08 | 84 | 1006.3 |
| 20260506144355 | 17 | 0 | 0.0 | 1.6 | 0.08 | 0.08 | 0.08 | 84 | 1006.3 |
| 20260506144255 | 17 | 0 | 0.0 | 3.2 | 0.05 | 0.05 | 0.05 | 84 | 1006.4 |
| 20260506144247 | 17 | 0 | 0.0 | 3.2 | 0.05 | 0.05 | 0.05 | 83 | 1006.4 |
| 20260506144154 | 17 | 0 | 0.0 | 3.2 | 0.05 | 0.05 | 0.05 | 83 | 1006.4 |
| 20260506144051 | 17 | 0 | 0.0 | 3.2 | 0.05 | 0.05 | 0.05 | 83 | 1006.4 |
| 20260506144020 | 17 | 360 | 0.0 | 3.2 | 0.05 | 0.05 | 0.05 | 83 | 1006.5 |
| 20260506143951 | 17 | 0 | 0.0 | 3.2 | 0.05 | 0.05 | 0.05 | 83 | 1006.5 |
| 20260506143850 | 17 | 0 | 0.0 | 19.3 | 0.05 | 0.05 | 0.05 | 83 | 1006.6 |
| 20260506143745 | 17 | 0 | 0.0 | 19.3 | 0.05 | 0.05 | 0.05 | 82 | 1006.6 |
| 20260506143649 | 17 | 0 | 0.0 | 19.3 | 0.05 | 0.05 | 0.05 | 82 | 1006.6 |
| 20260506143603 | 17 | 0 | 0.0 | 19.3 | 0.03 | 0.03 | 0.03 | 81 | 1006.7 |
| 20260506143558 | 17 | 0 | 0.0 | 19.3 | 0.05 | 0.05 | 0.05 | 81 | 1006.6 |
| 20260506143520 | 17 | 360 | 0.0 | 19.3 | 0.05 | 0.05 | 0.05 | 81 | 1006.7 |
| 20260506143347 | 17 | 0 | 0.0 | 19.3 | 0.03 | 0.03 | 0.03 | 81 | 1006.7 |
| 20260506143248 | 17 | 0 | 0.0 | 19.3 | 0.03 | 0.03 | 0.03 | 81 | 1006.7 |
| 20260506143147 | 17 | 0 | 0.0 | 19.3 | 0.03 | 0.03 | 0.03 | 80 | 1006.8 |
| 20260506143046 | 17 | 0 | 0.0 | 19.3 | 0.03 | 0.03 | 0.03 | 80 | 1006.7 |
| 20260506143020 | 17 | 360 | 0.0 | 19.3 | 0.03 | 0.03 | 0.03 | 80 | 1006.7 |
| 20260506142945 | 17 | 0 | 0.0 | 19.3 | 0.03 | 0.03 | 0.03 | 80 | 1006.7 |
| 20260506142843 | 18 | 0 | 0.0 | 8.0 | 0.03 | 0.03 | 0.03 | 80 | 1006.7 |
| 20260506142743 | 18 | 0 | 0.0 | 8.0 | 0.00 | 0.00 | 0.00 | 79 | 1006.7 |
| 20260506142641 | 18 | 0 | 0.0 | 8.0 | 0.00 | 0.00 | 0.00 | 79 | 1006.7 |
| 20260506142541 | 18 | 0 | 0.0 | 4.8 | 0.00 | 0.00 | 0.00 | 79 | 1006.7 |
| 20260506142520 | 18 | 360 | 0.0 | 4.8 | 0.00 | 0.00 | 0.00 | 79 | 1006.7 |
| 20260506142440 | 18 | 0 | 0.0 | 4.8 | 0.00 | 0.00 | 0.00 | 79 | 1006.7 |
| 20260506142340 | 18 | 0 | 0.0 | 6.4 | 0.00 | 0.00 | 0.00 | 79 | 1006.7 |
| 20260506142322 | 18 | 0 | 0.0 | 6.4 | 0.00 | 0.00 | 0.00 | 78 | 1006.7 |
| 20260506142310 | 18 | 0 | 0.0 | 6.4 | 0.00 | 0.00 | 0.00 | 78 | 1006.7 |
| 20260506142047 | 18 | 0 | 0.0 | 6.4 | 0.00 | 0.00 | 0.00 | 78 | 1006.8 |
| 20260506142020 | 18 | 360 | 0.0 | 6.4 | 0.00 | 0.00 | 0.00 | 78 | 1006.7 |
| 20260506141838 | 18 | 0 | 0.0 | 6.4 | 0.00 | 0.00 | 0.00 | 77 | 1006.7 |
| 20260506141738 | 18 | 0 | 0.0 | 6.4 | 0.00 | 0.00 | 0.00 | 77 | 1006.8 |
| 20260506141636 | 18 | 0 | 0.0 | 6.4 | 0.00 | 0.00 | 0.00 | 77 | 1006.7 |
| 20260506141550 | 18 | 360 | 0.0 | 6.4 | 0.00 | 0.00 | 0.00 | 76 | 1006.7 |
| 20260506141536 | 18 | 0 | 0.0 | 6.4 | 0.00 | 0.00 | 0.00 | 76 | 1006.8 |
| 20260506141435 | 18 | 0 | 0.0 | 6.4 | 0.00 | 0.00 | 0.00 | 77 | 1006.7 |
| 20260506141336 | 18 | 0 | 0.0 | 9.7 | 0.00 | 0.00 | 0.00 | 76 | 1006.6 |
| 20260506141233 | 18 | 0 | 0.0 | 17.7 | 0.00 | 0.00 | 0.00 | 76 | 1006.6 |
| 20260506141133 | 18 | 0 | 0.0 | 17.7 | 0.00 | 0.00 | 0.00 | 76 | 1006.6 |
| 20260506141033 | 18 | 0 | 0.0 | 17.7 | 0.00 | 0.00 | 0.00 | 75 | 1006.7 |
| 20260506141020 | 18 | 360 | 1.6 | 17.7 | 0.00 | 0.00 | 0.00 | 75 | 1006.7 |
| 20260506140945 | 18 | 0 | 0.0 | 17.7 | 0.00 | 0.00 | 0.00 | 75 | 1006.6 |
| 20260506140940 | 18 | 0 | 0.0 | 17.7 | 0.00 | 0.00 | 0.00 | 75 | 1006.7 |
| 20260506140730 | 18 | 0 | 0.0 | 17.7 | 0.00 | 0.00 | 0.00 | 74 | 1006.7 |
| 20260506140630 | 19 | 0 | 0.0 | 17.7 | 0.00 | 0.00 | 0.00 | 74 | 1006.6 |
| 20260506140600 | 19 | 0 | 0.0 | 11.3 | 0.00 | 0.00 | 0.00 | 73 | 1006.6 |
| 20260506140529 | 19 | 0 | 0.0 | 17.7 | 0.00 | 0.00 | 0.00 | 74 | 1006.6 |
| 20260506140520 | 19 | 360 | 0.0 | 17.7 | 0.00 | 0.00 | 0.00 | 74 | 1006.6 |
| 20260506140457 | 19 | 0 | 0.0 | 11.3 | 0.00 | 0.00 | 0.00 | 73 | 1006.6 |
| 20260506140451 | 19 | 0 | 1.6 | 17.7 | 0.00 | 0.00 | 0.00 | 73 | 1006.6 |
| 20260506140442 | 19 | 0 | 0.0 | 17.7 | 0.00 | 0.00 | 0.00 | 73 | 1006.5 |
| 20260506140126 | 19 | 0 | 0.0 | 11.3 | 0.00 | 0.00 | 0.00 | 73 | 1006.6 |
| 20260506140026 | 19 | 0 | 0.0 | 11.3 | 0.00 | 0.00 | 0.00 | 73 | 1006.5 |
| 20260506140020 | 19 | 360 | 0.0 | 11.3 | 0.00 | 0.00 | 0.00 | 73 | 1006.5 |
| 20260506135925 | 19 | 0 | 0.0 | 11.3 | 0.00 | 0.00 | 0.00 | 73 | 1006.5 |
| 20260506135824 | 19 | 0 | 0.0 | 11.3 | 0.00 | 0.00 | 0.00 | 72 | 1006.4 |
| 20260506135733 | 19 | 201 | 1.6 | 20.9 | 0.00 | 0.00 | 0.00 | 73 | 1006.2 |
| 20260506135728 | 19 | 0 | 0.0 | 11.3 | 0.00 | 0.00 | 0.00 | 72 | 1006.3 |
| 20260506135718 | 19 | 0 | 0.0 | 11.3 | 0.00 | 0.00 | 0.00 | 72 | 1006.3 |
| 20260506135605 | 19 | 0 | 1.6 | 20.9 | 0.00 | 0.00 | 0.00 | 72 | 1006.3 |
| 20260506135556 | 19 | 217 | 1.6 | 20.9 | 0.00 | 0.00 | 0.00 | 72 | 1006.3 |
| 20260506135520 | 19 | 360 | 0.0 | 20.9 | 0.00 | 0.00 | 0.00 | 72 | 1006.4 |
| 20260506135227 | 19 | 194 | 1.6 | 20.9 | 0.00 | 0.00 | 0.00 | 73 | 1006.2 |
| 20260506135059 | 19 | 212 | 1.6 | 20.9 | 0.00 | 0.00 | 0.00 | 73 | 1006.0 |
| 20260506135053 | 19 | 208 | 1.6 | 20.9 | 0.00 | 0.00 | 0.00 | 74 | 1006.1 |
| 20260506135020 | 19 | 209 | 0.0 | 20.9 | 0.00 | 0.00 | 0.00 | 74 | 1006.1 |
| 20260506134830 | 19 | 238 | 1.6 | 20.9 | 0.00 | 0.00 | 0.00 | 72 | 1006.0 |
| 20260506134822 | 19 | 188 | 1.6 | 20.9 | 0.00 | 0.00 | 0.00 | 72 | 1005.9 |
| 20260506134615 | 19 | 176 | 1.6 | 20.9 | 0.00 | 0.00 | 0.00 | 72 | 1005.8 |
| 20260506134520 | 19 | 227 | 9.7 | 16.1 | 0.00 | 0.00 | 0.00 | 72 | 1005.9 |
| 20260506134515 | 19 | 227 | 1.6 | 16.1 | 0.00 | 0.00 | 0.00 | 72 | 1005.8 |
| 20260506134414 | 19 | 194 | 1.6 | 16.1 | 0.00 | 0.00 | 0.00 | 74 | 1005.8 |
| 20260506134314 | 19 | 181 | 1.6 | 12.9 | 0.00 | 0.00 | 0.00 | 74 | 1005.7 |
| 20260506134239 | 19 | 244 | 1.6 | 12.9 | 0.00 | 0.00 | 0.00 | 74 | 1005.7 |
| 20260506134213 | 19 | 206 | 1.6 | 12.9 | 0.00 | 0.00 | 0.00 | 74 | 1005.6 |
| 20260506134112 | 19 | 202 | 1.6 | 12.9 | 0.00 | 0.00 | 0.00 | 74 | 1005.6 |
| 20260506134020 | 19 | 220 | 0.0 | 14.5 | 0.00 | 0.00 | 0.00 | 73 | 1005.7 |
| 20260506134012 | 19 | 220 | 1.6 | 14.5 | 0.00 | 0.00 | 0.00 | 73 | 1005.6 |
| 20260506133911 | 19 | 234 | 1.6 | 14.5 | 0.00 | 0.00 | 0.00 | 74 | 1005.7 |
| 20260506133738 | 19 | 205 | 1.6 | 14.5 | 0.00 | 0.00 | 0.00 | 74 | 1005.7 |
| 20260506133709 | 19 | 228 | 1.6 | 14.5 | 0.00 | 0.00 | 0.00 | 74 | 1005.9 |
| 20260506133623 | 18 | 178 | 1.6 | 19.3 | 0.00 | 0.00 | 0.00 | 74 | 1006.2 |
| 20260506133618 | 18 | 228 | 1.6 | 14.5 | 0.00 | 0.00 | 0.00 | 74 | 1006.1 |
| 20260506133550 | 18 | 178 | 4.8 | 17.7 | 0.00 | 0.00 | 0.00 | 74 | 1006.3 |
| 20260506133408 | 18 | 187 | 1.6 | 19.3 | 0.00 | 0.00 | 0.00 | 74 | 1006.2 |
| 20260506133307 | 18 | 198 | 1.6 | 19.3 | 0.00 | 0.00 | 0.00 | 74 | 1006.3 |
| 20260506133236 | 18 | 151 | 1.6 | 19.3 | 0.00 | 0.00 | 0.00 | 74 | 1006.3 |
| 20260506133207 | 18 | 232 | 1.6 | 19.3 | 0.00 | 0.00 | 0.00 | 74 | 1006.4 |
| 20260506133105 | 18 | 202 | 1.6 | 19.3 | 0.00 | 0.00 | 0.00 | 74 | 1006.4 |
| 20260506133035 | 18 | 244 | 0.0 | 17.7 | 0.00 | 0.00 | 0.00 | 74 | 1006.5 |
| 20260506133004 | 18 | 236 | 1.6 | 19.3 | 0.00 | 0.00 | 0.00 | 74 | 1006.4 |
| 20260506132903 | 18 | 170 | 0.0 | 19.3 | 0.00 | 0.00 | 0.00 | 74 | 1006.4 |
| 20260506132802 | 18 | 174 | 0.0 | 19.3 | 0.00 | 0.00 | 0.00 | 74 | 1006.5 |
| 20260506132735 | 18 | 250 | 0.0 | 19.3 | 0.00 | 0.00 | 0.00 | 74 | 1006.5 |
| 20260506132702 | 18 | 221 | 0.0 | 19.3 | 0.00 | 0.00 | 0.00 | 74 | 1006.4 |
| 20260506132602 | 18 | 190 | 0.0 | 19.3 | 0.00 | 0.00 | 0.00 | 74 | 1006.5 |
| 20260506132520 | 18 | 207 | 0.0 | 8.0 | 0.00 | 0.00 | 0.00 | 74 | 1006.5 |
| 20260506132502 | 18 | 184 | 0.0 | 8.0 | 0.00 | 0.00 | 0.00 | 74 | 1006.4 |
| 20260506132401 | 18 | 209 | 0.0 | 8.0 | 0.00 | 0.00 | 0.00 | 74 | 1006.5 |
| 20260506132328 | 18 | 227 | 0.0 | 8.0 | 0.00 | 0.00 | 0.00 | 74 | 1006.5 |
| 20260506132322 | 18 | 213 | 0.0 | 8.0 | 0.00 | 0.00 | 0.00 | 74 | 1006.5 |
| 20260506132209 | 18 | 225 | 0.0 | 8.0 | 0.00 | 0.00 | 0.00 | 74 | 1006.5 |
| 20260506132020 | 18 | 188 | 0.0 | 9.7 | 0.00 | 0.00 | 0.00 | 75 | 1006.5 |
| 20260506131959 | 18 | 188 | 1.6 | 9.7 | 0.00 | 0.00 | 0.00 | 75 | 1006.4 |
| 20260506131859 | 18 | 235 | 1.6 | 9.7 | 0.00 | 0.00 | 0.00 | 74 | 1006.3 |
| 20260506131735 | 18 | 186 | 1.6 | 24.1 | 0.00 | 0.00 | 0.00 | 74 | 1006.4 |
| 20260506131712 | 18 | 214 | 1.6 | 24.1 | 0.00 | 0.00 | 0.00 | 74 | 1006.5 |
| 20260506131706 | 18 | 209 | 1.6 | 24.1 | 0.00 | 0.00 | 0.00 | 74 | 1006.4 |
| 20260506131520 | 18 | 205 | 0.0 | 24.1 | 0.00 | 0.00 | 0.00 | 74 | 1006.5 |
| 20260506131456 | 18 | 207 | 1.6 | 24.1 | 0.00 | 0.00 | 0.00 | 74 | 1006.4 |
| 20260506131355 | 18 | 186 | 1.6 | 24.1 | 0.00 | 0.00 | 0.00 | 74 | 1006.5 |
| 20260506131255 | 18 | 242 | 1.6 | 24.1 | 0.00 | 0.00 | 0.00 | 74 | 1006.5 |
| 20260506131232 | 18 | 235 | 1.6 | 24.1 | 0.00 | 0.00 | 0.00 | 74 | 1006.5 |
| 20260506131154 | 18 | 187 | 1.6 | 24.1 | 0.00 | 0.00 | 0.00 | 74 | 1006.5 |
| 20260506131054 | 18 | 190 | 1.6 | 24.1 | 0.00 | 0.00 | 0.00 | 73 | 1006.4 |
| 20260506131020 | 18 | 207 | 0.0 | 24.1 | 0.00 | 0.00 | 0.00 | 73 | 1006.6 |